[[{"header":{"parameterUnit":"m.s-1","parameterCategory":1,"la1":31.0,"la2":29.5877,"lo1":-88.7671,"lo2":-86.6584,"dy":0.0162,"dx":0.0185,"nx":115,"ny":88,"refTime":"2026-05-21T12:00:00:Z","depth":0,"parameterNumber":2,"parameterNumberName":"U-component_of_WINDS"},"data":[0.0,0.0,0.0,0.0,0.0,0.0,0.0,0.0,0.0,0.0,0.0,0.0,0.0,0.0,0.0,0.0,0.0,0.0,0.0,0.0,0.0,0.0,0.0,0.0,0.0,0.0,0.0,0.0,0.0,0.0,0.0,0.0,0.0,0.0,0.0,0.0,0.0,0.0,0.0,0.0,0.0,0.0,0.0,0.0,0.0,0.0,0.0,0.0,0.0,0.0,0.0,0.0,0.0,0.0,0.0,0.0,0.0,0.0,0.0,0.0,0.0,0.0,0.0,0.0,0.0,0.0,0.0,0.0,0.0,0.0,0.0,0.0,0.0,0.0,0.0,0.0,0.0,0.0,0.0,0.0,0.0,0.0,0.0,0.0,0.0,0.0,0.0,0.0,0.0,0.0,0.0,0.0,0.0,0.0,0.0,0.0,0.0,0.0,0.0,0.0,0.0,0.0,0.0,0.0,0.0,0.0,0.0,0.0,0.0,0.0,0.0,0.0,0.0,0.0,0.0,0.0,0.0,0.0,0.0,0.0,0.0,0.0,0.0,0.0,0.0,0.0,0.0,0.0,0.0,0.0,0.0,0.0,0.0,0.0,0.0,0.0,0.0,0.0,0.0,0.0,0.0,0.0,0.0,0.0,0.0,0.0,0.0,0.0,0.0,0.0,0.0,0.0,0.0,0.0,0.0,0.0,0.0,0.0,0.0,0.0,0.0,0.0,0.0,0.0,0.0,0.0,0.0,0.0,0.0,0.0,0.0,0.0,0.0,0.0,0.0,0.0,0.0,0.0,0.0,0.0,0.0,0.0,0.0,0.0,0.0,0.0,0.0,0.0,0.0,0.0,0.0,0.0,0.0,0.0,0.0,0.0,0.0,0.0,0.0,0.0,0.0,0.0,0.0,0.0,0.0,0.0,0.0,0.0,0.0,0.0,0.0,0.0,0.0,0.0,0.0,0.0,0.0,0.0,0.0,0.0,0.0,0.0,0.0,0.0,0.0,0.0,0.0,0.0,0.0,0.0,0.0,0.0,0.0,0.0,0.0,0.0,0.0,0.0,0.0,0.0,0.0,0.0,0.0,0.0,0.0,0.0,0.0,0.0,0.0,0.0,0.0,0.0,0.0,0.0,0.0,0.0,0.0,0.0,0.0,0.0,0.0,0.0,0.0,0.0,0.0,0.0,0.0,0.0,0.0,0.0,0.0,0.0,0.0,0.0,0.0,0.0,0.0,0.0,0.0,0.0,0.0,0.0,0.0,0.0,0.0,0.0,0.0,0.0,0.0,0.0,0.0,0.0,0.0,0.0,0.0,0.0,0.0,0.0,0.0,0.0,0.0,0.0,0.0,0.0,0.0,0.0,0.0,0.0,0.0,0.0,0.0,0.0,0.0,0.0,0.0,0.0,0.0,0.0,0.0,0.0,0.0,0.0,0.0,0.0,0.0,0.0,0.0,0.0,0.0,0.0,0.0,0.0,0.0,0.0,0.0,0.0,0.0,0.0,0.0,0.0,0.0,0.0,0.0,0.0,0.0,0.0,0.0,0.0,0.0,0.0,0.0,0.0,0.0,0.0,0.0,0.0,0.0,0.0,0.0,0.0,0.0,0.0,0.0,0.0,0.0,0.0,0.0,0.0,0.0,0.0,0.0,0.0,0.0,0.0,0.0,0.0,0.0,0.0,0.0,0.0,0.0,0.0,0.0,0.0,0.0,0.0,0.0,0.0,0.0,0.0,0.0,0.0,0.0,0.0,0.0,0.0,0.0,0.0,0.0,0.0,0.0,0.0,0.0,0.0,0.0,0.0,0.0,0.0,0.0,0.0,0.0,0.0,0.0,0.0,0.0,0.0,0.0,0.0,0.0,0.0,0.0,0.0,0.0,0.0,0.0,0.0,0.0,0.0,0.0,0.0,0.0,0.0,0.0,0.0,0.0,0.0,0.0,0.0,0.0,0.0,0.0,0.0,0.0,0.0,0.0,0.0,0.0,0.0,0.0,0.0,0.0,0.0,0.0,0.0,0.0,0.0,0.0,0.0,0.0,0.0,0.0,0.0,0.0,0.0,0.0,0.0,0.0,0.0,0.0,0.0,0.0,0.0,0.0,0.0,0.0,0.0,0.0,0.0,0.0,0.0,0.0,0.0,0.0,0.0,0.0,0.0,0.0,0.0,0.0,0.0,0.0,0.0,0.0,0.0,0.0,0.0,0.0,0.0,0.0,0.0,0.0,0.0,0.0,0.0,0.0,0.0,0.0,0.0,0.0,0.0,0.0,0.0,0.0,0.0,0.0,0.0,0.0,0.0,0.0,0.0,0.0,0.0,0.0,0.0,0.0,0.0,0.0,0.0,0.0,0.0,0.0,0.0,0.0,0.0,0.0,0.0,0.0,0.0,0.0,0.0,0.0,0.0,0.0,0.0,0.0,0.0,0.0,0.0,0.0,0.0,0.0,0.0,0.0,0.0,0.0,0.0,0.0,0.0,0.0,0.0,0.0,0.0,0.0,0.0,0.0,0.0,0.0,0.0,0.0,0.0,0.0,0.0,0.0,0.0,0.0,0.0,0.0,0.0,0.0,0.0,0.0,0.0,0.0,0.0,0.0,0.0,0.0,0.0,0.0,0.0,0.0,0.0,0.0,0.0,0.0,0.0,0.0,0.0,0.0,0.0,0.0,0.0,0.0,0.0,0.0,0.0,0.0,0.0,0.0,0.0,0.0,0.0,0.0,0.0,0.0,0.0,0.0,0.0,0.0,0.0,0.0,0.0,0.0,0.0,0.0,0.0,0.0,0.0,0.0,0.0,0.0,0.0,0.0,0.0,0.0,0.0,0.0,0.0,0.0,0.0,0.0,0.0,0.0,0.0,0.0,0.0,0.0,0.0,0.0,0.0,0.0,0.0,0.0,0.0,0.0,0.0,0.0,0.0,0.0,0.0,0.0,0.0,0.0,0.0,0.0,0.0,0.0,0.0,0.0,0.0,0.0,0.0,0.0,0.0,0.0,0.0,0.0,0.0,0.0,0.0,0.0,0.0,0.0,0.0,0.0,0.0,0.0,0.0,0.0,0.0,0.0,0.0,0.0,0.0,0.0,0.0,0.0,0.0,0.0,0.0,0.0,0.0,0.0,0.0,0.0,0.0,0.0,0.0,0.0,0.0,0.0,0.0,0.0,0.0,0.0,0.0,0.0,0.0,0.0,0.0,0.0,0.0,0.0,0.0,0.0,0.0,0.0,0.0,0.0,0.0,0.0,0.0,0.0,0.0,0.0,0.0,0.0,0.0,0.0,0.0,0.0,0.0,0.0,0.0,0.0,0.0,0.0,0.0,0.0,0.0,0.0,0.0,0.0,0.0,0.0,0.0,0.0,0.0,0.0,0.0,0.0,0.0,0.0,0.0,0.0,0.0,0.0,0.0,0.0,0.0,0.0,0.0,0.0,0.0,0.0,0.0,0.0,0.0,0.0,0.0,0.0,0.0,0.0,0.0,0.0,0.0,0.0,0.0,0.0,0.0,0.0,0.0,0.0,0.0,0.0,0.0,0.0,0.0,0.0,0.0,0.0,0.0,0.0,0.0,0.0,0.0,0.0,0.0,0.0,0.0,0.0,0.0,0.0,0.0,0.0,0.0,0.0,0.0,0.0,0.0,0.0,0.0,0.0,0.0,0.0,0.0,0.0,0.0,0.0,0.0,0.0,0.0,0.0,0.0,0.0,0.0,0.0,0.0,0.0,0.0,0.0,0.0,0.0,0.0,0.0,0.0,0.0,0.0,0.0,0.0,0.0,0.0,0.0,0.0,0.0,0.0,0.0,0.0,0.0,0.0,0.0,0.0,0.0,0.0,0.0,0.0,0.0,0.0,0.0,0.0,0.0,0.0,0.0,0.0,0.0,0.0,0.0,0.0,0.0,0.0,0.0,0.0,0.0,0.0,0.0,0.0,0.0,0.0,0.0,0.0,0.0,0.0,0.0,0.0,0.0,0.0,0.0,0.0,0.0,0.0,0.0,0.0,0.0,0.0,0.0,0.0,0.0,0.0,0.0,0.0,0.0,0.0,0.0,0.0,0.0,0.0,0.0,0.0,0.0,0.0,0.0,0.0,0.0,0.0,0.0,0.0,0.0,0.0,0.0,0.0,0.0,0.0,0.0,0.0,0.0,0.0,0.0,0.0,0.0,0.0,0.0,0.0,0.0,0.0,0.0,0.0,0.0,0.0,0.0,0.0,0.0,0.0,0.0,0.0,0.0,0.0,0.0,0.0,0.0,0.0,0.0,0.0,0.0,0.0,0.0,0.0,-3.4375,0.0,0.0,0.0,0.0,0.0,0.0,0.0,0.0,0.0,0.0,0.0,0.0,0.0,0.0,0.0,0.0,0.0,0.0,0.0,0.0,0.0,0.0,0.0,0.0,0.0,0.0,0.0,0.0,0.0,0.0,0.0,0.0,0.0,0.0,0.0,0.0,0.0,0.0,0.0,0.0,0.0,0.0,0.0,0.0,0.0,0.0,0.0,0.0,0.0,0.0,0.0,0.0,0.0,0.0,0.0,0.0,0.0,0.0,0.0,0.0,0.0,0.0,0.0,0.0,0.0,0.0,0.0,0.0,0.0,0.0,0.0,0.0,0.0,0.0,0.0,0.0,0.0,0.0,0.0,0.0,0.0,0.0,0.0,0.0,0.0,0.0,0.0,0.0,0.0,0.0,0.0,0.0,0.0,0.0,0.0,0.0,0.0,0.0,0.0,0.0,0.0,0.0,0.0,0.0,0.0,0.0,0.0,0.0,0.0,0.0,-3.774,-3.7794,-3.7553,-3.6777,-3.543,0.0,0.0,0.0,0.0,0.0,0.0,0.0,0.0,0.0,0.0,0.0,0.0,0.0,0.0,0.0,0.0,0.0,0.0,0.0,0.0,0.0,0.0,0.0,0.0,0.0,0.0,0.0,0.0,0.0,0.0,0.0,0.0,0.0,0.0,0.0,0.0,0.0,0.0,0.0,0.0,0.0,0.0,0.0,0.0,0.0,0.0,0.0,0.0,0.0,0.0,0.0,0.0,0.0,0.0,0.0,0.0,0.0,0.0,0.0,0.0,0.0,0.0,0.0,0.0,0.0,0.0,0.0,0.0,0.0,0.0,0.0,0.0,0.0,0.0,0.0,0.0,0.0,0.0,0.0,0.0,0.0,0.0,0.0,0.0,0.0,0.0,0.0,0.0,0.0,0.0,0.0,0.0,0.0,0.0,0.0,0.0,0.0,0.0,0.0,0.0,0.0,0.0,0.0,0.0,0.0,0.0,0.0,0.0,0.0,0.0,0.0,0.0,-3.9388,-3.8457,-3.6348,0.0,0.0,0.0,0.0,0.0,0.0,0.0,0.0,0.0,0.0,0.0,0.0,0.0,0.0,0.0,0.0,0.0,0.0,0.0,0.0,0.0,0.0,0.0,0.0,0.0,0.0,0.0,0.0,0.0,0.0,0.0,0.0,0.0,0.0,0.0,0.0,0.0,0.0,0.0,0.0,0.0,0.0,0.0,0.0,0.0,0.0,0.0,0.0,0.0,0.0,0.0,0.0,0.0,0.0,0.0,0.0,0.0,0.0,0.0,0.0,0.0,0.0,0.0,0.0,0.0,0.0,0.0,0.0,0.0,0.0,0.0,0.0,0.0,0.0,0.0,0.0,0.0,0.0,0.0,0.0,0.0,0.0,0.0,0.0,0.0,0.0,0.0,0.0,0.0,0.0,0.0,0.0,0.0,0.0,0.0,0.0,0.0,0.0,0.0,0.0,0.0,0.0,0.0,0.0,0.0,0.0,0.0,0.0,0.0,0.0,-4.0198,-4.1727,-4.1932,0.0,-3.7402,0.0,0.0,0.0,0.0,0.0,0.0,0.0,0.0,0.0,0.0,0.0,0.0,0.0,0.0,0.0,0.0,0.0,0.0,0.0,0.0,0.0,0.0,0.0,0.0,0.0,0.0,0.0,0.0,0.0,0.0,0.0,0.0,0.0,0.0,0.0,0.0,0.0,0.0,0.0,0.0,0.0,0.0,0.0,0.0,0.0,0.0,0.0,0.0,0.0,0.0,0.0,0.0,0.0,0.0,0.0,0.0,0.0,0.0,0.0,0.0,0.0,0.0,0.0,0.0,0.0,0.0,0.0,0.0,0.0,0.0,0.0,0.0,0.0,0.0,0.0,0.0,0.0,0.0,0.0,0.0,0.0,0.0,0.0,0.0,0.0,0.0,0.0,0.0,0.0,0.0,0.0,0.0,0.0,0.0,0.0,0.0,0.0,0.0,0.0,0.0,0.0,0.0,0.0,0.0,0.0,0.0,0.0,0.0,0.0,0.0,-4.1208,-4.2941,-4.2137,-4.0078,0.0,0.0,0.0,0.0,0.0,0.0,0.0,0.0,0.0,0.0,0.0,0.0,0.0,0.0,0.0,0.0,0.0,0.0,0.0,0.0,0.0,0.0,0.0,0.0,0.0,0.0,0.0,0.0,0.0,0.0,0.0,0.0,0.0,0.0,0.0,0.0,0.0,0.0,0.0,0.0,0.0,0.0,0.0,0.0,0.0,0.0,0.0,0.0,0.0,0.0,0.0,0.0,0.0,0.0,0.0,0.0,0.0,0.0,0.0,0.0,0.0,0.0,0.0,0.0,0.0,0.0,0.0,0.0,0.0,0.0,0.0,0.0,0.0,0.0,0.0,0.0,0.0,0.0,0.0,0.0,0.0,0.0,0.0,0.0,0.0,0.0,0.0,0.0,0.0,0.0,0.0,0.0,0.0,0.0,0.0,0.0,0.0,0.0,0.0,0.0,0.0,0.0,0.0,0.0,0.0,0.0,0.0,0.0,0.0,0.0,-4.1708,-4.2408,-4.4079,-4.2729,-4.0273,-3.6855,0.0,0.0,0.0,0.0,0.0,0.0,0.0,0.0,0.0,0.0,0.0,0.0,0.0,0.0,0.0,0.0,0.0,0.0,0.0,0.0,0.0,0.0,0.0,0.0,0.0,0.0,0.0,0.0,0.0,0.0,0.0,0.0,0.0,0.0,0.0,0.0,0.0,0.0,0.0,0.0,0.0,0.0,0.0,0.0,0.0,0.0,0.0,0.0,0.0,0.0,0.0,0.0,0.0,0.0,0.0,0.0,0.0,0.0,0.0,0.0,0.0,0.0,0.0,0.0,0.0,0.0,0.0,0.0,0.0,0.0,0.0,0.0,0.0,0.0,0.0,0.0,0.0,0.0,0.0,0.0,0.0,0.0,0.0,0.0,0.0,0.0,0.0,0.0,0.0,0.0,0.0,0.0,0.0,0.0,0.0,0.0,0.0,0.0,0.0,0.0,0.0,0.0,0.0,0.0,0.0,0.0,0.0,0.0,-4.5092,-4.3831,-4.4001,-4.586,-4.4427,-4.1973,0.0,0.0,0.0,0.0,0.0,0.0,0.0,0.0,0.0,0.0,0.0,0.0,0.0,0.0,0.0,0.0,0.0,0.0,0.0,0.0,0.0,0.0,0.0,0.0,0.0,0.0,0.0,0.0,0.0,0.0,0.0,0.0,0.0,0.0,0.0,0.0,0.0,0.0,0.0,0.0,0.0,0.0,0.0,0.0,0.0,0.0,0.0,0.0,0.0,0.0,0.0,0.0,0.0,0.0,0.0,0.0,0.0,0.0,0.0,0.0,0.0,0.0,0.0,0.0,0.0,0.0,0.0,0.0,0.0,0.0,0.0,0.0,0.0,0.0,0.0,0.0,0.0,0.0,0.0,0.0,0.0,0.0,0.0,0.0,0.0,0.0,0.0,0.0,0.0,0.0,0.0,0.0,0.0,0.0,0.0,0.0,0.0,0.0,0.0,0.0,0.0,0.0,0.0,0.0,0.0,0.0,0.0,0.0,0.0,-4.2294,-4.2937,-4.4397,-4.6567,-4.3687,-4.1114,0.0,0.0,0.0,0.0,0.0,0.0,0.0,0.0,0.0,0.0,0.0,0.0,0.0,0.0,0.0,0.0,0.0,0.0,0.0,0.0,0.0,0.0,0.0,0.0,0.0,0.0,0.0,0.0,0.0,0.0,0.0,0.0,0.0,0.0,0.0,0.0,0.0,0.0,0.0,0.0,0.0,0.0,0.0,0.0,0.0,0.0,0.0,0.0,0.0,0.0,0.0,0.0,0.0,0.0,0.0,0.0,0.0,0.0,0.0,0.0,0.0,0.0,0.0,0.0,0.0,0.0,0.0,0.0,0.0,0.0,0.0,0.0,0.0,0.0,0.0,0.0,0.0,0.0,0.0,0.0,0.0,0.0,0.0,0.0,0.0,0.0,0.0,0.0,0.0,0.0,0.0,0.0,0.0,0.0,0.0,0.0,0.0,0.0,0.0,0.0,0.0,0.0,0.0,0.0,0.0,0.0,0.0,0.0,0.0,-4.2159,0.0,-4.5524,-4.6565,-4.3552,-4.0871,0.0,0.0,0.0,0.0,0.0,0.0,0.0,0.0,0.0,0.0,0.0,0.0,0.0,0.0,0.0,0.0,0.0,0.0,0.0,0.0,0.0,0.0,0.0,0.0,0.0,0.0,0.0,0.0,0.0,0.0,0.0,0.0,0.0,0.0,0.0,0.0,0.0,0.0,0.0,0.0,0.0,0.0,0.0,0.0,0.0,0.0,0.0,0.0,0.0,0.0,0.0,0.0,0.0,0.0,0.0,0.0,0.0,0.0,0.0,0.0,0.0,0.0,0.0,0.0,0.0,0.0,0.0,0.0,0.0,0.0,0.0,0.0,0.0,0.0,0.0,0.0,0.0,0.0,0.0,0.0,0.0,0.0,0.0,0.0,0.0,0.0,0.0,0.0,0.0,0.0,0.0,0.0,0.0,0.0,0.0,0.0,0.0,0.0,0.0,0.0,0.0,0.0,0.0,0.0,0.0,0.0,0.0,0.0,-4.2189,-4.5391,-4.7175,-4.7335,-4.5886,-4.4261,-4.1469,0.0,0.0,0.0,0.0,0.0,0.0,0.0,0.0,0.0,0.0,0.0,0.0,0.0,0.0,0.0,0.0,0.0,0.0,0.0,0.0,0.0,0.0,0.0,0.0,0.0,0.0,0.0,0.0,0.0,0.0,0.0,0.0,0.0,0.0,0.0,0.0,0.0,0.0,0.0,0.0,0.0,0.0,0.0,0.0,0.0,0.0,0.0,0.0,0.0,0.0,0.0,0.0,0.0,0.0,0.0,0.0,0.0,0.0,0.0,0.0,0.0,0.0,0.0,0.0,0.0,0.0,0.0,0.0,0.0,0.0,0.0,0.0,0.0,0.0,0.0,0.0,0.0,0.0,0.0,0.0,0.0,0.0,0.0,0.0,0.0,0.0,0.0,0.0,0.0,0.0,0.0,0.0,0.0,0.0,0.0,0.0,0.0,0.0,0.0,0.0,0.0,0.0,0.0,0.0,0.0,0.0,0.0,0.0,0.0,-4.3893,-4.5558,-4.6758,-4.724,-4.4231,-4.1926,0.0,0.0,0.0,0.0,0.0,0.0,0.0,0.0,0.0,0.0,0.0,0.0,0.0,0.0,0.0,0.0,0.0,0.0,0.0,0.0,0.0,0.0,0.0,0.0,0.0,0.0,0.0,0.0,0.0,0.0,0.0,0.0,0.0,0.0,0.0,0.0,0.0,0.0,0.0,0.0,0.0,0.0,0.0,0.0,0.0,0.0,0.0,0.0,0.0,0.0,0.0,0.0,0.0,0.0,0.0,0.0,0.0,0.0,0.0,0.0,0.0,0.0,0.0,0.0,0.0,0.0,0.0,0.0,0.0,0.0,0.0,0.0,0.0,0.0,0.0,0.0,0.0,0.0,0.0,0.0,0.0,0.0,0.0,0.0,0.0,0.0,0.0,0.0,0.0,0.0,0.0,0.0,0.0,0.0,0.0,0.0,0.0,0.0,0.0,0.0,0.0,0.0,0.0,0.0,0.0,0.0,0.0,0.0,0.0,-4.4643,-4.6471,-4.7682,-4.8077,-4.4776,-4.2558,-4.1597,0.0,0.0,0.0,0.0,0.0,0.0,0.0,0.0,0.0,0.0,0.0,0.0,0.0,0.0,0.0,0.0,0.0,0.0,0.0,0.0,0.0,0.0,0.0,0.0,0.0,0.0,0.0,0.0,0.0,0.0,0.0,0.0,0.0,0.0,0.0,0.0,0.0,0.0,0.0,0.0,0.0,0.0,0.0,0.0,0.0,0.0,0.0,0.0,0.0,0.0,0.0,0.0,0.0,0.0,0.0,0.0,0.0,0.0,0.0,0.0,0.0,0.0,0.0,0.0,0.0,0.0,0.0,0.0,0.0,0.0,0.0,0.0,0.0,0.0,0.0,0.0,0.0,0.0,0.0,0.0,0.0,0.0,0.0,0.0,0.0,0.0,0.0,0.0,0.0,0.0,0.0,0.0,0.0,0.0,0.0,0.0,0.0,0.0,0.0,0.0,0.0,0.0,0.0,0.0,0.0,0.0,0.0,0.0,-4.6971,-4.9413,-4.9885,-4.8298,-4.5905,-4.351,0.0,0.0,0.0,0.0,0.0,0.0,0.0,0.0,0.0,0.0,0.0,0.0,0.0,0.0,0.0,0.0,0.0,0.0,0.0,0.0,0.0,0.0,0.0,0.0,0.0,0.0,0.0,0.0,0.0,0.0,0.0,0.0,0.0,0.0,0.0,0.0,0.0,0.0,0.0,0.0,0.0,0.0,0.0,0.0,0.0,0.0,0.0,0.0,0.0,0.0,0.0,0.0,0.0,0.0,0.0,0.0,0.0,0.0,0.0,0.0,0.0,0.0,0.0,0.0,0.0,0.0,0.0,0.0,0.0,0.0,0.0,0.0,0.0,0.0,0.0,0.0,0.0,0.0,0.0,0.0,0.0,0.0,0.0,0.0,0.0,0.0,0.0,0.0,0.0,0.0,0.0,0.0,0.0,0.0,0.0,0.0,0.0,0.0,0.0,0.0,0.0,0.0,0.0,0.0,0.0,0.0,0.0,0.0,0.0,-4.7817,-4.9702,-5.0471,-4.9981,-4.7631,-4.5493,0.0,0.0,0.0,0.0,0.0,0.0,0.0,0.0,0.0,0.0,0.0,0.0,0.0,0.0,0.0,0.0,0.0,0.0,0.0,0.0,0.0,0.0,0.0,0.0,0.0,0.0,0.0,0.0,0.0,0.0,0.0,0.0,0.0,0.0,0.0,0.0,0.0,0.0,0.0,0.0,0.0,0.0,0.0,0.0,0.0,0.0,0.0,0.0,0.0,0.0,0.0,0.0,0.0,0.0,0.0,0.0,0.0,0.0,0.0,0.0,0.0,0.0,0.0,0.0,0.0,0.0,0.0,0.0,0.0,0.0,0.0,0.0,0.0,0.0,0.0,0.0,0.0,0.0,0.0,0.0,0.0,0.0,0.0,0.0,0.0,0.0,0.0,0.0,0.0,0.0,0.0,0.0,0.0,0.0,0.0,0.0,0.0,0.0,0.0,0.0,0.0,0.0,0.0,0.0,0.0,0.0,0.0,0.0,-4.7644,-4.9163,-5.0491,-5.1202,-5.1202,-4.8771,-4.6532,0.0,0.0,0.0,0.0,0.0,0.0,0.0,0.0,0.0,0.0,0.0,0.0,0.0,0.0,0.0,0.0,0.0,0.0,0.0,0.0,0.0,0.0,0.0,0.0,0.0,0.0,0.0,0.0,0.0,0.0,0.0,0.0,0.0,0.0,0.0,0.0,0.0,0.0,0.0,0.0,0.0,0.0,0.0,0.0,0.0,0.0,0.0,0.0,0.0,0.0,0.0,0.0,0.0,0.0,0.0,0.0,0.0,0.0,0.0,0.0,0.0,0.0,0.0,0.0,0.0,0.0,0.0,0.0,0.0,0.0,0.0,0.0,0.0,0.0,0.0,0.0,0.0,0.0,0.0,0.0,0.0,0.0,0.0,0.0,0.0,0.0,0.0,0.0,0.0,0.0,0.0,0.0,0.0,0.0,0.0,0.0,0.0,0.0,0.0,0.0,0.0,0.0,0.0,0.0,0.0,0.0,0.0,0.0,-4.8259,-5.05,-5.1356,-5.1769,-5.1692,-4.949,-4.7107,0.0,0.0,0.0,0.0,0.0,0.0,0.0,0.0,0.0,0.0,0.0,0.0,0.0,0.0,0.0,0.0,0.0,0.0,0.0,0.0,0.0,0.0,0.0,0.0,0.0,0.0,0.0,0.0,0.0,0.0,0.0,0.0,0.0,0.0,0.0,0.0,0.0,0.0,0.0,0.0,0.0,0.0,0.0,0.0,0.0,0.0,0.0,0.0,0.0,0.0,0.0,0.0,0.0,0.0,0.0,0.0,0.0,0.0,0.0,0.0,0.0,0.0,0.0,0.0,0.0,0.0,0.0,0.0,0.0,0.0,0.0,0.0,0.0,0.0,0.0,0.0,0.0,0.0,0.0,0.0,0.0,0.0,0.0,0.0,0.0,0.0,0.0,0.0,0.0,0.0,0.0,0.0,0.0,0.0,0.0,0.0,0.0,0.0,0.0,0.0,0.0,0.0,0.0,0.0,0.0,0.0,0.0,0.0,-4.9125,-4.9663,-5.0529,-5.0952,-5.0952,-4.976,-4.7983,0.0,0.0,0.0,0.0,0.0,0.0,0.0,0.0,0.0,0.0,0.0,0.0,0.0,0.0,0.0,0.0,0.0,0.0,0.0,0.0,0.0,0.0,0.0,0.0,0.0,0.0,0.0,0.0,0.0,0.0,0.0,0.0,0.0,0.0,0.0,0.0,0.0,0.0,0.0,0.0,0.0,0.0,0.0,0.0,0.0,0.0,0.0,0.0,-4.5603,0.0,0.0,0.0,0.0,0.0,0.0,0.0,0.0,0.0,0.0,0.0,0.0,0.0,0.0,0.0,0.0,0.0,0.0,0.0,0.0,0.0,0.0,0.0,0.0,0.0,0.0,0.0,0.0,0.0,0.0,0.0,0.0,0.0,0.0,0.0,0.0,0.0,0.0,0.0,0.0,0.0,0.0,0.0,0.0,0.0,0.0,0.0,0.0,0.0,0.0,0.0,0.0,0.0,0.0,0.0,0.0,0.0,0.0,0.0,-4.9586,-5.001,-5.0462,-5.0683,-5.0673,-5.025,-4.8661,0.0,0.0,0.0,0.0,0.0,0.0,0.0,0.0,0.0,0.0,0.0,0.0,0.0,0.0,0.0,0.0,0.0,0.0,0.0,0.0,0.0,0.0,0.0,0.0,0.0,0.0,0.0,0.0,0.0,0.0,0.0,0.0,0.0,0.0,0.0,0.0,0.0,0.0,0.0,0.0,0.0,0.0,0.0,0.0,0.0,0.0,0.0,0.0,0.0,0.0,0.0,0.0,0.0,0.0,0.0,0.0,0.0,0.0,0.0,0.0,0.0,0.0,0.0,0.0,0.0,0.0,0.0,0.0,0.0,0.0,0.0,0.0,0.0,0.0,0.0,0.0,0.0,0.0,0.0,0.0,0.0,0.0,0.0,0.0,0.0,0.0,0.0,0.0,0.0,0.0,0.0,0.0,0.0,0.0,0.0,0.0,0.0,0.0,0.0,0.0,0.0,0.0,0.0,0.0,0.0,0.0,0.0,-4.8105,-4.9683,-5.0654,-5.0683,-5.0683,-5.0683,-5.0683,-4.9115,-4.5768,0.0,0.0,0.0,0.0,0.0,0.0,0.0,0.0,0.0,0.0,0.0,0.0,0.0,0.0,0.0,0.0,0.0,0.0,0.0,0.0,0.0,0.0,0.0,0.0,0.0,0.0,0.0,0.0,0.0,0.0,0.0,0.0,0.0,0.0,0.0,0.0,0.0,0.0,-4.353,-4.5563,0.0,0.0,0.0,0.0,0.0,0.0,0.0,0.0,-4.437,0.0,0.0,0.0,0.0,0.0,0.0,0.0,0.0,0.0,0.0,0.0,0.0,0.0,0.0,0.0,0.0,0.0,0.0,0.0,0.0,0.0,0.0,0.0,0.0,0.0,0.0,0.0,0.0,0.0,0.0,0.0,0.0,0.0,0.0,0.0,0.0,0.0,0.0,0.0,0.0,0.0,0.0,0.0,0.0,0.0,0.0,0.0,0.0,0.0,0.0,0.0,0.0,0.0,0.0,0.0,0.0,-4.7644,-4.8105,-4.9086,-5.0654,-5.0683,-5.0683,-5.0683,-5.0683,-4.9096,-4.5845,0.0,0.0,0.0,0.0,0.0,0.0,0.0,0.0,0.0,0.0,0.0,0.0,0.0,0.0,0.0,0.0,0.0,0.0,0.0,0.0,0.0,0.0,0.0,0.0,0.0,0.0,0.0,0.0,0.0,0.0,0.0,0.0,0.0,0.0,0.0,0.0,0.0,0.0,0.0,-4.6713,-4.7068,0.0,0.0,0.0,0.0,0.0,0.0,0.0,0.0,-4.3672,0.0,0.0,0.0,0.0,0.0,0.0,0.0,0.0,0.0,0.0,0.0,0.0,0.0,0.0,0.0,0.0,0.0,0.0,0.0,0.0,0.0,0.0,0.0,0.0,0.0,0.0,0.0,0.0,0.0,0.0,0.0,0.0,0.0,0.0,0.0,0.0,0.0,0.0,0.0,0.0,0.0,0.0,0.0,0.0,0.0,0.0,0.0,0.0,0.0,0.0,0.0,0.0,0.0,0.0,0.0,-4.676,-4.8335,-4.9639,-5.0664,-5.0683,-5.0683,-5.0673,-4.9837,-4.8163,0.0,0.0,0.0,0.0,0.0,0.0,0.0,0.0,0.0,0.0,0.0,0.0,0.0,0.0,0.0,0.0,0.0,0.0,0.0,0.0,0.0,0.0,0.0,0.0,0.0,0.0,0.0,0.0,0.0,0.0,0.0,0.0,0.0,0.0,0.0,0.0,0.0,0.0,0.0,0.0,-4.6859,-4.7141,-4.7547,0.0,0.0,0.0,0.0,0.0,0.0,-4.3378,-4.3303,0.0,0.0,0.0,0.0,0.0,0.0,0.0,0.0,0.0,0.0,0.0,0.0,0.0,0.0,0.0,0.0,0.0,0.0,0.0,0.0,0.0,0.0,0.0,0.0,0.0,0.0,0.0,0.0,0.0,0.0,0.0,0.0,0.0,0.0,0.0,0.0,0.0,0.0,0.0,0.0,0.0,0.0,0.0,0.0,0.0,0.0,0.0,0.0,0.0,0.0,0.0,0.0,0.0,0.0,0.0,-4.5524,-4.8204,-4.9905,-5.0545,-5.0663,-5.0683,-5.0664,-4.9183,-4.749,0.0,0.0,0.0,0.0,0.0,0.0,0.0,0.0,0.0,0.0,0.0,0.0,0.0,0.0,0.0,0.0,0.0,0.0,0.0,0.0,0.0,0.0,0.0,0.0,0.0,0.0,0.0,0.0,0.0,0.0,0.0,0.0,0.0,0.0,0.0,0.0,0.0,0.0,0.0,0.0,0.0,-4.7263,-4.7201,-4.5865,0.0,0.0,0.0,0.0,-4.3201,-4.3248,0.0,0.0,0.0,0.0,0.0,0.0,0.0,0.0,0.0,0.0,0.0,0.0,0.0,0.0,0.0,0.0,0.0,0.0,0.0,0.0,0.0,0.0,0.0,0.0,0.0,0.0,0.0,0.0,0.0,0.0,0.0,0.0,0.0,0.0,0.0,0.0,0.0,0.0,0.0,0.0,0.0,0.0,0.0,0.0,0.0,0.0,0.0,0.0,0.0,0.0,0.0,0.0,0.0,0.0,0.0,0.0,-4.5047,-4.6916,-4.8643,-5.0107,-5.0504,-5.0683,-5.0693,-4.976,-4.8105,0.0,0.0,0.0,0.0,0.0,0.0,0.0,0.0,0.0,0.0,0.0,0.0,0.0,0.0,0.0,0.0,0.0,0.0,0.0,0.0,0.0,0.0,0.0,0.0,0.0,0.0,0.0,0.0,0.0,0.0,0.0,0.0,0.0,0.0,0.0,0.0,0.0,0.0,0.0,0.0,0.0,-4.7497,-4.5741,-4.4913,-4.4465,0.0,0.0,-4.2839,-4.3602,-4.3717,0.0,0.0,0.0,0.0,0.0,0.0,0.0,0.0,0.0,0.0,0.0,0.0,0.0,0.0,0.0,0.0,0.0,0.0,0.0,0.0,0.0,0.0,0.0,0.0,0.0,0.0,0.0,0.0,0.0,0.0,0.0,0.0,0.0,0.0,0.0,0.0,0.0,0.0,0.0,0.0,0.0,0.0,0.0,0.0,0.0,0.0,0.0,0.0,0.0,0.0,0.0,0.0,0.0,0.0,0.0,-4.3692,-4.4814,-4.7127,-4.882,-4.9709,-4.9917,-5.0116,-5.0366,-4.8605,-4.6991,0.0,0.0,0.0,0.0,0.0,0.0,0.0,0.0,0.0,0.0,0.0,0.0,0.0,0.0,0.0,0.0,0.0,0.0,0.0,0.0,0.0,0.0,0.0,0.0,0.0,0.0,0.0,0.0,0.0,0.0,0.0,0.0,0.0,0.0,0.0,0.0,0.0,0.0,0.0,0.0,0.0,0.0,-4.6244,-4.5465,0.0,0.0,0.0,-4.3153,-4.3719,0.0,0.0,0.0,0.0,0.0,0.0,0.0,0.0,0.0,0.0,0.0,0.0,0.0,0.0,0.0,0.0,0.0,0.0,0.0,0.0,0.0,0.0,0.0,0.0,0.0,0.0,0.0,0.0,0.0,0.0,0.0,0.0,0.0,0.0,0.0,0.0,0.0,0.0,0.0,0.0,0.0,0.0,0.0,0.0,0.0,0.0,0.0,0.0,0.0,0.0,0.0,0.0,0.0,0.0,0.0,0.0,0.0,-4.4189,-4.7081,-4.8744,-4.904,-4.9351,-4.9556,-4.9588,-4.7578,0.0,0.0,0.0,0.0,0.0,0.0,0.0,0.0,0.0,0.0,0.0,0.0,0.0,0.0,0.0,0.0,0.0,0.0,0.0,0.0,0.0,0.0,0.0,0.0,0.0,0.0,0.0,-3.6325,0.0,0.0,0.0,0.0,0.0,0.0,0.0,0.0,0.0,0.0,0.0,0.0,0.0,0.0,-4.5076,-4.6085,-4.546,-4.495,0.0,0.0,-4.3327,-4.3784,-4.3839,-4.3623,0.0,0.0,0.0,0.0,0.0,0.0,0.0,0.0,0.0,0.0,0.0,0.0,0.0,0.0,0.0,0.0,0.0,0.0,0.0,0.0,0.0,0.0,0.0,0.0,0.0,0.0,0.0,0.0,0.0,0.0,0.0,0.0,0.0,0.0,0.0,0.0,0.0,0.0,0.0,0.0,0.0,0.0,0.0,0.0,0.0,0.0,0.0,0.0,0.0,0.0,0.0,0.0,0.0,0.0,-4.1849,-4.2981,-4.614,-4.7777,-4.7844,-4.8935,-4.9159,-4.8423,-4.7483,-4.5988,0.0,0.0,0.0,0.0,0.0,0.0,0.0,0.0,0.0,0.0,0.0,0.0,0.0,0.0,0.0,0.0,0.0,0.0,0.0,0.0,0.0,0.0,0.0,0.0,0.0,0.0,0.0,0.0,0.0,0.0,0.0,0.0,0.0,0.0,0.0,0.0,0.0,0.0,0.0,0.0,0.0,-4.447,-4.3828,-4.396,-4.4241,0.0,0.0,-4.3103,-4.3871,-4.3979,-4.3647,-4.2696,0.0,0.0,0.0,0.0,0.0,0.0,0.0,0.0,0.0,0.0,0.0,0.0,0.0,0.0,0.0,0.0,0.0,0.0,0.0,0.0,0.0,0.0,0.0,0.0,0.0,0.0,0.0,0.0,0.0,0.0,0.0,0.0,0.0,0.0,0.0,0.0,0.0,0.0,0.0,0.0,0.0,0.0,0.0,0.0,0.0,0.0,0.0,0.0,0.0,0.0,0.0,0.0,0.0,-4.1761,-4.2516,-4.519,-4.6593,-4.6611,-4.7043,-4.7239,-4.7185,-4.6349,-4.512,0.0,0.0,0.0,0.0,0.0,0.0,0.0,0.0,0.0,0.0,0.0,0.0,0.0,0.0,0.0,0.0,0.0,0.0,0.0,0.0,0.0,0.0,0.0,0.0,0.0,0.0,0.0,0.0,-3.8704,-3.8877,-3.8586,0.0,0.0,0.0,0.0,0.0,0.0,0.0,0.0,0.0,0.0,-4.3479,-4.4158,-4.437,0.0,0.0,-4.3873,-4.3407,-4.3933,-4.3569,-4.3081,-4.2588,-4.2092,0.0,0.0,0.0,0.0,0.0,0.0,0.0,0.0,0.0,0.0,0.0,0.0,0.0,0.0,0.0,0.0,0.0,0.0,0.0,0.0,0.0,0.0,0.0,0.0,0.0,0.0,0.0,0.0,0.0,0.0,0.0,0.0,0.0,0.0,0.0,0.0,0.0,0.0,0.0,0.0,0.0,0.0,0.0,0.0,0.0,0.0,0.0,0.0,0.0,0.0,0.0,0.0,-4.1379,-4.1956,-4.4323,-4.5535,-4.5553,-4.5773,-4.5915,-4.5943,-4.5352,-4.4333,0.0,0.0,0.0,0.0,0.0,0.0,0.0,0.0,0.0,0.0,0.0,0.0,0.0,0.0,0.0,0.0,0.0,0.0,0.0,0.0,0.0,0.0,0.0,0.0,0.0,0.0,0.0,0.0,-3.8945,-3.8906,-3.8723,0.0,0.0,0.0,0.0,0.0,0.0,0.0,0.0,0.0,0.0,-4.2782,-4.414,-4.436,-4.425,-4.403,-4.3718,-4.3415,-4.3172,-4.3067,-4.2737,-4.1966,0.0,0.0,0.0,0.0,0.0,0.0,0.0,0.0,0.0,0.0,0.0,0.0,0.0,0.0,0.0,0.0,0.0,0.0,0.0,0.0,0.0,0.0,0.0,0.0,0.0,0.0,0.0,-3.8707,0.0,0.0,-3.8707,0.0,0.0,0.0,0.0,0.0,0.0,0.0,0.0,0.0,0.0,0.0,0.0,0.0,0.0,0.0,0.0,0.0,0.0,0.0,0.0,0.0,0.0,-4.0338,-4.1132,-4.3516,-4.4728,-4.4728,-4.548,-4.548,-4.4763,-4.4726,-4.3738,-4.1692,0.0,0.0,0.0,0.0,0.0,0.0,0.0,0.0,0.0,0.0,0.0,0.0,0.0,0.0,0.0,0.0,0.0,0.0,0.0,0.0,0.0,0.0,0.0,0.0,0.0,0.0,-3.9223,-3.8869,-3.8723,0.0,0.0,0.0,0.0,0.0,0.0,0.0,0.0,0.0,0.0,-4.1791,-4.2598,-4.3424,-4.3551,-4.3296,-4.2525,-4.302,-4.2982,-4.1495,-4.2485,-4.2767,0.0,0.0,0.0,0.0,0.0,0.0,0.0,0.0,0.0,0.0,0.0,0.0,0.0,0.0,0.0,0.0,0.0,0.0,0.0,0.0,0.0,0.0,0.0,0.0,0.0,0.0,0.0,-4.0744,-3.9533,0.0,0.0,0.0,0.0,0.0,0.0,0.0,0.0,0.0,0.0,0.0,-4.1168,-4.2194,0.0,0.0,0.0,0.0,0.0,0.0,0.0,0.0,0.0,0.0,0.0,0.0,-4.0286,-4.1132,-4.2947,-4.3901,-4.3901,-4.4158,-4.4176,-4.3901,-4.3901,-4.291,-4.0802,0.0,0.0,0.0,0.0,0.0,0.0,0.0,0.0,0.0,0.0,0.0,0.0,0.0,0.0,0.0,0.0,0.0,0.0,0.0,0.0,0.0,0.0,0.0,0.0,0.0,-4.016,0.0,0.0,0.0,0.0,0.0,0.0,0.0,0.0,0.0,0.0,0.0,-4.0194,-4.0985,-4.1791,-4.2598,-4.3386,-4.3479,-4.3404,0.0,0.0,0.0,0.0,0.0,0.0,0.0,0.0,0.0,0.0,0.0,0.0,0.0,0.0,-3.8343,-3.7615,-3.7349,-3.7211,-3.7103,0.0,0.0,0.0,0.0,0.0,0.0,0.0,0.0,0.0,0.0,0.0,0.0,0.0,0.0,-4.2121,0.0,-4.0855,0.0,0.0,0.0,0.0,0.0,0.0,0.0,0.0,-4.414,-4.3883,-4.2398,-4.3424,-4.3222,0.0,-4.1937,-4.1534,0.0,0.0,0.0,0.0,0.0,0.0,0.0,0.0,-4.0579,-4.1132,-4.269,-4.3479,-4.3479,-4.3479,-4.3479,-4.3479,-4.3239,-4.2439,-4.1036,-3.9682,-3.8271,0.0,0.0,0.0,0.0,0.0,0.0,0.0,0.0,0.0,0.0,0.0,0.0,0.0,0.0,0.0,0.0,0.0,0.0,0.0,0.0,0.0,0.0,0.0,-3.9457,0.0,0.0,0.0,0.0,0.0,0.0,0.0,0.0,0.0,-3.915,-4.0065,-4.0928,-4.146,-4.2213,-4.2892,-4.3424,0.0,0.0,0.0,0.0,0.0,0.0,0.0,-4.1395,-4.1051,-4.0111,-3.9361,-3.9292,-3.9109,-3.8943,-3.8975,0.0,0.0,-3.7789,-3.7741,-3.7771,-3.7667,-3.8147,-3.8302,-3.743,-3.7243,-3.6919,0.0,0.0,0.0,0.0,0.0,0.0,0.0,0.0,-4.392,-4.3551,0.0,-4.269,0.0,0.0,0.0,0.0,0.0,-4.5094,0.0,0.0,-4.6654,-4.6232,-4.4728,-4.4709,-4.4305,-4.3533,-4.3442,-4.3092,-4.2268,-4.0744,0.0,0.0,0.0,0.0,0.0,0.0,-4.1113,-4.1187,-4.2708,-4.3479,-4.3479,-4.3479,-4.3479,-4.3406,-4.2708,-4.2268,-4.2121,-3.9955,-3.8822,-3.899,-3.6838,0.0,0.0,0.0,0.0,0.0,0.0,0.0,0.0,0.0,0.0,0.0,0.0,0.0,0.0,0.0,0.0,0.0,0.0,0.0,0.0,-3.8859,0.0,0.0,0.0,0.0,0.0,0.0,0.0,0.0,0.0,0.0,-3.9772,-4.1192,-4.2234,-4.2197,0.0,0.0,0.0,0.0,-4.3114,-4.2327,-4.2858,-4.2821,-4.1335,-4.1684,-4.1645,-4.0155,0.0,0.0,-3.8836,-3.8707,-3.8723,-3.8689,-3.8689,-3.8707,-3.8686,-3.8826,-3.8906,-3.8718,-3.8793,-3.8665,-3.7775,-3.7327,-3.682,-4.5784,0.0,0.0,0.0,0.0,-4.5571,-4.5553,-4.5553,-4.5314,-4.4892,-4.4342,-4.4121,0.0,0.0,0.0,0.0,0.0,0.0,-4.5902,-4.5938,-4.6727,-4.6232,-4.4727,-4.5278,-4.4837,-4.3515,-4.3479,-4.3386,-4.3112,-4.2103,-4.1038,-3.9916,0.0,0.0,0.0,0.0,-4.137,-4.1992,-4.2965,-4.3479,-4.3479,-4.3479,-4.3204,-4.2671,-4.2415,-4.1772,-4.0616,-3.9918,-3.9047,-3.8007,-3.7492,0.0,0.0,0.0,0.0,0.0,0.0,0.0,0.0,0.0,0.0,0.0,0.0,0.0,0.0,0.0,0.0,0.0,0.0,0.0,-3.8789,-3.8732,-3.8469,0.0,0.0,0.0,0.0,0.0,0.0,0.0,0.0,0.0,-3.9638,-4.0457,-4.1022,0.0,0.0,-4.2031,-4.1307,-4.1375,-4.1217,-4.0465,-4.0555,0.0,-4.0564,-4.0254,-3.9994,-3.9907,-3.9423,-3.8964,-3.8744,-3.8707,-3.8707,-3.8707,-3.8707,-3.8707,-3.8707,-3.8762,-3.8807,-3.8701,-3.8317,-3.79,-3.754,-3.6597,-3.5591,-4.7171,-4.6915,-4.5667,-4.5343,-4.5596,-4.5633,-4.5796,-4.6085,-4.5759,-4.5524,-4.5359,-4.5034,-4.4164,-4.2988,-4.3133,0.0,0.0,0.0,-4.6301,-4.6874,-4.7333,-4.6892,-4.57,-4.5828,-4.5223,-4.3993,-4.3644,-4.3479,-4.3479,-4.3002,-4.2121,-4.0855,0.0,0.0,-3.9934,-4.0708,-4.1185,-4.1387,-4.2139,-4.2543,-4.2543,-4.2543,-4.2323,-4.1846,-4.1827,-4.1368,-4.0414,-4.0065,-3.9457,-3.8484,-3.7977,-3.723,0.0,0.0,0.0,0.0,0.0,0.0,0.0,0.0,0.0,0.0,0.0,-3.6377,-3.6036,0.0,0.0,0.0,-3.7854,-3.8352,-3.8667,-3.8707,0.0,0.0,0.0,0.0,0.0,0.0,0.0,-3.8613,-3.9169,-3.9332,-3.8802,-3.9442,-4.0061,-4.0381,-4.0953,-4.1017,-4.014,0.0,-4.0104,-3.9662,-3.9609,-3.969,-3.9961,-3.9353,-3.8887,-3.9081,-3.8711,-3.8481,-3.8658,-3.8707,-3.8707,-3.8707,-3.8707,-3.8707,-3.8707,-3.8707,-3.8707,-3.8689,-3.8062,-3.7437,-3.7107,-3.5922,-3.4931,-4.8594,-4.8295,-4.5428,-4.4688,-4.5375,-4.5393,-4.5788,-4.6336,-4.5628,-4.5693,-4.6336,-4.5623,-4.4857,-4.4074,-4.3323,0.0,-4.6128,-4.62,-4.6887,-4.8152,-4.8134,-4.7733,-4.6909,-4.6158,-4.5407,-4.458,-4.3846,-4.3479,-4.3479,-4.3479,-4.3147,-4.2396,-4.1607,-4.0836,-4.0157,-4.0747,-4.0747,-4.012,-4.0781,-4.1113,-4.1113,-4.1113,-4.1077,-4.1003,-4.1003,-4.0967,-4.0875,-4.0194,-3.979,-3.9753,-3.8392,-3.7566,-3.7456,0.0,0.0,0.0,0.0,0.0,0.0,0.0,0.0,0.0,0.0,0.0,0.0,0.0,0.0,0.0,-3.7753,0.0,-3.8707,-3.8707,0.0,0.0,0.0,-3.8414,-3.7676,-3.778,-3.7876,-3.7842,0.0,0.0,-3.7521,-3.831,-3.9275,-4.0271,-4.0435,-4.0212,-3.9441,-3.9312,-3.9365,-3.9164,-3.9239,-3.9259,-3.914,-3.8577,-3.8037,-3.779,-3.7698,-3.7742,-3.8123,-3.8272,-3.8342,-3.8447,-3.8496,-3.8475,-3.8563,-3.8487,-3.8505,-3.8432,-3.7863,-3.7144,-3.634,-3.5463,-3.4637,-4.7769,-4.7187,-4.6441,-4.6481,-4.702,-4.702,-4.6796,-4.6407,-4.6212,-4.6248,-4.6389,-4.6195,-4.5658,-4.4892,-4.4698,-4.4931,-4.548,-4.6067,-4.6532,-4.6829,-4.6864,-4.6392,-4.5508,-4.5292,-4.4707,-4.381,-4.3589,-4.3479,-4.3479,-4.3479,-4.3423,-4.3185,-4.2415,-4.1919,-4.1735,-4.1297,-4.1297,-4.1735,-4.1313,-4.1113,-4.1113,-4.1113,-4.0818,-4.0212,-4.0175,-3.9882,-3.9294,-3.9093,-3.8982,-3.8982,-3.8615,-3.8138,-3.7511,-3.6556,0.0,0.0,0.0,0.0,0.0,0.0,0.0,0.0,0.0,-3.4105,-3.3902,0.0,-3.5371,0.0,-3.7771,-3.8707,-3.8707,-3.8707,0.0,0.0,-3.8579,-3.8615,-3.845,-3.8107,-3.7755,-3.7396,-3.7589,-3.7555,-3.703,-3.7661,-3.8034,-3.7803,-3.8225,-3.8224,-3.7339,-3.734,-3.7232,-3.674,-3.6658,-3.6715,-3.7119,-3.6839,-3.6556,-3.6452,-3.6007,-3.5649,-3.5788,-3.5787,-3.612,-3.6979,-3.6735,-3.6771,-3.7583,-3.7312,-3.6909,-3.6872,-3.6707,-3.6321,-3.5463,-3.4674,-3.4032,-4.8156,-4.7767,-4.7767,-4.7762,-4.7713,-4.7376,-4.6803,-4.6092,-4.6092,-4.5901,-4.5597,-4.5597,-4.5371,-4.4946,-4.4929,-4.5087,-4.5376,-4.5821,-4.6143,-4.6389,-4.6389,-4.5955,-4.5111,-4.4771,-4.4291,-4.367,-4.3306,-4.3268,-4.3497,-4.3479,-4.3479,-4.3479,-4.269,-4.2304,-4.2249,-4.1148,-4.0634,-4.0689,-4.0251,-4.0196,-4.0543,-4.023,-3.9992,-3.9882,-3.9551,-3.9148,-3.8726,-3.8707,-3.8707,-3.8707,-3.8707,-3.8487,-3.8046,-3.7272,-3.6615,0.0,0.0,0.0,0.0,0.0,0.0,0.0,0.0,0.0,0.0,0.0,-3.5532,-3.674,-3.7955,-3.8707,-3.8707,-3.8707,-3.8707,-3.8707,-3.8707,-3.8611,-3.8382,-3.7894,-3.7396,-3.6902,-3.7032,-3.6932,-3.6378,-3.6941,-3.7127,-3.6366,-3.662,-3.6684,-3.6202,-3.6157,-3.6113,-3.5667,-3.5616,-3.5672,-3.5989,-3.5635,-3.5418,-3.5579,-3.5094,-3.4639,-3.4871,-3.4906,-3.5135,-3.5769,-3.557,-3.5575,-3.6446,-3.6322,-3.5933,-3.5765,-3.5734,-3.555,-3.5096,-3.4344,-3.3807,-4.9018,-4.9018,-4.9018,-4.8646,-4.7973,-4.7344,-4.6549,-4.5703,-4.5703,-4.528,-4.4598,-4.4598,-4.4598,-4.4598,-4.4598,-4.4879,-4.5355,-4.5381,-4.5656,-4.6185,-4.6167,-4.5781,-4.5016,-4.4317,-4.3867,-4.3606,-4.292,-4.2865,-4.3392,-4.3374,-4.3445,-4.3461,-4.258,-4.2139,-4.2084,-4.0543,-3.9405,-3.8707,-3.8707,-3.9056,-3.9717,-3.9056,-3.9038,-3.9662,-3.9074,-3.8707,-3.8707,-3.8707,-3.8707,-3.8707,-3.8707,-3.8707,-3.8689,-3.7936,-3.7437,0.0,-3.6578,0.0,0.0,0.0,0.0,0.0,0.0,0.0,0.0,-3.5628,-3.5958,-3.7511,-3.8285,-3.8707,-3.8707,-3.8643,-3.8611,-3.8593,-3.853,-3.8318,-3.786,-3.7396,-3.6921,-3.6457,-3.6539,-3.6349,-3.5774,-3.6231,-3.6366,-3.5785,-3.5701,-3.574,-3.5639,-3.5656,-3.565,-3.56,-3.5498,-3.5385,-3.5345,-3.4752,-3.4333,-3.4714,-3.4192,-3.3966,-3.4216,-3.4305,-3.4447,-3.4606,-3.45,-3.4638,-3.5253,-3.5263,-3.5064,-3.4779,-3.4741,-3.4769,-3.472,-3.427,-3.3844,-4.9018,-4.9018,-4.9018,-4.8917,-4.8798,-4.8646,-4.7479,-4.5703,-4.5703,-4.528,-4.4615,-4.4598,-4.4598,-4.4598,-4.4598,-4.4654,-4.4776,-4.4759,-4.4841,-4.4961,-4.4934,-4.4483,-4.3614,-4.344,-4.2952,-4.2225,-4.2029,-4.2264,-4.2845,-4.2845,-4.3069,-4.3442,-4.2047,-4.1315,-4.1224,0.0,0.0,0.0,-3.8707,-3.8781,-3.8909,-3.8781,-3.8781,-3.8927,-3.8781,0.0,-3.8707,-3.8707,-3.8707,-3.8707,-3.8707,0.0,0.0,0.0,0.0,0.0,0.0,0.0,0.0,0.0,0.0,0.0,-3.5353,-3.4912,-3.5243,-3.6321,-3.7422,-3.8358,-3.8615,-3.8707,-3.8692,-3.83,-3.8065,-3.8048,-3.772,-3.7433,-3.7323,-3.6882,-3.6519,-3.6412,-3.6078,-3.5785,-3.565,-3.5735,-3.5791,-3.5633,-3.5616,-3.5616,-3.5616,-3.5616,-3.5616,-3.5566,-3.5143,-3.4742,-3.4709,-3.3643,-3.2893,-3.2757,-3.225,-3.1901,-3.2019,-3.2004,-3.2364,-3.3168,-3.2857,-3.2809,-3.3824,-3.3536,-3.3293,-3.3482,-3.3571,-3.364,-3.3941,-3.3917,-3.3807,-4.9018,0.0,-4.9018,-4.9018,0.0,-4.9018,-4.8173,-4.6769,-4.6397,-4.5635,-4.4598,-4.4598,-4.4598,-4.4598,-4.4598,-4.4598,-4.4598,-4.4598,-4.4598,-4.4598,-4.4598,-4.3949,-4.2775,-4.2749,-4.2258,-4.137,-4.1358,-4.1664,-4.2223,-4.2262,-4.2343,-4.245,-4.1249,-4.0623,-4.0471,-3.9313,-3.8707,-3.8707,-3.8707,-3.8891,-3.9258,-3.8909,-3.8891,-3.9258,-3.8909,0.0,0.0,0.0,0.0,0.0,0.0,0.0,0.0,0.0,0.0,-3.7514,-3.6707,-3.6046,-3.5656,-3.5257,-3.5404,-3.6211,-3.6248,-3.6248,-3.6229,-3.7386,-3.8248,-3.8652,-3.8707,-3.8578,-3.8316,-3.8047,-3.7893,-3.7876,-3.7488,-3.7209,-3.7152,-3.6724,-3.6291,-3.6049,-3.5783,-3.5616,-3.5616,-3.5616,-3.5616,-3.5616,-3.5616,-3.5616,-3.5616,-3.5616,-3.5616,-3.5583,-3.4996,-3.4489,-3.4353,-3.3275,-3.2276,-3.2209,-3.1684,-3.1241,-3.119,-3.119,-3.1426,-3.2004,-3.1802,-3.1813,-3.2493,-3.2406,-3.2281,-3.2745,-3.3045,-3.3243,-3.348,-3.3666,-3.3807,-4.9018,-4.9018,-4.9018,-4.9018,-4.9018,-4.9018,-4.8511,-4.7665,0.0,0.0,0.0,-4.4598,-4.4598,-4.4598,-4.4598,-4.4598,-4.4598,-4.4598,-4.4598,-4.4598,-4.4598,-4.3775,-4.232,-4.2303,-4.1759,-4.0784,-4.0774,-4.1082,-4.1621,-4.1643,-4.1529,-4.1223,-4.0469,-3.986,-3.9402,-3.8841,-3.853,-3.8451,-3.8611,-3.9038,-3.9643,-3.9038,-3.9019,-3.9677,-3.9056,-3.8707,-3.8707,-3.8707,-3.8707,-3.8707,-3.8707,-3.8707,-3.8707,-3.8707,-3.8634,-3.8469,-3.7731,-3.729,-3.7272,-3.6446,-3.6043,-3.6225,-3.6973,-3.7525,-3.7679,-3.8322,-3.8658,-3.8562,-3.8562,-3.8332,-3.7843,-3.7685,-3.7631,-3.7614,-3.721,-3.6904,-3.6884,-3.6542,-3.6092,-3.5694,-3.5622,-3.5616,-3.5616,-3.5616,-3.5616,-3.5616,-3.5616,-3.5616,-3.5616,-3.5616,-3.5616,-3.5549,-3.4844,-3.4269,-3.41,-3.3038,-3.2192,-3.2022,-3.1562,-3.1207,-3.119,-3.119,-3.119,-3.1263,-3.119,-3.1368,-3.1604,-3.1714,-3.1843,-3.2299,-3.2663,-3.2965,-3.309,-3.3404,-3.3694,-4.9018,-4.9018,-4.9018,-4.9018,-4.9018,-4.9018,-4.8223,-4.6904,-4.6177,-4.5382,-4.4598,-4.4598,-4.4598,-4.4598,-4.4598,-4.4598,-4.4598,-4.4598,-4.4598,-4.4598,-4.4598,-4.3785,-4.2337,-4.2303,-4.1586,-4.0289,-4.0187,-4.0497,-4.0972,-4.1041,-4.0955,-4.0709,-3.9984,-3.8922,-3.7718,-3.7862,-3.7825,-3.7451,-3.8269,-3.8762,-3.8872,-3.8762,-3.8744,-3.8854,-3.8762,-3.8707,-3.8707,-3.8707,-3.8707,-3.8707,-3.8707,-3.8707,-3.8707,-3.8707,-3.8395,-3.7713,-3.6909,-3.6468,-3.6468,-3.5287,-3.4968,-3.5883,-3.6773,-3.7612,-3.8447,-3.8634,-3.8496,-3.8064,-3.8032,-3.7807,-3.7341,-3.6904,-3.6684,-3.6623,-3.6165,-3.5832,-3.5902,-3.581,-3.5717,-3.5622,-3.5616,-3.5616,-3.5616,-3.5616,-3.5616,-3.5616,-3.5616,-3.5616,-3.5616,-3.5616,-3.5616,-3.543,-3.4438,-3.3677,-3.3558,-3.2324,-3.1633,-3.136,-3.1376,-3.1275,-3.1292,-3.1224,-3.119,-3.119,-3.119,-3.1213,-3.1293,-3.1291,-3.1487,-3.1825,-3.2022,-3.2196,-3.2534,-3.2968,-3.3394,-4.9018,-4.9018,-4.9018,-4.9018,-4.9018,-4.9018,-4.8409,-4.7344,-4.6616,-4.5635,-4.4649,-4.4598,-4.4598,-4.4598,-4.4598,-4.4598,-4.4598,-4.4598,-4.4598,-4.4598,-4.4598,-4.3785,-4.2405,-4.2303,-4.1525,-4.018,-4.0113,-4.0229,-4.0449,-4.049,-4.0164,-3.955,-3.8937,-3.8165,-3.7319,-3.7667,-3.7667,-3.721,-3.7649,-3.7998,-3.8267,-3.8267,-3.8399,-3.8692,-3.8707,-3.8707,-3.8707,-3.8707,-3.8707,-3.8707,-3.8707,-3.8707,-3.8707,-3.8707,-3.8542,-3.8157,-3.7401,-3.7021,-3.7155,-3.6371,-3.6079,-3.6571,-3.696,-3.7396,-3.7843,-3.7896,-3.7773,-3.7542,-3.7524,-3.7286,-3.6805,-3.6539,-3.6412,-3.6412,-3.5902,-3.5739,-3.5941,-3.5761,-3.56,-3.5616,-3.5616,-3.5616,-3.5616,-3.5616,-3.5616,-3.5616,-3.5616,-3.5616,-3.5616,-3.5616,-3.5616,-3.5481,-3.4387,-3.3728,-3.3812,-3.2767,-3.209,-3.2307,-3.2073,-3.1853,-3.1769,-3.1549,-3.1241,-3.119,-3.119,-3.119,-3.119,-3.119,-3.1291,-3.1391,-3.1678,-3.1897,-3.2127,-3.2483,-3.3029,-4.9018,-4.9018,-4.9018,-4.9018,-4.9018,-4.9018,-4.8494,-4.7631,-4.7022,-4.5957,-4.4699,-4.4598,-4.4598,-4.4598,-4.4598,-4.4598,-4.4598,-4.4598,-4.4598,-4.4598,-4.4598,-4.3775,-4.2405,-4.2303,-4.1534,-4.0248,-4.0113,-4.0113,-4.0113,-4.0113,-3.9538,-3.8474,-3.7858,-3.7323,-3.6865,-3.7341,-3.7323,-3.6865,-3.6825,-3.7135,-3.772,-3.786,-3.8117,-3.8481,-3.8512,-3.8578,-3.8673,-3.8578,-3.8578,-3.8692,-3.8578,-3.858,-3.8692,-3.8578,-3.8562,-3.86,-3.7951,-3.7466,-3.7431,-3.729,-3.7095,-3.6845,-3.6862,-3.6825,-3.6862,-3.6843,-3.6904,-3.6981,-3.7018,-3.6803,-3.6333,-3.6203,-3.6224,-3.6186,-3.5854,-3.5761,-3.6114,-3.5832,-3.5616,-3.5616,-3.5616,-3.5616,-3.5616,-3.5616,-3.5616,-3.5616,-3.5616,-3.5616,-3.5616,-3.5616,-3.5616,-3.5363,-3.4467,-3.3931,-3.432,-3.3427,-3.2886,-3.3339,-3.2933,-3.2632,-3.2459,-3.2053,-3.1647,-3.1596,-3.1478,-3.1393,-3.1258,-3.119,-3.121,-3.1252,-3.1432,-3.1678,-3.1825,-3.2092,-3.2648,-4.9018,-4.9018,-4.9018,-4.9018,-4.9018,-4.9018,-4.8223,-4.7005,-4.6802,-4.5957,-4.4716,-4.4598,-4.4598,-4.4598,-4.4598,-4.4598,-4.4598,-4.4598,-4.4598,-4.4598,-4.4598,-4.3785,-4.2371,-4.2269,-4.1534,-4.0248,-4.0113,-4.0113,-4.0113,-4.0045,-3.9342,-3.8014,-3.7025,-3.6295,-3.5898,-3.6312,-3.6291,-3.5783,-3.5761,-3.6249,-3.721,-3.7685,-3.7911,-3.7963,-3.798,-3.82,-3.8627,-3.8232,-3.82,-3.8611,-3.8232,-3.82,-3.8578,-3.8232,-3.82,-3.8588,-3.7936,-3.7103,-3.6274,-3.6802,-3.6746,-3.5876,-3.5827,-3.581,-3.5788,-3.5783,-3.5968,-3.6354,-3.6478,-3.6245,-3.5761,-3.5711,-3.5739,-3.5761,-3.5667,-3.5622,-3.5672,-3.5644,-3.5616,-3.5616,-3.5616,-3.5616,-3.5616,-3.5616,-3.5616,-3.5616,-3.5616,-3.5616,-3.5616,-3.5616,-3.5616,-3.5498,-3.4895,-3.4489,-3.4455,-3.3863,-3.3491,-3.3474,-3.3389,-3.3288,-3.3254,-3.3169,-3.2983,-3.2107,-3.2107,-3.1887,-3.1393,-3.119,-3.119,-3.119,-3.1291,-3.137,-3.1678,-3.1825,-3.223,-4.9018,-4.9018,-4.9018,-4.9018,-4.9018,-4.9018,-4.8409,-4.7462,-4.6989,-4.621,-4.5246,-4.4801,-4.4598,-4.4598,-4.4598,-4.4598,-4.4598,-4.4598,-4.4598,-4.4547,-4.413,-4.3318,-4.2337,-4.183,-4.1085,-4.018,-4.0113,-4.0113,-3.9943,-3.9249,-3.8481,-3.7851,-3.6874,-3.6139,-3.5672,-3.6139,-3.6156,-3.5622,-3.5616,-3.581,-3.6291,-3.706,-3.7614,-3.7859,-3.7893,-3.798,-3.8183,-3.7997,-3.7997,-3.82,-3.8032,-3.8015,-3.8216,-3.8013,-3.778,-3.7546,-3.6716,-3.6345,-3.6659,-3.6411,-3.6075,-3.5622,-3.5616,-3.5616,-3.5616,-3.5616,-3.5694,-3.5876,-3.5937,-3.5827,-3.5644,-3.5616,-3.5616,-3.5616,-3.5616,-3.5616,-3.5616,-3.5616,-3.5616,-3.5616,-3.5616,-3.5616,-3.5616,-3.5616,-3.5616,-3.5616,-3.5616,-3.5616,-3.5616,-3.5616,-3.5616,-3.5566,-3.5312,-3.5182,-3.5081,-3.4539,-3.432,-3.4489,-3.432,-3.4066,-3.4015,-3.3626,-3.3152,-3.2462,-3.2378,-3.2073,-3.1345,-3.1207,-3.119,-3.119,-3.119,-3.1252,-3.1428,-3.1449,-3.175,-4.9018,-4.9018,-4.9018,-4.9018,-4.9018,-4.9018,-4.8595,-4.7851,-4.7107,-4.638,-4.5669,-4.4908,-4.4598,-4.4598,-4.4598,-4.4598,-4.4598,-4.4598,-4.4598,-4.4513,-4.3775,-4.3031,-4.2286,-4.1559,-4.0815,-4.0214,-4.0113,-4.0113,-3.9943,-3.8616,-3.7898,-3.7757,-3.6737,-3.5989,-3.5672,-3.5989,-3.5989,-3.5644,-3.5616,-3.5667,-3.592,-3.6583,-3.7154,-3.7452,-3.7488,-3.7542,-3.7702,-3.7578,-3.7578,-3.7684,-3.7578,-3.7632,-3.7859,-3.7649,-3.7327,-3.6914,-3.6248,-3.6149,-3.6944,-3.6266,-3.5761,-3.5622,-3.5616,-3.5616,-3.5616,-3.5616,-3.5616,-3.5622,-3.5616,-3.5622,-3.5616,-3.5616,-3.5616,-3.5616,-3.5616,-3.5616,-3.5616,-3.5616,-3.5616,-3.5616,-3.5616,-3.5616,-3.5616,-3.5616,-3.5616,-3.5616,-3.5616,-3.5616,-3.5616,-3.5616,-3.5616,-3.5616,-3.56,-3.5583,-3.5566,-3.5177,-3.5165,-3.5245,-3.5042,-3.481,-3.4793,-3.4303,-3.3554,-3.3152,-3.278,-3.2171,-3.1427,-3.1207,-3.119,-3.119,-3.119,-3.119,-3.1232,-3.121,-3.1329,-4.9018,-4.9018,-4.9018,-4.9018,-4.9018,-4.9018,-4.8578,-4.7855,-4.7141,-4.6397,-4.5669,-4.4959,-4.4615,-4.4598,-4.4598,-4.4598,-4.4598,-4.4598,-4.4598,-4.453,-4.3775,-4.3031,-4.2269,-4.1559,-4.0815,-4.0146,-4.0113,-4.0113,-4.0011,-3.8667,-3.7898,-3.7821,-3.6463,-3.5678,-3.5622,-3.5667,-3.5644,-3.5622,-3.5616,-3.581,-3.6266,-3.6374,-3.6457,-3.6519,-3.6498,-3.6764,-3.7097,-3.6744,-3.6724,-3.721,-3.6803,-3.6923,-3.7685,-3.6983,-3.6676,-3.7065,-3.7048,-3.6833,-3.6522,-3.6333,-3.6097,-3.5711,-3.5616,-3.5616,-3.5616,-3.5616,-3.5616,-3.5616,-3.5616,-3.5616,-3.5616,-3.5616,-3.5616,-3.5616,-3.5616,-3.5616,-3.5616,-3.5616,-3.5616,-3.5616,-3.5616,-3.5616,-3.5616,-3.5616,-3.5616,-3.5616,-3.5616,-3.5616,-3.5616,-3.5616,-3.5616,-3.5616,-3.5616,-3.5616,-3.5583,-3.5447,-3.5464,-3.5532,-3.5481,-3.5447,-3.5515,-3.5363,-3.4535,-3.3858,-3.3541,-3.2831,-3.1698,-3.119,-3.119,-3.119,-3.119,-3.119,-3.119,-3.119,-3.1271,-4.9018,-4.9018,-4.9018,-4.9018,-4.9018,-4.9018,-4.8595,-4.7889,-4.7631,-4.6819,-4.5805,-4.5415,-4.5026,-4.4598,-4.4598,-4.4598,-4.4598,-4.4598,-4.4598,-4.4513,-4.3775,-4.3014,-4.2269,-4.1542,-4.0815,-4.0197,-4.0113,-4.0113,-4.0011,-3.9073,-3.8362,-3.7804,-3.6891,-3.6146,-3.5701,-3.5616,-3.5616,-3.5616,-3.5616,-3.5694,-3.5876,-3.5876,-3.5876,-3.5898,-3.6224,-3.6498,-3.6684,-3.6498,-3.6481,-3.6684,-3.6498,-3.6563,-3.6812,-3.6153,-3.6175,-3.6953,-3.6113,-3.5752,-3.6264,-3.6075,-3.5827,-3.5644,-3.5616,-3.5616,-3.5616,-3.5616,-3.5616,-3.5616,-3.5616,-3.5616,-3.5616,-3.5616,-3.5616,-3.5616,-3.5616,-3.5616,-3.5616,-3.5616,-3.5616,-3.5616,-3.5616,-3.5616,-3.5616,-3.5616,-3.5616,-3.5616,-3.5616,-3.5616,-3.5616,-3.5616,-3.5616,-3.5616,-3.5616,-3.5616,-3.5616,-3.56,-3.56,-3.56,-3.5583,-3.5549,-3.56,-3.56,-3.494,-3.4286,-3.4015,-3.3406,-3.2222,-3.1326,-3.1292,-3.119,-3.119,-3.119,-3.119,-3.119,-3.119,-4.9018,-4.9018,-4.9018,-4.9018,-4.9018,-4.9018,-4.8731,-4.8257,-4.799,-4.7314,-4.6464,-4.594,-4.5415,-4.4942,-4.4716,-4.4598,-4.4598,-4.4598,-4.4598,-4.453,-4.3775,-4.3014,-4.2269,-4.1542,-4.0815,-4.0214,-4.0113,-4.0113,-4.0011,-3.9368,-3.8751,-3.8227,-3.7303,-3.6535,-3.6028,-3.5735,-3.5616,-3.5616,-3.5616,-3.56,-3.5616,-3.5616,-3.5616,-3.5667,-3.5946,-3.6139,-3.6139,-3.6139,-3.6139,-3.6139,-3.6139,-3.6139,-3.6088,-3.5828,-3.5943,-3.6444,-3.5553,-3.52,-3.5947,-3.5788,-3.56,-3.5616,-3.5616,-3.5616,-3.5616,-3.5616,-3.5616,-3.5616,-3.5616,-3.5616,-3.5616,-3.5616,-3.5616,-3.5616,-3.5616,-3.5616,-3.5616,-3.5616,-3.5616,-3.5616,-3.5616,-3.5616,-3.5616,-3.5616,-3.5616,-3.5616,-3.5616,-3.5616,-3.5616,-3.5616,-3.5616,-3.5616,-3.5616,-3.5616,-3.5616,-3.5616,-3.5616,-3.5616,-3.5616,-3.5616,-3.5616,-3.5616,-3.538,-3.4776,-3.4167,-3.3592,-3.2797,-3.1799,-3.1393,-3.1275,-3.119,-3.119,-3.119,-3.119,-3.119,-4.9018,-4.9018,-4.9018,-4.9018,-4.9018,-4.9018,-4.8984,-4.8815,-4.8257,-4.7872,-4.7466,-4.638,-4.5754,-4.5517,-4.4891,-4.4598,-4.4598,-4.4598,-4.4598,-4.4513,-4.3842,-4.3064,-4.2269,-4.1644,-4.0865,-4.013,-4.0113,-4.0113,-4.0062,-3.9469,-3.9039,-3.87,-3.7642,-3.6948,-3.6761,-3.6062,-3.565,-3.5616,-3.5616,-3.5616,-3.5616,-3.5616,-3.5616,-3.5616,-3.5667,-3.5689,-3.5627,-3.5644,-3.5689,-3.5667,-3.5667,-3.5622,-3.5739,-3.5989,-3.6126,-3.5771,-3.5588,-3.5588,-3.5627,-3.5605,-3.5616,-3.5616,-3.5616,-3.5616,-3.5616,-3.5616,-3.5616,-3.5616,-3.5616,-3.5616,-3.5616,-3.5616,-3.5616,-3.5616,-3.5616,-3.5616,-3.5616,-3.5616,-3.5616,-3.5616,-3.5616,-3.5616,-3.5616,-3.5616,-3.5616,-3.5616,-3.5616,-3.5616,-3.5616,-3.5616,-3.5616,-3.5616,-3.5616,-3.5616,-3.5616,-3.5616,-3.5616,-3.5616,-3.5616,-3.5616,-3.5616,-3.56,-3.543,-3.4912,-3.4269,-3.3677,-3.3017,-3.2104,-3.1782,-3.1613,-3.1444,-3.1393,-3.1427,-3.1461,-3.1224,-4.9018,-4.9018,-4.9018,-4.9018,-4.9018,-4.9018,-4.9018,-4.9001,-4.8748,-4.8392,-4.78,-4.6887,-4.6194,-4.5602,-4.4908,-4.4598,-4.4598,-4.4598,-4.4598,-4.4564,-4.4299,-4.3504,-4.2455,-4.2049,-4.1305,-4.0282,-4.0113,-4.0113,-4.0062,-3.9859,-3.9537,-3.8954,-3.8548,-3.7753,-3.6897,-3.6518,-3.6197,-3.5667,-3.5616,-3.5616,-3.5616,-3.5616,-3.5616,-3.5616,-3.5616,-3.5616,-3.5616,-3.5616,-3.5616,-3.5616,-3.5616,-3.5616,-3.5644,-3.5761,-3.5761,-3.5644,-3.5616,-3.5616,-3.5616,-3.5616,-3.5616,-3.5616,-3.5616,-3.5616,-3.5616,-3.5616,-3.5616,-3.5616,-3.5616,-3.5616,-3.5616,-3.5616,-3.5616,-3.5616,-3.5616,-3.5616,-3.5616,-3.5616,-3.5616,-3.5616,-3.5616,-3.5616,-3.5616,-3.5616,-3.5616,-3.5616,-3.5616,-3.5616,-3.5616,-3.5616,-3.5616,-3.5616,-3.5616,-3.5616,-3.5616,-3.5616,-3.5616,-3.5616,-3.5616,-3.5616,-3.5616,-3.5583,-3.5419,-3.5081,-3.4438,-3.3812,-3.3136,-3.2628,-3.229,-3.2205,-3.2222,-3.2104,-3.1955,-3.1684,-3.1326,-4.9018,-4.9018,-4.9018,-4.9018,-4.9018,-4.9018,-4.9018,-4.9018,-4.9018,-4.8731,-4.8189,-4.7225,-4.6549,-4.5957,-4.5043,-4.4615,-4.4598,-4.4598,-4.4598,-4.4598,-4.4598,-4.3904,-4.2709,-4.2083,-4.1314,-4.0316,-4.0113,-4.0113,-4.0113,-4.0096,-3.9876,-3.9469,-3.914,-3.8589,-3.7658,-3.7337,-3.6823,-3.6163,-3.6062,-3.591,-3.5667,-3.5616,-3.5616,-3.5616,-3.5616,-3.5616,-3.5616,-3.5616,-3.5616,-3.5616,-3.5616,-3.5616,-3.5616,-3.5639,-3.5616,-3.5616,-3.5616,-3.5616,-3.5616,-3.5616,-3.5616,-3.5616,-3.5616,-3.5616,-3.5616,-3.5616,-3.5616,-3.5616,-3.5616,-3.5616,-3.5616,-3.5616,-3.5616,-3.5616,-3.5616,-3.5616,-3.5616,-3.5616,-3.5616,-3.5616,-3.5616,-3.5616,-3.5616,-3.5616,-3.5616,-3.5616,-3.5616,-3.5616,-3.5616,-3.5616,-3.5616,-3.5616,-3.5616,-3.5616,-3.5616,-3.5616,-3.5616,-3.5616,-3.5616,-3.5616,-3.5616,-3.5616,-3.5498,-3.5267,-3.4742,-3.432,-3.3694,-3.3152,-3.278,-3.2882,-3.2949,-3.2446,-3.2056,-3.1582,-3.1258,-4.9018,-4.9018,-4.9018,-4.9018,-4.9018,-4.9018,-4.9018,-4.9018,-4.9018,-4.8968,-4.8646,-4.7394,-4.6769,-4.643,-4.5258,-4.4598,-4.4598,-4.4598,-4.4598,-4.4598,-4.4547,-4.4045,-4.3064,-4.188,-4.0899,-4.0214,-4.0113,-4.0113,-4.0113,-4.0113,-4.0113,-3.996,-3.9453,-3.9022,-3.87,-3.8261,-3.755,-3.6795,-3.6728,-3.6332,-3.5667,-3.5616,-3.5616,-3.5616,-3.5616,-3.5616,-3.5616,-3.5616,-3.5616,-3.5616,-3.5616,-3.5616,-3.5616,-3.5616,-3.5616,-3.5616,-3.5616,-3.5616,-3.5616,-3.5616,-3.5616,-3.5616,-3.5616,-3.5616,-3.5616,-3.5616,-3.5616,-3.5616,-3.5616,-3.5616,-3.5616,-3.5616,-3.5616,-3.5616,-3.5616,-3.5616,-3.5616,-3.5616,-3.5616,-3.5616,-3.5616,-3.5616,-3.5616,-3.5616,-3.5616,-3.5616,-3.5616,-3.5616,-3.5616,-3.5616,-3.5616,-3.5616,-3.5616,-3.5616,-3.5616,-3.5616,-3.5616,-3.5616,-3.5616,-3.5616,-3.5616,-3.5616,-3.5397,-3.5182,-3.5047,-3.4658,-3.4286,-3.3728,-3.3609,-3.3829,-3.3457,-3.2682,-3.2158,-3.1782,-3.1326,-4.9018,-4.9018,-4.9018,-4.9018,-4.9018,-4.9018,-4.9018,-4.9018,-4.9018,-4.9018,-4.868,-4.7428,-4.6786,-4.6616,-4.5292,-4.4598,-4.4598,-4.4598,-4.4598,-4.4598,-4.4598,-4.3819,-4.2658,-4.166,-4.0815,-4.0197,-4.0113,-4.0113,-4.0113,-4.0113,-4.0113,-4.0113,-3.9893,-3.952,-3.9039,-3.8819,-3.8007,-3.6981,-3.6812,-3.6417,-3.5735,-3.5616,-3.5616,-3.5616,-3.5616,-3.5616,-3.5616,-3.5616,-3.5616,-3.5616,-3.5616,-3.5616,-3.5616,-3.5616,-3.5616,-3.5616,-3.5616,-3.5616,-3.5616,-3.5616,-3.5616,-3.5616,-3.5616,-3.5616,-3.5616,-3.5616,-3.5616,-3.5616,-3.5616,-3.5616,-3.5616,-3.5616,-3.5616,-3.5616,-3.5616,-3.5616,-3.5616,-3.5616,-3.5616,-3.5616,-3.5616,-3.5667,-3.5684,-3.5684,-3.5684,-3.5684,-3.5684,-3.5684,-3.5774,-3.587,-3.5971,-3.5684,-3.5616,-3.5616,-3.5616,-3.5616,-3.5616,-3.5616,-3.5616,-3.5616,-3.5616,-3.5616,-3.525,-3.4844,-3.4979,-3.4726,-3.4573,-3.4252,-3.4472,-3.4675,-3.3964,-3.3169,-3.2713,-3.2307,-3.1647,-4.9018,-4.9018,-4.9018,-4.9018,-4.9018,-4.9018,-4.9018,-4.9018,-4.9018,-4.9018,-4.868,-4.7445,-4.6786,-4.6633,-4.5275,-4.4615,-4.4598,-4.4598,-4.4598,-4.4547,-4.4231,-4.342,-4.2354,-4.1542,-4.0815,-4.0163,-4.0113,-4.0113,-4.0113,-4.0113,-4.0113,-4.0113,-4.0113,-3.9859,-3.9554,-3.9436,-3.8759,-3.7533,-3.7229,-3.6755,-3.5701,-3.5616,-3.5616,-3.5616,-3.5616,-3.5616,-3.5616,-3.5616,-3.5616,-3.5616,-3.5616,-3.5616,-3.5616,-3.5616,-3.5616,-3.5616,-3.5616,-3.5616,-3.5616,-3.5616,-3.5616,-3.5616,-3.5616,-3.5616,-3.5616,-3.5616,-3.5616,-3.5616,-3.5616,-3.5616,-3.5616,-3.5616,-3.5616,-3.5616,-3.5616,-3.5616,-3.5616,-3.5616,-3.5616,-3.5667,-3.5893,-3.6096,-3.6113,-3.6113,-3.6113,-3.6146,-3.6197,-3.6163,-3.618,-3.6299,-3.6332,-3.6096,-3.5926,-3.596,-3.5718,-3.5616,-3.5616,-3.5616,-3.5616,-3.5616,-3.5616,-3.5616,-3.5397,-3.5098,-3.4996,-3.4928,-3.4878,-3.4895,-3.5081,-3.4962,-3.432,-3.388,-3.3457,-3.2831,-3.2171,-4.9018,-4.9018,-4.9018,-4.9018,-4.9018,-4.9018,-4.9018,-4.9018,-4.9018,-4.9018,-4.868,-4.7445,-4.6819,-4.6684,-4.5263,-4.4598,-4.4598,-4.4598,-4.4598,-4.4316,-4.3758,-4.2878,-4.2303,-4.1542,-4.0815,-4.0197,-4.0113,-4.0113,-4.0113,-4.0113,-4.0113,-4.0113,-4.0113,-4.0113,-3.9977,-4.0011,-3.9309,-3.8244,-3.7838,-3.7144,-3.6056,-3.5718,-3.5616,-3.5616,-3.5616,-3.5616,-3.5616,-3.5616,-3.5616,-3.5616,-3.5616,-3.5616,-3.5616,-3.5616,-3.5616,-3.5616,-3.5616,-3.5616,-3.5616,-3.5616,-3.5616,-3.5616,-3.5616,-3.5616,-3.5616,-3.5616,-3.5616,-3.5616,-3.5616,-3.5684,-3.5853,-3.5836,-3.6022,-3.6107,-3.5988,-3.5887,-3.5802,-3.5701,-3.5633,-3.5735,-3.6383,-3.6728,-3.6914,-3.6931,-3.6931,-3.684,-3.6789,-3.6637,-3.6688,-3.684,-3.6789,-3.6603,-3.6468,-3.6366,-3.6011,-3.5616,-3.5616,-3.5616,-3.5616,-3.5616,-3.5616,-3.5616,-3.5616,-3.5498,-3.5312,-3.5295,-3.538,-3.5481,-3.5532,-3.5301,-3.4709,-3.4506,-3.4286,-3.3508,-3.278,-4.9018,-4.9018,-4.9018,-4.9018,-4.9018,-4.9018,-4.9018,-4.9018,-4.9018,-4.9018,-4.8663,-4.7445,-4.6819,-4.6718,-4.5343,-4.4598,-4.4598,-4.4598,-4.4598,-4.4429,-4.3115,-4.254,-4.2134,-4.1508,-4.0798,-4.0265,-4.0113,-4.0113,-4.0113,-4.0113,-4.0113,-4.0113,-4.0113,-4.0113,-4.0113,-4.0079,-3.9706,-3.8802,-3.821,-3.7449,-3.6552,-3.5893,-3.5616,-3.5616,-3.5616,-3.5616,-3.5616,-3.5616,-3.5616,-3.5616,-3.5616,-3.5616,-3.5616,-3.5616,-3.5616,-3.5616,-3.5616,-3.5616,-3.5616,-3.5616,-3.5616,-3.5616,-3.5616,-3.5616,-3.5616,-3.5616,-3.5616,-3.5616,-3.5616,-3.5921,-3.6468,-3.7077,-3.7172,-3.7188,-3.7222,-3.7273,-3.7188,-3.6343,-3.6062,-3.6417,-3.6721,-3.7009,-3.7584,-3.7652,-3.7635,-3.7584,-3.7415,-3.7202,-3.728,-3.7466,-3.7415,-3.7371,-3.7195,-3.706,-3.6518,-3.6191,-3.6191,-3.6096,-3.5977,-3.5859,-3.5859,-3.5616,-3.5616,-3.5616,-3.5583,-3.5616,-3.5616,-3.56,-3.5583,-3.5334,-3.5115,-3.4878,-3.4539,-3.3914,-3.3723,-4.9018,-4.9018,-4.9018,-4.9018,-4.9018,-4.9018,-4.9018,-4.9018,-4.9018,-4.9018,-4.8697,-4.7445,-4.6802,-4.665,-4.5326,-4.4598,-4.4598,-4.4598,-4.4598,-4.4259,-4.3091,-4.2337,-4.2016,-4.1238,-4.0451,-4.013,-4.0113,-4.0113,-4.0113,-4.0113,-4.0113,-4.0113,-4.0113,-4.0113,-4.0113,-4.0079,-3.9486,-3.8582,-3.8125,-3.7533,-3.6812,-3.6045,-3.5616,-3.5616,-3.5616,-3.5616,-3.5616,-3.5616,-3.5616,-3.5616,-3.5616,-3.5616,-3.5616,-3.5616,-3.5616,-3.5616,-3.5616,-3.5616,-3.5616,-3.5616,-3.5616,-3.5616,-3.5616,-3.5616,-3.5616,-3.5616,-3.5836,-3.6062,-3.6248,-3.6485,-3.7195,-3.7567,-3.7865,-3.7898,-3.7939,-3.7922,-3.7787,-3.7155,-3.6783,-3.7297,-3.7692,-3.799,-3.8278,-3.8379,-3.8413,-3.8379,-3.8311,-3.8149,-3.8379,-3.8514,-3.8396,-3.8278,-3.8058,-3.7719,-3.7127,-3.6891,-3.6975,-3.6823,-3.662,-3.6468,-3.6349,-3.5994,-3.5616,-3.5616,-3.5616,-3.5616,-3.5616,-3.5616,-3.5616,-3.5481,-3.5318,-3.5115,-3.4962,-3.4737,-3.467,-4.9018,-4.9018,-4.9018,-4.9018,-4.9018,-4.9018,-4.9018,-4.9018,-4.9018,-4.89,-4.8595,-4.7361,-4.6701,-4.6312,-4.5241,-4.4632,-4.4598,-4.4598,-4.4598,-4.4378,-4.2997,-4.2388,-4.1965,-4.0967,-4.0197,-4.0113,-4.0113,-4.0113,-4.0113,-4.0113,-4.0113,-4.0113,-4.0113,-4.0113,-4.0113,-3.991,-3.936,-3.8396,-3.7855,-3.755,-3.6941,-3.6157,-3.5633,-3.5616,-3.5616,-3.5616,-3.5616,-3.5616,-3.5616,-3.5616,-3.5616,-3.5616,-3.5616,-3.5616,-3.5616,-3.5616,-3.5616,-3.5616,-3.5667,-3.5735,-3.5853,-3.5769,-3.5971,-3.6005,-3.6056,-3.6174,-3.6451,-3.6806,-3.711,-3.7449,-3.799,-3.8362,-3.8362,-3.8345,-3.8294,-3.8244,-3.8244,-3.8227,-3.8244,-3.8108,-3.8345,-3.8667,-3.8971,-3.9182,-3.9157,-3.914,-3.9073,-3.9106,-3.9309,-3.9276,-3.9005,-3.8853,-3.8565,-3.8142,-3.755,-3.7415,-3.7516,-3.7499,-3.728,-3.7127,-3.6981,-3.6772,-3.6394,-3.5718,-3.5616,-3.5633,-3.5633,-3.5616,-3.5616,-3.5616,-3.5549,-3.5363,-3.543,-3.5583,-3.5481,-4.9018,-4.9018,-4.9018,-4.9018,-4.9018,-4.9018,-4.9018,-4.9018,-4.9018,-4.8646,-4.8037,-4.7192,-4.6447,-4.5805,-4.5055,-4.4615,-4.4598,-4.4598,-4.4598,-4.4327,-4.3064,-4.2303,-4.1999,-4.0798,-4.0146,-4.0113,-4.0113,-4.0113,-4.0113,-4.0113,-4.0113,-4.0113,-4.0113,-4.0113,-3.9943,-3.9554,-3.9123,-3.843,-3.7652,-3.7212,-3.728,-3.6637,-3.5819,-3.5785,-3.5752,-3.5667,-3.5616,-3.5616,-3.5616,-3.5616,-3.5616,-3.5616,-3.5616,-3.5616,-3.5616,-3.5616,-3.5616,-3.5616,-3.5752,-3.6231,-3.6502,-3.6721,-3.7026,-3.7374,-3.7408,-3.7425,-3.7415,-3.7753,-3.8227,-3.8667,-3.8802,-3.9191,-3.9622,-3.969,-3.9588,-3.9588,-3.9605,-3.9537,-3.9317,-3.8937,-3.9056,-3.9191,-3.9486,-3.969,-3.9673,-3.9554,-3.9402,-3.952,-3.9757,-3.9537,-3.9165,-3.9046,-3.8937,-3.8464,-3.7939,-3.7939,-3.7973,-3.8058,-3.7939,-3.7838,-3.7719,-3.7686,-3.7313,-3.6529,-3.5921,-3.5718,-3.5701,-3.5633,-3.5616,-3.5616,-3.5616,-3.5616,-3.5616,-3.5616,-3.5616,-4.9018,-4.9018,-4.9018,-4.9018,-4.9018,-4.9018,-4.9018,-4.9018,-4.9001,-4.8595,-4.7868,-4.7124,-4.638,-4.5652,-4.4925,-4.4615,-4.4598,-4.4598,-4.4598,-4.4259,-4.3081,-4.2303,-4.2117,-4.079,-4.0248,-4.0113,-4.0113,-4.0113,-4.0113,-4.0113,-4.0113,-4.0113,-4.0113,-4.0113,-3.9943,-3.9419,-3.8836,-3.8311,-3.7432,-3.7144,-3.7872,-3.7347,-3.7094,-3.6383,-3.6163,-3.6011,-3.5633,-3.5616,-3.5616,-3.5616,-3.5616,-3.5616,-3.5633,-3.5633,-3.5633,-3.5633,-3.5633,-3.5842,-3.6129,-3.6637,-3.6914,-3.7347,-3.7753,-3.7889,-3.7898,-3.7889,-3.8125,-3.8548,-3.9106,-3.9563,-3.9563,-3.9926,-4.0062,-4.0113,-4.0113,-4.0113,-4.0113,-4.0113,-3.9859,-3.9571,-3.9639,-3.974,-3.9876,-4.0028,-4.0079,-3.996,-3.974,-3.9859,-4.0079,-3.9825,-3.9436,-3.9453,-3.9436,-3.9233,-3.8802,-3.8734,-3.8667,-3.8684,-3.8616,-3.8514,-3.8379,-3.8311,-3.7889,-3.7229,-3.6688,-3.6315,-3.5718,-3.565,-3.5633,-3.5616,-3.5616,-3.5616,-3.5616,-3.5616,-3.5667,-4.9018,-4.9018,-4.9018,-4.9018,-4.9018,-4.9018,-4.9018,-4.9018,-4.9018,-4.8494,-4.7665,-4.7039,-4.6295,-4.5483,-4.4925,-4.4598,-4.4598,-4.4598,-4.4598,-4.4276,-4.3031,-4.2303,-4.188,-4.0959,-4.0113,-4.0113,-4.0113,-4.0113,-4.0113,-4.0113,-4.0113,-4.0113,-4.0113,-4.0113,-3.996,-3.936,-3.865,-3.7905,-3.7212,-3.7161,-3.7719,-3.8447,-3.8396,-3.7117,-3.6857,-3.6451,-3.6028,-3.5684,-3.5791,-3.5859,-3.5887,-3.587,-3.5876,-3.5836,-3.5836,-3.5859,-3.5836,-3.6214,-3.6626,-3.7263,-3.7669,-3.8075,-3.8294,-3.8362,-3.843,-3.8633,-3.8684,-3.9216,-3.9673,-4.0045,-3.9994,-4.0096,-4.0113,-4.0113,-4.0113,-4.0113,-4.0113,-4.0113,-4.0113,-3.9994,-4.0113,-4.0113,-4.0113,-4.0113,-4.0113,-4.0113,-3.9893,-3.991,-4.0113,-4.0113,-3.9893,-3.9943,-3.996,-3.996,-3.9791,-3.969,-3.9605,-3.9537,-3.9402,-3.9249,-3.9039,-3.8853,-3.8396,-3.8041,-3.7753,-3.7313,-3.6518,-3.5785,-3.5859,-3.5836,-3.5684,-3.5616,-3.5616,-3.5785,-3.5977,-4.9018,-4.9018,-4.9018,-4.9018,-4.9018,-4.9018,-4.9018,-4.9018,-4.9018,-4.8189,-4.7022,-4.6786,-4.6041,-4.4993,-4.4699,-4.4598,-4.4598,-4.4598,-4.4598,-4.4361,-4.3047,-4.2303,-4.2066,-4.0773,-4.0197,-4.0113,-4.0113,-4.0113,-4.0113,-4.0113,-4.0113,-4.0113,-4.0113,-4.0113,-4.0028,-3.9343,-3.865,-3.7922,-3.7229,-3.6965,-3.7303,-3.8396,-3.8481,-3.7855,-3.7263,-3.688,-3.662,-3.6231,-3.6096,-3.6609,-3.6637,-3.6637,-3.666,-3.666,-3.666,-3.6677,-3.6677,-3.6711,-3.7117,-3.7879,-3.8565,-3.8903,-3.9309,-3.9715,-3.9622,-3.9605,-3.9673,-3.991,-4.0079,-4.0096,-4.0113,-4.0113,-4.0113,-4.0113,-4.0113,-4.0113,-4.0113,-4.0113,-4.0113,-4.0113,-4.0113,-4.0113,-4.0113,-4.0113,-4.0113,-4.0113,-4.0113,-4.0113,-4.0113,-4.0113,-4.0113,-4.0113,-4.0113,-4.0113,-4.0113,-4.0113,-4.0113,-4.0113,-3.9977,-3.9791,-3.9622,-3.9419,-3.9351,-3.8988,-3.8725,-3.8193,-3.733,-3.6721,-3.6349,-3.6214,-3.6259,-3.5971,-3.5616,-3.591,-3.6417,-4.9018,-4.9018,-4.9018,-4.9018,-4.9018,-4.9018,-4.9018,-4.9018,-4.8984,-4.8189,-4.6989,-4.6786,-4.6003,-4.4818,-4.4598,-4.4598,-4.4598,-4.4598,-4.4598,-4.4276,-4.3115,-4.2303,-4.1948,-4.0891,-4.0113,-4.0113,-4.0113,-4.0113,-4.0113,-4.0113,-4.0113,-4.0113,-4.0113,-4.0113,-4.0045,-3.9368,-3.8903,-3.8514,-3.8227,-3.8058,-3.8294,-3.8937,-3.9259,-3.8565,-3.8176,-3.7821,-3.7398,-3.7195,-3.7043,-3.7398,-3.7415,-3.7415,-3.7432,-3.7415,-3.7415,-3.7449,-3.7855,-3.8065,-3.8183,-3.8708,-3.9131,-3.9546,-3.991,-4.0028,-4.0096,-4.0113,-4.0113,-4.0096,-4.0096,-4.0113,-4.0113,-4.0113,-4.0113,-4.0113,-4.0113,-4.0113,-4.0113,-4.0113,-4.0113,-4.0113,-4.0113,-4.0113,-4.0113,-4.0113,-4.0113,-4.0113,-4.0113,-4.0113,-4.0113,-4.0113,-4.0113,-4.0113,-4.0113,-4.0113,-4.0113,-4.0113,-4.0113,-4.0113,-4.0096,-3.9977,-4.0028,-3.9926,-3.9791,-3.9757,-3.9571,-3.8945,-3.8125,-3.7635,-3.7229,-3.7036,-3.6901,-3.6698,-3.6546,-3.685,-3.7263,-4.9018,-4.9018,-4.9018,-4.9018,-4.8984,-4.8815,-4.8832,-4.9001,-4.8781,-4.7986,-4.6955,-4.638,-4.5563,-4.4835,-4.4598,-4.4598,-4.4598,-4.4598,-4.4598,-4.409,-4.321,-4.2388,-4.1873,-4.0908,-4.0113,-4.0113,-4.0113,-4.0113,-4.0113,-4.0113,-4.0113,-4.0113,-4.0113,-4.0113,-3.996,-3.9639,-3.9249,-3.8903,-3.887,-3.8836,-3.9022,-3.9639,-3.9673,-3.936,-3.9039,-3.8734,-3.8278,-3.7889,-3.7855,-3.8159,-3.8176,-3.8176,-3.8176,-3.8176,-3.8176,-3.8244,-3.8582,-3.8945,-3.908,-3.9385,-3.9588,-3.9893,-4.0113,-4.0113,-4.0113,-4.0113,-4.0113,-4.0113,-4.0113,-4.0113,-4.0113,-4.0113,-4.0113,-4.0113,-4.0113,-4.0113,-4.0113,-4.0113,-4.0113,-4.0113,-4.0113,-4.0113,-4.0113,-4.0113,-4.0113,-4.0113,-4.0113,-4.0113,-4.0113,-4.0113,-4.0113,-4.0113,-4.0113,-4.0113,-4.0113,-4.0113,-4.0113,-4.0113,-4.0113,-4.0113,-4.0113,-4.0113,-4.0011,-4.0045,-4.0113,-3.9774,-3.9046,-3.8565,-3.8091,-3.7696,-3.7425,-3.7645,-3.7713,-3.7956,-3.8091,-4.9018,-4.9018,-4.9018,-4.9018,-4.8968,-4.8244,-4.8426,-4.8934,-4.8277,-4.7564,-4.6583,-4.5512,-4.4869,-4.4632,-4.4598,-4.4598,-4.4598,-4.4598,-4.4598,-4.4107,-4.3159,-4.2472,-4.1863,-4.106,-4.0163,-4.0113,-4.0113,-4.0113,-4.0113,-4.0113,-4.0113,-4.0113,-4.0113,-4.0113,-4.0079,-3.9926,-3.9588,-3.93,-3.9182,-3.9123,-3.9292,-3.9723,-4.0011,-3.9876,-3.9402,-3.8954,-3.8903,-3.8447,-3.8379,-3.8886,-3.892,-3.892,-3.8945,-3.8945,-3.892,-3.8988,-3.9039,-3.9411,-3.9723,-3.9859,-3.9994,-4.0079,-4.0113,-4.0113,-4.0113,-4.0113,-4.0113,-4.0113,-4.0113,-4.0113,-4.0113,-4.0113,-4.0113,-4.0113,-4.0113,-4.0113,-4.0113,-4.0113,-4.0113,-4.0113,-4.0113,-4.0113,-4.0113,-4.0113,-4.0113,-4.0113,-4.0113,-4.0113,-4.0113,-4.0113,-4.0113,-4.0113,-4.0113,-4.0113,-4.0113,-4.0113,-4.0113,-4.0113,-4.0113,-4.0113,-4.0113,-4.0113,-4.0113,-4.0113,-4.0096,-4.0028,-3.9943,-3.9326,-3.8734,-3.8176,-3.8024,-3.8396,-3.8481,-3.8514,-3.87,-4.9018,-4.9018,-4.9018,-4.9018,-4.8984,-4.8697,-4.8748,-4.8866,-4.8193,-4.7208,-4.6109,-4.5077,-4.4598,-4.4598,-4.4598,-4.4598,-4.4598,-4.4598,-4.4598,-4.4265,-4.3538,-4.2794,-4.2117,-4.1356,-4.0603,-4.0231,-4.013,-4.0113,-4.0113,-4.0113,-4.0113,-4.0113,-4.0113,-4.0113,-4.0113,-4.0113,-3.9893,-3.9791,-3.9673,-3.9673,-3.974,-3.9876,-4.0113,-4.0045,-3.9943,-3.969,-3.9639,-3.9436,-3.9462,-3.9546,-3.9614,-3.9622,-3.9622,-3.9622,-3.9622,-3.9622,-3.958,-3.9791,-3.9994,-4.0113,-4.0113,-4.0113,-4.0113,-4.0113,-4.0113,-4.0113,-4.0113,-4.0113,-4.0113,-4.0113,-4.0113,-4.0113,-4.0113,-4.0113,-4.0113,-4.0113,-4.0113,-4.0113,-4.0113,-4.0113,-4.0113,-4.0113,-4.0113,-4.0113,-4.0113,-4.0113,-4.0113,-4.0113,-4.0113,-4.0113,-4.0113,-4.0113,-4.0113,-4.0113,-4.0113,-4.0113,-4.0113,-4.0113,-4.0113,-4.0113,-4.0113,-4.0113,-4.0113,-4.0113,-4.0113,-4.0079,-3.9977,-3.9842,-3.9462,-3.9022,-3.9056,-3.9343,-3.9309,-3.9106,-3.9266,-4.9018,-4.9018,-4.9018,-4.9018,-4.8951,-4.8528,-4.8595,-4.8798,-4.797,-4.7073,-4.5957,-4.5106,-4.4598,-4.4598,-4.4598,-4.4598,-4.4598,-4.4598,-4.4598,-4.4248,-4.3741,-4.3149,-4.2472,-4.1694,-4.0882,-4.0468,-4.0146,-4.0113,-4.0113,-4.0113,-4.0113,-4.0113,-4.0113,-4.0113,-4.0113,-4.0113,-4.0113,-4.0113,-4.0113,-4.0113,-4.0079,-4.0096,-4.0113,-4.0113,-4.0045,-4.0028,-4.0011,-3.991,-3.996,-4.0011,-4.0045,-4.0079,-4.0096,-4.0096,-4.0113,-4.0113,-4.0113,-4.0113,-4.0113,-4.0113,-4.0113,-4.0113,-4.0113,-4.0113,-4.0113,-4.0113,-4.0113,-4.0113,-4.0113,-4.0113,-4.0113,-4.0113,-4.0113,-4.0113,-4.0113,-4.0113,-4.0113,-4.0113,-4.0113,-4.0113,-4.0113,-4.0146,-4.0316,-4.035,-4.0417,-4.0451,-4.0527,-4.04,-4.0113,-4.0113,-4.0113,-4.0113,-4.0113,-4.0113,-4.0113,-4.0113,-4.0113,-4.0113,-4.0113,-4.0113,-4.0113,-4.0113,-4.0113,-4.0113,-4.0113,-4.0113,-4.0045,-3.9943,-3.9994,-3.9994,-3.996,-3.9842,-3.9842,-3.9656,-3.9774,-4.8984,-4.9018,-4.9018,-4.8984,-4.8781,-4.7462,-4.7733,-4.8731,-4.753,-4.6735,-4.6278,-4.5139,-4.4598,-4.4598,-4.4598,-4.4598,-4.4598,-4.4598,-4.4598,-4.4384,-4.3978,-4.3521,-4.2885,-4.2151,-4.1424,-4.1035,-4.0612,-4.0282,-4.0113,-4.0113,-4.0113,-4.0113,-4.0113,-4.0113,-4.0113,-4.0113,-4.0113,-4.0113,-4.0113,-4.0113,-4.0113,-4.0113,-4.0113,-4.0113,-4.0113,-4.0113,-4.0113,-4.0113,-4.0113,-4.0113,-4.0113,-4.0113,-4.0113,-4.0113,-4.0113,-4.0113,-4.0113,-4.0113,-4.0113,-4.0113,-4.0113,-4.0113,-4.0113,-4.0113,-4.0113,-4.0113,-4.0113,-4.0113,-4.0113,-4.0113,-4.0113,-4.0113,-4.0113,-4.0146,-4.0146,-4.018,-4.0197,-4.062,-4.0722,-4.062,-4.0333,-4.0214,-4.0468,-4.0654,-4.0713,-4.0815,-4.095,-4.0798,-4.0502,-4.0485,-4.0637,-4.0417,-4.0417,-4.0214,-4.0214,-4.013,-4.0113,-4.0113,-4.0113,-4.0113,-4.0113,-4.0113,-4.0113,-4.0113,-4.0113,-4.0113,-4.0113,-4.0096,-4.0113,-4.0113,-4.0113,-4.0045,-4.0096,-4.0113,-4.0113,-4.8578,-4.9001,-4.9018,-4.8714,-4.8257,-4.7767,-4.8122,-4.8646,-4.7462,-4.629,-4.541,-4.4716,-4.4598,-4.4598,-4.4598,-4.4598,-4.4598,-4.4598,-4.4598,-4.4547,-4.4215,-4.3842,-4.3325,-4.2817,-4.2117,-4.1373,-4.0849,-4.046,-4.0113,-4.0113,-4.0113,-4.0113,-4.0113,-4.0113,-4.0113,-4.0113,-4.0113,-4.0113,-4.0113,-4.0113,-4.0113,-4.0113,-4.0113,-4.0113,-4.0113,-4.0113,-4.0113,-4.0113,-4.0113,-4.0113,-4.0113,-4.0113,-4.0113,-4.0113,-4.0113,-4.0113,-4.0113,-4.0113,-4.0113,-4.0113,-4.0113,-4.013,-4.018,-4.0197,-4.0113,-4.0113,-4.0113,-4.018,-4.0299,-4.0282,-4.0113,-4.013,-4.0163,-4.0265,-4.0316,-4.0383,-4.057,-4.1314,-4.1687,-4.1373,-4.1102,-4.1365,-4.1602,-4.1745,-4.1779,-4.183,-4.2016,-4.183,-4.1525,-4.1525,-4.161,-4.1119,-4.0865,-4.0527,-4.035,-4.0231,-4.013,-4.0113,-4.0113,-4.0113,-4.0113,-4.0113,-4.0113,-4.0113,-4.0113,-4.0113,-4.0113,-4.0113,-4.0113,-4.0113,-4.0113,-4.0113,-4.0113,-4.0113,-4.0113,-4.78,-4.8223,-4.824,-4.797,-4.7564,-4.753,-4.7699,-4.7699,-4.6819,-4.5838,-4.5122,-4.4767,-4.4598,-4.4598,-4.4598,-4.4598,-4.4598,-4.4598,-4.4598,-4.4598,-4.4581,-4.4248,-4.391,-4.3443,-4.2625,-4.1779,-4.1204,-4.0815,-4.013,-4.0113,-4.0113,-4.0113,-4.0113,-4.0113,-4.0113,-4.0113,-4.0113,-4.0113,-4.0113,-4.0113,-4.0113,-4.0113,-4.0113,-4.0113,-4.0113,-4.0113,-4.0113,-4.0113,-4.0113,-4.0113,-4.0113,-4.0113,-4.0113,-4.0113,-4.0113,-4.0113,-4.0113,-4.0113,-4.0113,-4.0113,-4.0214,-4.051,-4.0485,-4.0502,-4.0587,-4.0832,-4.0959,-4.0976,-4.0807,-4.0654,-4.057,-4.057,-4.0722,-4.0832,-4.0933,-4.1035,-4.1238,-4.1999,-4.2202,-4.1948,-4.1965,-4.2303,-4.2675,-4.2929,-4.3031,-4.3064,-4.3142,-4.2811,-4.2506,-4.2439,-4.232,-4.1863,-4.1339,-4.0933,-4.0578,-4.0299,-4.0197,-4.0113,-4.0113,-4.0113,-4.0113,-4.0113,-4.0113,-4.0113,-4.0113,-4.0113,-4.0113,-4.0113,-4.0113,-4.0113,-4.0113,-4.0113,-4.0113,-4.0113,-4.0113,-4.6769,-4.6786,-4.6786,-4.6819,-4.6769,-4.6684,-4.6329,-4.5754,-4.5754,-4.5686,-4.5551,-4.4818,-4.4598,-4.4598,-4.4598,-4.4598,-4.4598,-4.4598,-4.4598,-4.4598,-4.4598,-4.4496,-4.4265,-4.3842,-4.3047,-4.2286,-4.1627,-4.1018,-4.0214,-4.0113,-4.0113,-4.0113,-4.0113,-4.0113,-4.0113,-4.0113,-4.0113,-4.0113,-4.0113,-4.0113,-4.0113,-4.0113,-4.0113,-4.0113,-4.0113,-4.0113,-4.0113,-4.0113,-4.0113,-4.0113,-4.0113,-4.0113,-4.0113,-4.0113,-4.0113,-4.0113,-4.0113,-4.0113,-4.013,-4.013,-4.0536,-4.0933,-4.1305,-4.1271,-4.1356,-4.161,-4.1728,-4.183,-4.1779,-4.1542,-4.1373,-4.1559,-4.1745,-4.1863,-4.1965,-4.2049,-4.2117,-4.2388,-4.2506,-4.2506,-4.2574,-4.2861,-4.3335,-4.3656,-4.3775,-4.3893,-4.3836,-4.3582,-4.3278,-4.298,-4.2811,-4.2439,-4.1914,-4.1356,-4.095,-4.051,-4.0214,-4.0113,-4.0113,-4.0113,-4.0113,-4.013,-4.0113,-4.0113,-4.0113,-4.0113,-4.0113,-4.0113,-4.0113,-4.0113,-4.0113,-4.0113,-4.0113,-4.0113,-4.0113,-4.6329,-4.6769,-4.6786,-4.6498,-4.5974,-4.5466,-4.5077,-4.5004,-4.5432,-4.5449,-4.4891,-4.4671,-4.4598,-4.4598,-4.4598,-4.4598,-4.4598,-4.4598,-4.4598,-4.4598,-4.4598,-4.4598,-4.4496,-4.4215,-4.342,-4.2625,-4.1914,-4.1271,-4.0333,-4.0113,-4.0113,-4.0113,-4.0113,-4.0113,-4.0113,-4.0113,-4.0113,-4.0113,-4.0113,-4.0113,-4.0113,-4.0113,-4.0113,-4.0113,-4.0113,-4.0113,-4.0113,-4.0113,-4.0113,-4.0113,-4.0113,-4.0113,-4.0113,-4.0113,-4.0113,-4.0113,-4.0113,-4.0113,-4.018,-4.0561,-4.1001,-4.1457,-4.2083,-4.2337,-4.2269,-4.2269,-4.2472,-4.2591,-4.2608,-4.2371,-4.2202,-4.232,-4.2388,-4.2405,-4.2608,-4.2878,-4.298,-4.3183,-4.3284,-4.3217,-4.3284,-4.3582,-4.4012,-4.4113,-4.4231,-4.4479,-4.4479,-4.4209,-4.3988,-4.3701,-4.3464,-4.3081,-4.254,-4.1982,-4.1255,-4.0747,-4.0383,-4.0113,-4.0299,-4.0367,-4.0248,-4.0248,-4.0146,-4.0113,-4.0113,-4.0113,-4.0113,-4.0113,-4.0113,-4.0113,-4.0113,-4.0113,-4.0113,-4.0113,-4.0113,-4.5517,-4.5889,-4.5906,-4.5652,-4.5229,-4.479,-4.4598,-4.4682,-4.5077,-4.5004,-4.4632,-4.4598,-4.4598,-4.4598,-4.4598,-4.4598,-4.4598,-4.4598,-4.4598,-4.4598,-4.4598,-4.4598,-4.4598,-4.4479,-4.3633,-4.2794,-4.2083,-4.1457,-4.0468,-4.0113,-4.0113,-4.0113,-4.0113,-4.0113,-4.0113,-4.0113,-4.0113,-4.0113,-4.0113,-4.0113,-4.0113,-4.0113,-4.0113,-4.0113,-4.0113,-4.0113,-4.0113,-4.0113,-4.0113,-4.0113,-4.0113,-4.0113,-4.0113,-4.0113,-4.0113,-4.0113,-4.0113,-4.0113,-4.0214,-4.0781,-4.1221,-4.183,-4.2726,-4.3183,-4.3352,-4.3403,-4.343,-4.3447,-4.3311,-4.3149,-4.3064,-4.2963,-4.2878,-4.2794,-4.3217,-4.3623,-4.3876,-4.413,-4.4096,-4.3995,-4.4113,-4.4378,-4.4564,-4.4598,-4.4598,-4.4598,-4.4598,-4.4496,-4.4378,-4.4276,-4.4124,-4.3893,-4.3267,-4.2642,-4.1897,-4.1322,-4.1119,-4.1044,-4.123,-4.1179,-4.0713,-4.0493,-4.057,-4.0367,-4.0113,-4.0113,-4.0146,-4.0113,-4.0113,-4.0113,-4.0146,-4.0163,-4.0146,-4.0113,-4.0113,-4.4615,-4.4666,-4.4598,-4.4699,-4.4615,-4.4598,-4.4598,-4.4598,-4.4666,-4.4598,-4.4598,-4.4598,-4.4598,-4.4598,-4.4598,-4.4598,-4.4598,-4.4598,-4.4598,-4.4598,-4.4598,-4.4598,-4.4598,-4.4496,-4.3667,-4.2777,-4.2066,-4.1542,-4.0485,-4.0113,-4.0113,-4.0113,-4.0113,-4.0113,-4.0113,-4.0113,-4.0113,-4.0113,-4.0113,-4.0113,-4.0113,-4.0113,-4.0113,-4.0113,-4.0113,-4.0113,-4.0113,-4.0113,-4.0113,-4.0113,-4.0113,-4.0113,-4.0113,-4.0113,-4.0113,-4.0113,-4.0113,-4.0265,-4.0502,-4.1068,-4.1745,-4.2371,-4.3098,-4.3724,-4.4028,-4.4124,-4.4073,-4.4073,-4.3955,-4.3809,-4.3707,-4.3775,-4.3768,-4.3673,-4.3859,-4.4113,-4.4248,-4.4429,-4.4412,-4.4299,-4.435,-4.4598,-4.4598,-4.4598,-4.4598,-4.4598,-4.4598,-4.4598,-4.4598,-4.4598,-4.4547,-4.4401,-4.3707,-4.3098,-4.2844,-4.2337,-4.2134,-4.21,-4.2117,-4.1897,-4.1407,-4.117,-4.1018,-4.0764,-4.0502,-4.0248,-4.018,-4.0146,-4.013,-4.0163,-4.0197,-4.0231,-4.0265,-4.0383,-4.0434,-4.4598,-4.4598,-4.4598,-4.4598,-4.4598,-4.4598,-4.4598,-4.4598,-4.4598,-4.4598,-4.4598,-4.4598,-4.4598,-4.4598,-4.4598,-4.4598,-4.4598,-4.4598,-4.4598,-4.4598,-4.4598,-4.4598,-4.4598,-4.4547,-4.3718,-4.276,-4.2066,-4.1551,-4.0519,-4.018,-4.0113,-4.0113,-4.0113,-4.0113,-4.0113,-4.0113,-4.0113,-4.0113,-4.0113,-4.0113,-4.0113,-4.0113,-4.0113,-4.0113,-4.0113,-4.0113,-4.0113,-4.0113,-4.0113,-4.0113,-4.0113,-4.0113,-4.0113,-4.0113,-4.0113,-4.0113,-4.0113,-4.0367,-4.0882,-4.1491,-4.2219,-4.3031,-4.3724,-4.4198,-4.453,-4.4581,-4.4598,-4.4598,-4.4547,-4.4401,-4.435,-4.4479,-4.4547,-4.4496,-4.4445,-4.453,-4.4598,-4.4598,-4.4598,-4.4598,-4.4598,-4.4598,-4.4598,-4.4598,-4.4598,-4.4598,-4.4598,-4.4598,-4.4598,-4.4598,-4.4598,-4.4384,-4.3859,-4.3358,-4.3335,-4.3234,-4.2963,-4.2692,-4.2591,-4.2354,-4.2083,-4.183,-4.1576,-4.1238,-4.095,-4.0646,-4.0367,-4.013,-4.013,-4.0282,-4.051,-4.0679,-4.1052,-4.1255,-4.1187,-4.4598,-4.4598,-4.4598,-4.4598,-4.4598,-4.4598,-4.4598,-4.4598,-4.4598,-4.4598,-4.4598,-4.4598,-4.4598,-4.4598,-4.4598,-4.4598,-4.4598,-4.4598,-4.4598,-4.4598,-4.4598,-4.4598,-4.4598,-4.4564,-4.3876,-4.298,-4.2033,-4.1271,-4.0603,-4.0197,-4.0113,-4.0113,-4.0113,-4.013,-4.0113,-4.0096,-4.007,-4.0113,-4.007,-4.0045,-4.007,-4.0113,-4.0113,-4.0113,-4.0113,-4.0113,-4.0113,-4.0113,-4.0113,-4.0113,-4.0113,-4.0113,-4.0113,-4.0113,-4.0113,-4.0113,-4.018,-4.0417,-4.117,-4.1897,-4.2642,-4.342,-4.413,-4.453,-4.4564,-4.4598,-4.4598,-4.4598,-4.4598,-4.4468,-4.4468,-4.4564,-4.4581,-4.4547,-4.453,-4.4564,-4.4598,-4.4598,-4.4598,-4.4598,-4.4598,-4.4598,-4.4598,-4.4598,-4.4598,-4.4598,-4.4598,-4.4598,-4.4598,-4.4598,-4.4598,-4.4513,-4.4012,-4.391,-4.3995,-4.3893,-4.3673,-4.343,-4.3132,-4.3064,-4.2929,-4.2489,-4.2144,-4.183,-4.1474,-4.1018,-4.0713,-4.0519,-4.0493,-4.0696,-4.0967,-4.1238,-4.166,-4.21,-4.2134,-4.4598,-4.4598,-4.4598,-4.4598,-4.4598,-4.4598,-4.4598,-4.4598,-4.4598,-4.4598,-4.4598,-4.4598,-4.4598,-4.4598,-4.4598,-4.4598,-4.4598,-4.4598,-4.4598,-4.4598,-4.4598,-4.4598,-4.4598,-4.453,-4.3944,-4.3166,-4.2185,-4.161,-4.1068,-4.0798,-4.0603,-4.0265,-4.018,-4.0214,-4.0104,-3.9978,-3.9876,-3.9901,-3.9876,-3.9876,-3.9969,-4.0113,-4.0113,-4.0113,-4.0113,-4.0113,-4.0113,-4.0113,-4.0113,-4.0113,-4.0113,-4.0113,-4.0113,-4.0113,-4.0113,-4.0113,-4.0113,-4.0603,-4.1322,-4.1982,-4.276,-4.3521,-4.4198,-4.4547,-4.4581,-4.4598,-4.4598,-4.4598,-4.4598,-4.4598,-4.4598,-4.4598,-4.4598,-4.4598,-4.4598,-4.4598,-4.4598,-4.4598,-4.4598,-4.4598,-4.4598,-4.4598,-4.4598,-4.4598,-4.4598,-4.4598,-4.4598,-4.4598,-4.4598,-4.4598,-4.4598,-4.4598,-4.4367,-4.4412,-4.4513,-4.4378,-4.4124,-4.4158,-4.3921,-4.3876,-4.3775,-4.342,-4.298,-4.2489,-4.21,-4.1692,-4.133,-4.1085,-4.1119,-4.1186,-4.1762,-4.2151,-4.2388,-4.2794,-4.3081,-4.4598,-4.4598,-4.4598,-4.4598,-4.4598,-4.4598,-4.4598,-4.4598,-4.4598,-4.4598,-4.4598,-4.4598,-4.4598,-4.4598,-4.4598,-4.4598,-4.4598,-4.4598,-4.4598,-4.4598,-4.4598,-4.4598,-4.4598,-4.4564,-4.4079,-4.3369,-4.2574,-4.188,-4.1694,-4.1694,-4.1221,-4.0333,-4.0815,-4.0637,-4.0028,-3.9825,-3.9542,-3.961,-3.9305,-3.9092,-3.9901,-4.0045,-4.0096,-4.0113,-4.0113,-4.0113,-4.0113,-4.0113,-4.0113,-4.0113,-4.0113,-4.0113,-4.0113,-4.0113,-4.0113,-4.0113,-4.0113,-4.0832,-4.1559,-4.2083,-4.2811,-4.4028,-4.4581,-4.4581,-4.4598,-4.4598,-4.4598,-4.4598,-4.4598,-4.4598,-4.4598,-4.4598,-4.4598,-4.4598,-4.4598,-4.4598,-4.4598,-4.4598,-4.4598,-4.4598,-4.4598,-4.4598,-4.4598,-4.4598,-4.4598,-4.4598,-4.4598,-4.4598,-4.4598,-4.4598,-4.4598,-4.457,-4.457,-4.4598,-4.4581,-4.4564,-4.4429,-4.4547,-4.4564,-4.4333,-4.4248,-4.4384,-4.3961,-4.3126,-4.2816,-4.2547,-4.2179,-4.1322,-4.1687,-4.1853,-4.2628,-4.3149,-4.3318,-4.347,-4.3724]},{"header":{"parameterUnit":"m.s-1","parameterCategory":1,"la1":31.0,"la2":29.5877,"lo1":-88.7671,"lo2":-86.6584,"dy":0.0162,"dx":0.0185,"nx":115,"ny":88,"refTime":"2026-05-21T12:00:00:Z","depth":0,"parameterNumber":3,"parameterNumberName":"V-component_of_WINDS"},"data":[0.0,0.0,0.0,0.0,0.0,0.0,0.0,0.0,0.0,0.0,0.0,0.0,0.0,0.0,0.0,0.0,0.0,0.0,0.0,0.0,0.0,0.0,0.0,0.0,0.0,0.0,0.0,0.0,0.0,0.0,0.0,0.0,0.0,0.0,0.0,0.0,0.0,0.0,0.0,0.0,0.0,0.0,0.0,0.0,0.0,0.0,0.0,0.0,0.0,0.0,0.0,0.0,0.0,0.0,0.0,0.0,0.0,0.0,0.0,0.0,0.0,0.0,0.0,0.0,0.0,0.0,0.0,0.0,0.0,0.0,0.0,0.0,0.0,0.0,0.0,0.0,0.0,0.0,0.0,0.0,0.0,0.0,0.0,0.0,0.0,0.0,0.0,0.0,0.0,0.0,0.0,0.0,0.0,0.0,0.0,0.0,0.0,0.0,0.0,0.0,0.0,0.0,0.0,0.0,0.0,0.0,0.0,0.0,0.0,0.0,0.0,0.0,0.0,0.0,0.0,0.0,0.0,0.0,0.0,0.0,0.0,0.0,0.0,0.0,0.0,0.0,0.0,0.0,0.0,0.0,0.0,0.0,0.0,0.0,0.0,0.0,0.0,0.0,0.0,0.0,0.0,0.0,0.0,0.0,0.0,0.0,0.0,0.0,0.0,0.0,0.0,0.0,0.0,0.0,0.0,0.0,0.0,0.0,0.0,0.0,0.0,0.0,0.0,0.0,0.0,0.0,0.0,0.0,0.0,0.0,0.0,0.0,0.0,0.0,0.0,0.0,0.0,0.0,0.0,0.0,0.0,0.0,0.0,0.0,0.0,0.0,0.0,0.0,0.0,0.0,0.0,0.0,0.0,0.0,0.0,0.0,0.0,0.0,0.0,0.0,0.0,0.0,0.0,0.0,0.0,0.0,0.0,0.0,0.0,0.0,0.0,0.0,0.0,0.0,0.0,0.0,0.0,0.0,0.0,0.0,0.0,0.0,0.0,0.0,0.0,0.0,0.0,0.0,0.0,0.0,0.0,0.0,0.0,0.0,0.0,0.0,0.0,0.0,0.0,0.0,0.0,0.0,0.0,0.0,0.0,0.0,0.0,0.0,0.0,0.0,0.0,0.0,0.0,0.0,0.0,0.0,0.0,0.0,0.0,0.0,0.0,0.0,0.0,0.0,0.0,0.0,0.0,0.0,0.0,0.0,0.0,0.0,0.0,0.0,0.0,0.0,0.0,0.0,0.0,0.0,0.0,0.0,0.0,0.0,0.0,0.0,0.0,0.0,0.0,0.0,0.0,0.0,0.0,0.0,0.0,0.0,0.0,0.0,0.0,0.0,0.0,0.0,0.0,0.0,0.0,0.0,0.0,0.0,0.0,0.0,0.0,0.0,0.0,0.0,0.0,0.0,0.0,0.0,0.0,0.0,0.0,0.0,0.0,0.0,0.0,0.0,0.0,0.0,0.0,0.0,0.0,0.0,0.0,0.0,0.0,0.0,0.0,0.0,0.0,0.0,0.0,0.0,0.0,0.0,0.0,0.0,0.0,0.0,0.0,0.0,0.0,0.0,0.0,0.0,0.0,0.0,0.0,0.0,0.0,0.0,0.0,0.0,0.0,0.0,0.0,0.0,0.0,0.0,0.0,0.0,0.0,0.0,0.0,0.0,0.0,0.0,0.0,0.0,0.0,0.0,0.0,0.0,0.0,0.0,0.0,0.0,0.0,0.0,0.0,0.0,0.0,0.0,0.0,0.0,0.0,0.0,0.0,0.0,0.0,0.0,0.0,0.0,0.0,0.0,0.0,0.0,0.0,0.0,0.0,0.0,0.0,0.0,0.0,0.0,0.0,0.0,0.0,0.0,0.0,0.0,0.0,0.0,0.0,0.0,0.0,0.0,0.0,0.0,0.0,0.0,0.0,0.0,0.0,0.0,0.0,0.0,0.0,0.0,0.0,0.0,0.0,0.0,0.0,0.0,0.0,0.0,0.0,0.0,0.0,0.0,0.0,0.0,0.0,0.0,0.0,0.0,0.0,0.0,0.0,0.0,0.0,0.0,0.0,0.0,0.0,0.0,0.0,0.0,0.0,0.0,0.0,0.0,0.0,0.0,0.0,0.0,0.0,0.0,0.0,0.0,0.0,0.0,0.0,0.0,0.0,0.0,0.0,0.0,0.0,0.0,0.0,0.0,0.0,0.0,0.0,0.0,0.0,0.0,0.0,0.0,0.0,0.0,0.0,0.0,0.0,0.0,0.0,0.0,0.0,0.0,0.0,0.0,0.0,0.0,0.0,0.0,0.0,0.0,0.0,0.0,0.0,0.0,0.0,0.0,0.0,0.0,0.0,0.0,0.0,0.0,0.0,0.0,0.0,0.0,0.0,0.0,0.0,0.0,0.0,0.0,0.0,0.0,0.0,0.0,0.0,0.0,0.0,0.0,0.0,0.0,0.0,0.0,0.0,0.0,0.0,0.0,0.0,0.0,0.0,0.0,0.0,0.0,0.0,0.0,0.0,0.0,0.0,0.0,0.0,0.0,0.0,0.0,0.0,0.0,0.0,0.0,0.0,0.0,0.0,0.0,0.0,0.0,0.0,0.0,0.0,0.0,0.0,0.0,0.0,0.0,0.0,0.0,0.0,0.0,0.0,0.0,0.0,0.0,0.0,0.0,0.0,0.0,0.0,0.0,0.0,0.0,0.0,0.0,0.0,0.0,0.0,0.0,0.0,0.0,0.0,0.0,0.0,0.0,0.0,0.0,0.0,0.0,0.0,0.0,0.0,0.0,0.0,0.0,0.0,0.0,0.0,0.0,0.0,0.0,0.0,0.0,0.0,0.0,0.0,0.0,0.0,0.0,0.0,0.0,0.0,0.0,0.0,0.0,0.0,0.0,0.0,0.0,0.0,0.0,0.0,0.0,0.0,0.0,0.0,0.0,0.0,0.0,0.0,0.0,0.0,0.0,0.0,0.0,0.0,0.0,0.0,0.0,0.0,0.0,0.0,0.0,0.0,0.0,0.0,0.0,0.0,0.0,0.0,0.0,0.0,0.0,0.0,0.0,0.0,0.0,0.0,0.0,0.0,0.0,0.0,0.0,0.0,0.0,0.0,0.0,0.0,0.0,0.0,0.0,0.0,0.0,0.0,0.0,0.0,0.0,0.0,0.0,0.0,0.0,0.0,0.0,0.0,0.0,0.0,0.0,0.0,0.0,0.0,0.0,0.0,0.0,0.0,0.0,0.0,0.0,0.0,0.0,0.0,0.0,0.0,0.0,0.0,0.0,0.0,0.0,0.0,0.0,0.0,0.0,0.0,0.0,0.0,0.0,0.0,0.0,0.0,0.0,0.0,0.0,0.0,0.0,0.0,0.0,0.0,0.0,0.0,0.0,0.0,0.0,0.0,0.0,0.0,0.0,0.0,0.0,0.0,0.0,0.0,0.0,0.0,0.0,0.0,0.0,0.0,0.0,0.0,0.0,0.0,0.0,0.0,0.0,0.0,0.0,0.0,0.0,0.0,0.0,0.0,0.0,0.0,0.0,0.0,0.0,0.0,0.0,0.0,0.0,0.0,0.0,0.0,0.0,0.0,0.0,0.0,0.0,0.0,0.0,0.0,0.0,0.0,0.0,0.0,0.0,0.0,0.0,0.0,0.0,0.0,0.0,0.0,0.0,0.0,0.0,0.0,0.0,0.0,0.0,0.0,0.0,0.0,0.0,0.0,0.0,0.0,0.0,0.0,0.0,0.0,0.0,0.0,0.0,0.0,0.0,0.0,0.0,0.0,0.0,0.0,0.0,0.0,0.0,0.0,0.0,0.0,0.0,0.0,0.0,0.0,0.0,0.0,0.0,0.0,0.0,0.0,0.0,0.0,0.0,0.0,0.0,0.0,0.0,0.0,0.0,0.0,0.0,0.0,0.0,0.0,0.0,0.0,0.0,0.0,0.0,0.0,0.0,0.0,0.0,0.0,0.0,0.0,0.0,0.0,0.0,0.0,0.0,0.0,0.0,0.0,0.0,0.0,0.0,0.0,0.0,0.0,0.0,0.0,0.0,0.0,0.0,0.0,0.0,0.0,0.0,0.0,0.0,0.0,0.0,0.0,0.0,0.0,0.0,0.0,0.0,0.0,0.0,0.0,0.0,0.0,0.0,0.0,0.0,0.0,0.0,0.0,0.0,0.0,0.0,0.0,0.0,0.0,0.0,0.0,0.0,0.0,0.0,0.0,0.0,0.0,0.0,0.0,0.0,0.0,0.0,0.0,0.0,0.0,0.0,0.0,0.0,0.0,0.0,0.0,0.0,0.0,0.0,0.0,0.0,0.0,0.0,0.0,0.0,0.0,0.0,0.0,0.0,0.0,0.0,0.0,0.0,0.0,0.0,0.0,0.0,0.0,0.0,0.0,0.0,0.0,0.0,0.0,0.0,0.0,0.0,0.0,0.0,0.0,0.0,0.0,0.0,0.0,0.0,0.0,0.0,0.0,0.0,0.0,0.0,0.0,0.0,0.0,0.0,0.0,0.0,0.0,0.0,0.0,0.0,0.0,0.0,0.0,0.0,0.0,0.0,0.0,0.0,0.0,0.0,0.0,0.0,0.0,0.0,0.0,0.0,0.0,0.0,0.0,0.0,0.0,0.0,0.0,0.0,0.0,0.0,0.0,0.0,0.0,0.0,0.0,0.0,0.0,0.0,0.0,0.0,0.0,0.0,0.0,0.0,0.0,0.0,0.0,0.0,0.0,0.0,0.0,0.0,0.0,0.0,0.0,0.0,0.0,0.0,0.0,0.2639,0.1691,0.0615,0.0,0.0,0.0,0.0,0.0,0.0,0.0,0.0,0.0,0.0,0.0,0.0,0.0,0.0,0.0,0.0,0.0,0.0,0.0,0.0,0.0,0.0,0.0,0.0,0.0,0.0,0.0,0.0,0.0,0.0,0.0,0.0,0.0,0.0,0.0,0.0,0.0,0.0,0.0,0.0,0.0,0.0,0.0,0.0,0.0,0.0,0.0,0.0,0.0,0.0,0.0,0.0,0.0,0.0,0.0,0.0,0.0,0.0,0.0,0.0,0.0,0.0,0.0,0.0,0.0,0.0,0.0,0.0,0.0,0.0,0.0,0.0,0.0,0.0,0.0,0.0,0.0,0.0,0.0,0.0,0.0,0.0,0.0,0.0,0.0,0.0,0.0,0.0,0.0,0.0,0.0,0.0,0.0,0.0,0.0,0.0,0.0,0.0,0.0,0.0,0.0,0.0,0.0,0.0,0.0,0.0,0.0,0.0,0.0,0.0,0.0,0.0,0.0,0.0,0.073,0.0,0.0,0.0,0.0,0.0,0.0,0.0,0.0,0.0,0.0,0.0,0.0,0.0,0.0,0.0,0.0,0.0,0.0,0.0,0.0,0.0,0.0,0.0,0.0,0.0,0.0,0.0,0.0,0.0,0.0,0.0,0.0,0.0,0.0,0.0,0.0,0.0,0.0,0.0,0.0,0.0,0.0,0.0,0.0,0.0,0.0,0.0,0.0,0.0,0.0,0.0,0.0,0.0,0.0,0.0,0.0,0.0,0.0,0.0,0.0,0.0,0.0,0.0,0.0,0.0,0.0,0.0,0.0,0.0,0.0,0.0,0.0,0.0,0.0,0.0,0.0,0.0,0.0,0.0,0.0,0.0,0.0,0.0,0.0,0.0,0.0,0.0,0.0,0.0,0.0,0.0,0.0,0.0,0.0,0.0,0.0,0.0,0.0,0.0,0.0,0.0,0.0,0.0,0.0,0.0,0.0,0.0,0.0,0.0,0.0,0.0,0.0,0.3517,0.3742,0.1327,0.0,0.0,0.0,0.0,0.0,0.0,0.0,0.0,0.0,0.0,0.0,0.0,0.0,0.0,0.0,0.0,0.0,0.0,0.0,0.0,0.0,0.0,0.0,0.0,0.0,0.0,0.0,0.0,0.0,0.0,0.0,0.0,0.0,0.0,0.0,0.0,0.0,0.0,0.0,0.0,0.0,0.0,0.0,0.0,0.0,0.0,0.0,0.0,0.0,0.0,0.0,0.0,0.0,0.0,0.0,0.0,0.0,0.0,0.0,0.0,0.0,0.0,0.0,0.0,0.0,0.0,0.0,0.0,0.0,0.0,0.0,0.0,0.0,0.0,0.0,0.0,0.0,0.0,0.0,0.0,0.0,0.0,0.0,0.0,0.0,0.0,0.0,0.0,0.0,0.0,0.0,0.0,0.0,0.0,0.0,0.0,0.0,0.0,0.0,0.0,0.0,0.0,0.0,0.0,0.0,0.0,0.0,0.0,0.0,0.0,0.0,0.0,0.3153,0.272,0.0965,0.0,0.0,0.0,0.0,0.0,0.0,0.0,0.0,0.0,0.0,0.0,0.0,0.0,0.0,0.0,0.0,0.0,0.0,0.0,0.0,0.0,0.0,0.0,0.0,0.0,0.0,0.0,0.0,0.0,0.0,0.0,0.0,0.0,0.0,0.0,0.0,0.0,0.0,0.0,0.0,0.0,0.0,0.0,0.0,0.0,0.0,0.0,0.0,0.0,0.0,0.0,0.0,0.0,0.0,0.0,0.0,0.0,0.0,0.0,0.0,0.0,0.0,0.0,0.0,0.0,0.0,0.0,0.0,0.0,0.0,0.0,0.0,0.0,0.0,0.0,0.0,0.0,0.0,0.0,0.0,0.0,0.0,0.0,0.0,0.0,0.0,0.0,0.0,0.0,0.0,0.0,0.0,0.0,0.0,0.0,0.0,0.0,0.0,0.0,0.0,0.0,0.0,0.0,0.0,0.0,0.0,0.0,0.0,0.0,0.0,0.0,0.4706,0.3338,0.1925,0.0653,0.0,0.0,0.0,0.0,0.0,0.0,0.0,0.0,0.0,0.0,0.0,0.0,0.0,0.0,0.0,0.0,0.0,0.0,0.0,0.0,0.0,0.0,0.0,0.0,0.0,0.0,0.0,0.0,0.0,0.0,0.0,0.0,0.0,0.0,0.0,0.0,0.0,0.0,0.0,0.0,0.0,0.0,0.0,0.0,0.0,0.0,0.0,0.0,0.0,0.0,0.0,0.0,0.0,0.0,0.0,0.0,0.0,0.0,0.0,0.0,0.0,0.0,0.0,0.0,0.0,0.0,0.0,0.0,0.0,0.0,0.0,0.0,0.0,0.0,0.0,0.0,0.0,0.0,0.0,0.0,0.0,0.0,0.0,0.0,0.0,0.0,0.0,0.0,0.0,0.0,0.0,0.0,0.0,0.0,0.0,0.0,0.0,0.0,0.0,0.0,0.0,0.0,0.0,0.0,0.0,0.0,0.0,0.0,0.0,0.0,0.7799,0.6404,0.4576,0.2303,0.0775,0.0,0.0,0.0,0.0,0.0,0.0,0.0,0.0,0.0,0.0,0.0,0.0,0.0,0.0,0.0,0.0,0.0,0.0,0.0,0.0,0.0,0.0,0.0,0.0,0.0,0.0,0.0,0.0,0.0,0.0,0.0,0.0,0.0,0.0,0.0,0.0,0.0,0.0,0.0,0.0,0.0,0.0,0.0,0.0,0.0,0.0,0.0,0.0,0.0,0.0,0.0,0.0,0.0,0.0,0.0,0.0,0.0,0.0,0.0,0.0,0.0,0.0,0.0,0.0,0.0,0.0,0.0,0.0,0.0,0.0,0.0,0.0,0.0,0.0,0.0,0.0,0.0,0.0,0.0,0.0,0.0,0.0,0.0,0.0,0.0,0.0,0.0,0.0,0.0,0.0,0.0,0.0,0.0,0.0,0.0,0.0,0.0,0.0,0.0,0.0,0.0,0.0,0.0,0.0,0.0,0.0,0.0,0.0,0.0,0.0,0.7362,0.6178,0.4911,0.3512,0.1955,0.1256,0.0,0.0,0.0,0.0,0.0,0.0,0.0,0.0,0.0,0.0,0.0,0.0,0.0,0.0,0.0,0.0,0.0,0.0,0.0,0.0,0.0,0.0,0.0,0.0,0.0,0.0,0.0,0.0,0.0,0.0,0.0,0.0,0.0,0.0,0.0,0.0,0.0,0.0,0.0,0.0,0.0,0.0,0.0,0.0,0.0,0.0,0.0,0.0,0.0,0.0,0.0,0.0,0.0,0.0,0.0,0.0,0.0,0.0,0.0,0.0,0.0,0.0,0.0,0.0,0.0,0.0,0.0,0.0,0.0,0.0,0.0,0.0,0.0,0.0,0.0,0.0,0.0,0.0,0.0,0.0,0.0,0.0,0.0,0.0,0.0,0.0,0.0,0.0,0.0,0.0,0.0,0.0,0.0,0.0,0.0,0.0,0.0,0.0,0.0,0.0,0.0,0.0,0.0,0.0,0.0,0.0,0.0,0.0,0.0,0.7339,0.0,0.5539,0.4843,0.295,0.1963,0.0,0.0,0.0,0.0,0.0,0.0,0.0,0.0,0.0,0.0,0.0,0.0,0.0,0.0,0.0,0.0,0.0,0.0,0.0,0.0,0.0,0.0,0.0,0.0,0.0,0.0,0.0,0.0,0.0,0.0,0.0,0.0,0.0,0.0,0.0,0.0,0.0,0.0,0.0,0.0,0.0,0.0,0.0,0.0,0.0,0.0,0.0,0.0,0.0,0.0,0.0,0.0,0.0,0.0,0.0,0.0,0.0,0.0,0.0,0.0,0.0,0.0,0.0,0.0,0.0,0.0,0.0,0.0,0.0,0.0,0.0,0.0,0.0,0.0,0.0,0.0,0.0,0.0,0.0,0.0,0.0,0.0,0.0,0.0,0.0,0.0,0.0,0.0,0.0,0.0,0.0,0.0,0.0,0.0,0.0,0.0,0.0,0.0,0.0,0.0,0.0,0.0,0.0,0.0,0.0,0.0,0.0,0.0,0.7392,0.7902,0.7156,0.66,0.6245,0.3678,0.2128,0.0,0.0,0.0,0.0,0.0,0.0,0.0,0.0,0.0,0.0,0.0,0.0,0.0,0.0,0.0,0.0,0.0,0.0,0.0,0.0,0.0,0.0,0.0,0.0,0.0,0.0,0.0,0.0,0.0,0.0,0.0,0.0,0.0,0.0,0.0,0.0,0.0,0.0,0.0,0.0,0.0,0.0,0.0,0.0,0.0,0.0,0.0,0.0,0.0,0.0,0.0,0.0,0.0,0.0,0.0,0.0,0.0,0.0,0.0,0.0,0.0,0.0,0.0,0.0,0.0,0.0,0.0,0.0,0.0,0.0,0.0,0.0,0.0,0.0,0.0,0.0,0.0,0.0,0.0,0.0,0.0,0.0,0.0,0.0,0.0,0.0,0.0,0.0,0.0,0.0,0.0,0.0,0.0,0.0,0.0,0.0,0.0,0.0,0.0,0.0,0.0,0.0,0.0,0.0,0.0,0.0,0.0,0.0,0.0,0.774,0.7624,0.7667,0.7746,0.4991,0.3484,0.0,0.0,0.0,0.0,0.0,0.0,0.0,0.0,0.0,0.0,0.0,0.0,0.0,0.0,0.0,0.0,0.0,0.0,0.0,0.0,0.0,0.0,0.0,0.0,0.0,0.0,0.0,0.0,0.0,0.0,0.0,0.0,0.0,0.0,0.0,0.0,0.0,0.0,0.0,0.0,0.0,0.0,0.0,0.0,0.0,0.0,0.0,0.0,0.0,0.0,0.0,0.0,0.0,0.0,0.0,0.0,0.0,0.0,0.0,0.0,0.0,0.0,0.0,0.0,0.0,0.0,0.0,0.0,0.0,0.0,0.0,0.0,0.0,0.0,0.0,0.0,0.0,0.0,0.0,0.0,0.0,0.0,0.0,0.0,0.0,0.0,0.0,0.0,0.0,0.0,0.0,0.0,0.0,0.0,0.0,0.0,0.0,0.0,0.0,0.0,0.0,0.0,0.0,0.0,0.0,0.0,0.0,0.0,0.0,0.7872,0.8194,0.8408,0.8531,0.6143,0.4661,0.428,0.0,0.0,0.0,0.0,0.0,0.0,0.0,0.0,0.0,0.0,0.0,0.0,0.0,0.0,0.0,0.0,0.0,0.0,0.0,0.0,0.0,0.0,0.0,0.0,0.0,0.0,0.0,0.0,0.0,0.0,0.0,0.0,0.0,0.0,0.0,0.0,0.0,0.0,0.0,0.0,0.0,0.0,0.0,0.0,0.0,0.0,0.0,0.0,0.0,0.0,0.0,0.0,0.0,0.0,0.0,0.0,0.0,0.0,0.0,0.0,0.0,0.0,0.0,0.0,0.0,0.0,0.0,0.0,0.0,0.0,0.0,0.0,0.0,0.0,0.0,0.0,0.0,0.0,0.0,0.0,0.0,0.0,0.0,0.0,0.0,0.0,0.0,0.0,0.0,0.0,0.0,0.0,0.0,0.0,0.0,0.0,0.0,0.0,0.0,0.0,0.0,0.0,0.0,0.0,0.0,0.0,0.0,0.0,0.8282,0.8713,0.874,0.8516,0.7065,0.5583,0.0,0.0,0.0,0.0,0.0,0.0,0.0,0.0,0.0,0.0,0.0,0.0,0.0,0.0,0.0,0.0,0.0,0.0,0.0,0.0,0.0,0.0,0.0,0.0,0.0,0.0,0.0,0.0,0.0,0.0,0.0,0.0,0.0,0.0,0.0,0.0,0.0,0.0,0.0,0.0,0.0,0.0,0.0,0.0,0.0,0.0,0.0,0.0,0.0,0.0,0.0,0.0,0.0,0.0,0.0,0.0,0.0,0.0,0.0,0.0,0.0,0.0,0.0,0.0,0.0,0.0,0.0,0.0,0.0,0.0,0.0,0.0,0.0,0.0,0.0,0.0,0.0,0.0,0.0,0.0,0.0,0.0,0.0,0.0,0.0,0.0,0.0,0.0,0.0,0.0,0.0,0.0,0.0,0.0,0.0,0.0,0.0,0.0,0.0,0.0,0.0,0.0,0.0,0.0,0.0,0.0,0.0,0.0,0.0,0.8431,0.8764,0.8899,0.8757,0.7278,0.5787,0.0,0.0,0.0,0.0,0.0,0.0,0.0,0.0,0.0,0.0,0.0,0.0,0.0,0.0,0.0,0.0,0.0,0.0,0.0,0.0,0.0,0.0,0.0,0.0,0.0,0.0,0.0,0.0,0.0,0.0,0.0,0.0,0.0,0.0,0.0,0.0,0.0,0.0,0.0,0.0,0.0,0.0,0.0,0.0,0.0,0.0,0.0,0.0,0.0,0.0,0.0,0.0,0.0,0.0,0.0,0.0,0.0,0.0,0.0,0.0,0.0,0.0,0.0,0.0,0.0,0.0,0.0,0.0,0.0,0.0,0.0,0.0,0.0,0.0,0.0,0.0,0.0,0.0,0.0,0.0,0.0,0.0,0.0,0.0,0.0,0.0,0.0,0.0,0.0,0.0,0.0,0.0,0.0,0.0,0.0,0.0,0.0,0.0,0.0,0.0,0.0,0.0,0.0,0.0,0.0,0.0,0.0,0.0,0.8401,0.8669,0.8903,0.9028,0.9028,0.7943,0.6695,0.0,0.0,0.0,0.0,0.0,0.0,0.0,0.0,0.0,0.0,0.0,0.0,0.0,0.0,0.0,0.0,0.0,0.0,0.0,0.0,0.0,0.0,0.0,0.0,0.0,0.0,0.0,0.0,0.0,0.0,0.0,0.0,0.0,0.0,0.0,0.0,0.0,0.0,0.0,0.0,0.0,0.0,0.0,0.0,0.0,0.0,0.0,0.0,0.0,0.0,0.0,0.0,0.0,0.0,0.0,0.0,0.0,0.0,0.0,0.0,0.0,0.0,0.0,0.0,0.0,0.0,0.0,0.0,0.0,0.0,0.0,0.0,0.0,0.0,0.0,0.0,0.0,0.0,0.0,0.0,0.0,0.0,0.0,0.0,0.0,0.0,0.0,0.0,0.0,0.0,0.0,0.0,0.0,0.0,0.0,0.0,0.0,0.0,0.0,0.0,0.0,0.0,0.0,0.0,0.0,0.0,0.0,0.0,0.8509,0.8848,0.9055,0.9187,0.9173,0.8726,0.783,0.0,0.0,0.0,0.0,0.0,0.0,0.0,0.0,0.0,0.0,0.0,0.0,0.0,0.0,0.0,0.0,0.0,0.0,0.0,0.0,0.0,0.0,0.0,0.0,0.0,0.0,0.0,0.0,0.0,0.0,0.0,0.0,0.0,0.0,0.0,0.0,0.0,0.0,0.0,0.0,0.0,0.0,0.0,0.0,0.0,0.0,0.0,0.0,0.0,0.0,0.0,0.0,0.0,0.0,0.0,0.0,0.0,0.0,0.0,0.0,0.0,0.0,0.0,0.0,0.0,0.0,0.0,0.0,0.0,0.0,0.0,0.0,0.0,0.0,0.0,0.0,0.0,0.0,0.0,0.0,0.0,0.0,0.0,0.0,0.0,0.0,0.0,0.0,0.0,0.0,0.0,0.0,0.0,0.0,0.0,0.0,0.0,0.0,0.0,0.0,0.0,0.0,0.0,0.0,0.0,0.0,0.0,0.0,0.8662,0.8757,0.891,0.8984,0.8984,0.8774,0.7922,0.0,0.0,0.0,0.0,0.0,0.0,0.0,0.0,0.0,0.0,0.0,0.0,0.0,0.0,0.0,0.0,0.0,0.0,0.0,0.0,0.0,0.0,0.0,0.0,0.0,0.0,0.0,0.0,0.0,0.0,0.0,0.0,0.0,0.0,0.0,0.0,0.0,0.0,0.0,0.0,0.0,0.0,0.0,0.0,0.0,0.0,0.0,0.0,0.5196,0.0,0.0,0.0,0.0,0.0,0.0,0.0,0.0,0.0,0.0,0.0,0.0,0.0,0.0,0.0,0.0,0.0,0.0,0.0,0.0,0.0,0.0,0.0,0.0,0.0,0.0,0.0,0.0,0.0,0.0,0.0,0.0,0.0,0.0,0.0,0.0,0.0,0.0,0.0,0.0,0.0,0.0,0.0,0.0,0.0,0.0,0.0,0.0,0.0,0.0,0.0,0.0,0.0,0.0,0.0,0.0,0.0,0.0,0.0,0.8743,0.8818,0.8841,0.8937,0.8878,0.8804,0.8252,0.0,0.0,0.0,0.0,0.0,0.0,0.0,0.0,0.0,0.0,0.0,0.0,0.0,0.0,0.0,0.0,0.0,0.0,0.0,0.0,0.0,0.0,0.0,0.0,0.0,0.0,0.0,0.0,0.0,0.0,0.0,0.0,0.0,0.0,0.0,0.0,0.0,0.0,0.0,0.0,0.0,0.0,0.0,0.0,0.0,0.0,0.0,0.0,0.0,0.0,0.0,0.0,0.0,0.0,0.0,0.0,0.0,0.0,0.0,0.0,0.0,0.0,0.0,0.0,0.0,0.0,0.0,0.0,0.0,0.0,0.0,0.0,0.0,0.0,0.0,0.0,0.0,0.0,0.0,0.0,0.0,0.0,0.0,0.0,0.0,0.0,0.0,0.0,0.0,0.0,0.0,0.0,0.0,0.0,0.0,0.0,0.0,0.0,0.0,0.0,0.0,0.0,0.0,0.0,0.0,0.0,0.0,0.8482,0.876,0.8875,0.8937,0.8937,0.8937,0.8937,0.8605,0.8019,0.0,0.0,0.0,0.0,0.0,0.0,0.0,0.0,0.0,0.0,0.0,0.0,0.0,0.0,0.0,0.0,0.0,0.0,0.0,0.0,0.0,0.0,0.0,0.0,0.0,0.0,0.0,0.0,0.0,0.0,0.0,0.0,0.0,0.0,0.0,0.0,0.0,0.0,0.8314,0.8702,0.0,0.0,0.0,0.0,0.0,0.0,0.0,0.0,0.594,0.0,0.0,0.0,0.0,0.0,0.0,0.0,0.0,0.0,0.0,0.0,0.0,0.0,0.0,0.0,0.0,0.0,0.0,0.0,0.0,0.0,0.0,0.0,0.0,0.0,0.0,0.0,0.0,0.0,0.0,0.0,0.0,0.0,0.0,0.0,0.0,0.0,0.0,0.0,0.0,0.0,0.0,0.0,0.0,0.0,0.0,0.0,0.0,0.0,0.0,0.0,0.0,0.0,0.0,0.0,0.0,0.8401,0.8482,0.8655,0.8875,0.8937,0.8937,0.8937,0.8937,0.8602,0.8032,0.0,0.0,0.0,0.0,0.0,0.0,0.0,0.0,0.0,0.0,0.0,0.0,0.0,0.0,0.0,0.0,0.0,0.0,0.0,0.0,0.0,0.0,0.0,0.0,0.0,0.0,0.0,0.0,0.0,0.0,0.0,0.0,0.0,0.0,0.0,0.0,0.0,0.0,0.0,1.1972,1.1681,0.0,0.0,0.0,0.0,0.0,0.0,0.0,0.0,0.5701,0.0,0.0,0.0,0.0,0.0,0.0,0.0,0.0,0.0,0.0,0.0,0.0,0.0,0.0,0.0,0.0,0.0,0.0,0.0,0.0,0.0,0.0,0.0,0.0,0.0,0.0,0.0,0.0,0.0,0.0,0.0,0.0,0.0,0.0,0.0,0.0,0.0,0.0,0.0,0.0,0.0,0.0,0.0,0.0,0.0,0.0,0.0,0.0,0.0,0.0,0.0,0.0,0.0,0.0,0.0,0.835,0.9286,0.9537,0.8933,0.8937,0.8937,0.8878,0.8788,0.8492,0.0,0.0,0.0,0.0,0.0,0.0,0.0,0.0,0.0,0.0,0.0,0.0,0.0,0.0,0.0,0.0,0.0,0.0,0.0,0.0,0.0,0.0,0.0,0.0,0.0,0.0,0.0,0.0,0.0,0.0,0.0,0.0,0.0,0.0,0.0,0.0,0.0,0.0,0.0,0.0,1.316,1.2797,1.3018,0.0,0.0,0.0,0.0,0.0,0.0,0.7162,0.6762,0.0,0.0,0.0,0.0,0.0,0.0,0.0,0.0,0.0,0.0,0.0,0.0,0.0,0.0,0.0,0.0,0.0,0.0,0.0,0.0,0.0,0.0,0.0,0.0,0.0,0.0,0.0,0.0,0.0,0.0,0.0,0.0,0.0,0.0,0.0,0.0,0.0,0.0,0.0,0.0,0.0,0.0,0.0,0.0,0.0,0.0,0.0,0.0,0.0,0.0,0.0,0.0,0.0,0.0,0.0,0.8592,1.0136,1.0494,0.9368,0.9047,0.8937,0.8933,0.8672,0.8374,0.0,0.0,0.0,0.0,0.0,0.0,0.0,0.0,0.0,0.0,0.0,0.0,0.0,0.0,0.0,0.0,0.0,0.0,0.0,0.0,0.0,0.0,0.0,0.0,0.0,0.0,0.0,0.0,0.0,0.0,0.0,0.0,0.0,0.0,0.0,0.0,0.0,0.0,0.0,0.0,0.0,1.3944,1.4883,1.2504,0.0,0.0,0.0,0.0,0.8056,0.8015,0.0,0.0,0.0,0.0,0.0,0.0,0.0,0.0,0.0,0.0,0.0,0.0,0.0,0.0,0.0,0.0,0.0,0.0,0.0,0.0,0.0,0.0,0.0,0.0,0.0,0.0,0.0,0.0,0.0,0.0,0.0,0.0,0.0,0.0,0.0,0.0,0.0,0.0,0.0,0.0,0.0,0.0,0.0,0.0,0.0,0.0,0.0,0.0,0.0,0.0,0.0,0.0,0.0,0.0,0.0,0.0,1.0038,1.0455,1.0784,1.0765,0.9588,0.8937,0.8881,0.8774,0.8482,0.0,0.0,0.0,0.0,0.0,0.0,0.0,0.0,0.0,0.0,0.0,0.0,0.0,0.0,0.0,0.0,0.0,0.0,0.0,0.0,0.0,0.0,0.0,0.0,0.0,0.0,0.0,0.0,0.0,0.0,0.0,0.0,0.0,0.0,0.0,0.0,0.0,0.0,0.0,0.0,0.0,1.6355,1.4642,1.3144,1.207,0.0,0.0,0.935,0.9517,0.9542,0.0,0.0,0.0,0.0,0.0,0.0,0.0,0.0,0.0,0.0,0.0,0.0,0.0,0.0,0.0,0.0,0.0,0.0,0.0,0.0,0.0,0.0,0.0,0.0,0.0,0.0,0.0,0.0,0.0,0.0,0.0,0.0,0.0,0.0,0.0,0.0,0.0,0.0,0.0,0.0,0.0,0.0,0.0,0.0,0.0,0.0,0.0,0.0,0.0,0.0,0.0,0.0,0.0,0.0,0.0,1.2374,1.1277,1.2628,1.3024,1.2394,1.1697,1.0996,1.019,0.9834,0.9134,0.0,0.0,0.0,0.0,0.0,0.0,0.0,0.0,0.0,0.0,0.0,0.0,0.0,0.0,0.0,0.0,0.0,0.0,0.0,0.0,0.0,0.0,0.0,0.0,0.0,0.0,0.0,0.0,0.0,0.0,0.0,0.0,0.0,0.0,0.0,0.0,0.0,0.0,0.0,0.0,0.0,0.0,1.6036,1.4608,0.0,0.0,0.0,1.051,0.9893,0.0,0.0,0.0,0.0,0.0,0.0,0.0,0.0,0.0,0.0,0.0,0.0,0.0,0.0,0.0,0.0,0.0,0.0,0.0,0.0,0.0,0.0,0.0,0.0,0.0,0.0,0.0,0.0,0.0,0.0,0.0,0.0,0.0,0.0,0.0,0.0,0.0,0.0,0.0,0.0,0.0,0.0,0.0,0.0,0.0,0.0,0.0,0.0,0.0,0.0,0.0,0.0,0.0,0.0,0.0,0.0,0.0,1.241,1.4282,1.4786,1.3773,1.3455,1.2758,1.1562,1.1148,0.0,0.0,0.0,0.0,0.0,0.0,0.0,0.0,0.0,0.0,0.0,0.0,0.0,0.0,0.0,0.0,0.0,0.0,0.0,0.0,0.0,0.0,0.0,0.0,0.0,0.0,0.0,0.6569,0.0,0.0,0.0,0.0,0.0,0.0,0.0,0.0,0.0,0.0,0.0,0.0,0.0,0.0,1.6406,1.6774,1.5432,1.4551,0.0,0.0,1.1863,1.0967,1.0829,1.0222,0.0,0.0,0.0,0.0,0.0,0.0,0.0,0.0,0.0,0.0,0.0,0.0,0.0,0.0,0.0,0.0,0.0,0.0,0.0,0.0,0.0,0.0,0.0,0.0,0.0,0.0,0.0,0.0,0.0,0.0,0.0,0.0,0.0,0.0,0.0,0.0,0.0,0.0,0.0,0.0,0.0,0.0,0.0,0.0,0.0,0.0,0.0,0.0,0.0,0.0,0.0,0.0,0.0,0.0,1.4461,1.3655,1.4548,1.5007,1.4856,1.3859,1.3115,1.2692,1.2501,1.1573,0.0,0.0,0.0,0.0,0.0,0.0,0.0,0.0,0.0,0.0,0.0,0.0,0.0,0.0,0.0,0.0,0.0,0.0,0.0,0.0,0.0,0.0,0.0,0.0,0.0,0.0,0.0,0.0,0.0,0.0,0.0,0.0,0.0,0.0,0.0,0.0,0.0,0.0,0.0,0.0,0.0,1.6186,1.5952,1.4869,1.4642,0.0,0.0,1.359,1.3622,1.3603,1.267,0.9808,0.0,0.0,0.0,0.0,0.0,0.0,0.0,0.0,0.0,0.0,0.0,0.0,0.0,0.0,0.0,0.0,0.0,0.0,0.0,0.0,0.0,0.0,0.0,0.0,0.0,0.0,0.0,0.0,0.0,0.0,0.0,0.0,0.0,0.0,0.0,0.0,0.0,0.0,0.0,0.0,0.0,0.0,0.0,0.0,0.0,0.0,0.0,0.0,0.0,0.0,0.0,0.0,0.0,1.4176,1.4743,1.5615,1.6043,1.6049,1.5626,1.4894,1.3865,1.3729,1.2778,0.0,0.0,0.0,0.0,0.0,0.0,0.0,0.0,0.0,0.0,0.0,0.0,0.0,0.0,0.0,0.0,0.0,0.0,0.0,0.0,0.0,0.0,0.0,0.0,0.0,0.0,0.0,0.0,1.01,1.1516,1.2584,0.0,0.0,0.0,0.0,0.0,0.0,0.0,0.0,0.0,0.0,1.5825,1.6072,1.5712,0.0,0.0,1.5536,1.4735,1.401,1.3737,1.2659,0.993,0.938,0.0,0.0,0.0,0.0,0.0,0.0,0.0,0.0,0.0,0.0,0.0,0.0,0.0,0.0,0.0,0.0,0.0,0.0,0.0,0.0,0.0,0.0,0.0,0.0,0.0,0.0,0.0,0.0,0.0,0.0,0.0,0.0,0.0,0.0,0.0,0.0,0.0,0.0,0.0,0.0,0.0,0.0,0.0,0.0,0.0,0.0,0.0,0.0,0.0,0.0,0.0,0.0,1.4147,1.5271,1.6132,1.6573,1.658,1.666,1.6147,1.5094,1.4955,1.3978,0.0,0.0,0.0,0.0,0.0,0.0,0.0,0.0,0.0,0.0,0.0,0.0,0.0,0.0,0.0,0.0,0.0,0.0,0.0,0.0,0.0,0.0,0.0,0.0,0.0,0.0,0.0,0.0,1.1767,1.3349,1.4046,0.0,0.0,0.0,0.0,0.0,0.0,0.0,0.0,0.0,0.0,1.5571,1.6066,1.6146,1.6106,1.6025,1.5912,1.5427,1.4393,1.4149,1.3321,1.0902,0.0,0.0,0.0,0.0,0.0,0.0,0.0,0.0,0.0,0.0,0.0,0.0,0.0,0.0,0.0,0.0,0.0,0.0,0.0,0.0,0.0,0.0,0.0,0.0,0.0,0.0,0.0,1.4088,0.0,0.0,1.4088,0.0,0.0,0.0,0.0,0.0,0.0,0.0,0.0,0.0,0.0,0.0,0.0,0.0,0.0,0.0,0.0,0.0,0.0,0.0,0.0,0.0,0.0,1.4632,1.5022,1.5838,1.6335,1.6335,1.6553,1.6553,1.6237,1.6224,1.5274,1.3195,0.0,0.0,0.0,0.0,0.0,0.0,0.0,0.0,0.0,0.0,0.0,0.0,0.0,0.0,0.0,0.0,0.0,0.0,0.0,0.0,0.0,0.0,0.0,0.0,0.0,0.0,1.1992,1.3336,1.4046,0.0,0.0,0.0,0.0,0.0,0.0,0.0,0.0,0.0,0.0,1.5211,1.5504,1.5805,1.5798,1.5758,1.5478,1.5658,1.5591,1.5052,1.5358,1.5092,0.0,0.0,0.0,0.0,0.0,0.0,0.0,0.0,0.0,0.0,0.0,0.0,0.0,0.0,0.0,0.0,0.0,0.0,0.0,0.0,0.0,0.0,0.0,0.0,0.0,0.0,0.0,1.483,1.4389,0.0,0.0,0.0,0.0,0.0,0.0,0.0,0.0,0.0,0.0,0.0,1.5035,1.5357,0.0,0.0,0.0,0.0,0.0,0.0,0.0,0.0,0.0,0.0,0.0,0.0,1.4663,1.5022,1.5631,1.5979,1.5979,1.6072,1.6079,1.5979,1.5979,1.5037,1.3159,0.0,0.0,0.0,0.0,0.0,0.0,0.0,0.0,0.0,0.0,0.0,0.0,0.0,0.0,0.0,0.0,0.0,0.0,0.0,0.0,0.0,0.0,0.0,0.0,0.0,1.2135,0.0,0.0,0.0,0.0,0.0,0.0,0.0,0.0,0.0,0.0,0.0,1.4629,1.4968,1.5211,1.5504,1.5738,1.5825,1.5744,0.0,0.0,0.0,0.0,0.0,0.0,0.0,0.0,0.0,0.0,0.0,0.0,0.0,0.0,1.232,1.0608,0.9877,0.971,1.0115,0.0,0.0,0.0,0.0,0.0,0.0,0.0,0.0,0.0,0.0,0.0,0.0,0.0,0.0,1.5331,0.0,1.487,0.0,0.0,0.0,0.0,0.0,0.0,0.0,0.0,1.6066,1.5972,1.5484,1.5805,1.5732,0.0,1.5264,1.5117,0.0,0.0,0.0,0.0,0.0,0.0,0.0,0.0,1.477,1.5022,1.5538,1.5825,1.5825,1.5825,1.5825,1.5825,1.5684,1.5081,1.388,1.3374,1.2666,0.0,0.0,0.0,0.0,0.0,0.0,0.0,0.0,0.0,0.0,0.0,0.0,0.0,0.0,0.0,0.0,0.0,0.0,0.0,0.0,0.0,0.0,0.0,1.349,0.0,0.0,0.0,0.0,0.0,0.0,0.0,0.0,0.0,1.4298,1.4583,1.4897,1.509,1.5364,1.5611,1.5805,0.0,0.0,0.0,0.0,0.0,0.0,0.0,1.4811,1.3835,1.3324,1.2789,1.1966,1.2425,1.2936,1.2899,0.0,0.0,1.187,1.1224,1.1054,1.1471,1.13,1.1119,1.131,1.1253,1.1111,0.0,0.0,0.0,0.0,0.0,0.0,0.0,0.0,1.5985,1.5798,0.0,1.5538,0.0,0.0,0.0,0.0,0.0,1.6413,0.0,0.0,1.6981,1.6884,1.6335,1.6328,1.6126,1.5791,1.5812,1.5631,1.5384,1.483,0.0,0.0,0.0,0.0,0.0,0.0,1.5015,1.5042,1.5545,1.5825,1.5825,1.5825,1.5825,1.5798,1.5545,1.5384,1.5331,1.4543,1.3652,1.2668,1.1703,0.0,0.0,0.0,0.0,0.0,0.0,0.0,0.0,0.0,0.0,0.0,0.0,0.0,0.0,0.0,0.0,0.0,0.0,0.0,0.0,1.3428,0.0,0.0,0.0,0.0,0.0,0.0,0.0,0.0,0.0,0.0,1.487,1.5197,1.5476,1.5463,0.0,0.0,0.0,0.0,1.5799,1.5563,1.5705,1.5691,1.5147,1.5275,1.5209,1.4566,0.0,0.0,1.4135,1.4088,1.4046,1.4082,1.4082,1.4088,1.4033,1.3038,1.2735,1.3711,1.3074,1.2656,1.3331,1.331,1.322,1.8847,0.0,0.0,0.0,0.0,1.6587,1.658,1.658,1.6493,1.6339,1.6139,1.6059,0.0,0.0,0.0,0.0,0.0,0.0,1.6707,1.672,1.7065,1.6884,1.6279,1.648,1.6319,1.5784,1.5825,1.5738,1.5691,1.5324,1.4937,1.4479,0.0,0.0,0.0,0.0,1.5109,1.5284,1.5638,1.5825,1.5825,1.5825,1.5725,1.5531,1.5438,1.5204,1.4783,1.4529,1.4067,1.3319,1.2408,0.0,0.0,0.0,0.0,0.0,0.0,0.0,0.0,0.0,0.0,0.0,0.0,0.0,0.0,0.0,0.0,0.0,0.0,0.0,1.3451,1.3906,1.4001,0.0,0.0,0.0,0.0,0.0,0.0,0.0,0.0,0.0,1.7235,1.7749,1.7625,0.0,0.0,1.7949,1.6584,1.7244,1.7815,1.7438,1.7476,0.0,1.6286,1.6009,1.5603,1.4673,1.4349,1.4182,1.4102,1.4088,1.4088,1.4088,1.4088,1.4088,1.4088,1.3822,1.3695,1.399,1.3616,1.3328,1.3525,1.332,1.2998,2.1063,1.9074,1.8567,1.8377,1.848,1.8495,1.8561,1.8678,1.8546,1.8451,1.8442,1.8309,1.8012,1.7532,1.7591,0.0,0.0,0.0,1.7484,1.7061,1.7286,1.7125,1.669,1.668,1.646,1.6012,1.5885,1.5825,1.5825,1.5651,1.5331,1.487,0.0,0.0,1.4486,1.4816,1.499,1.5064,1.5337,1.5484,1.5484,1.5484,1.5404,1.5231,1.5224,1.5057,1.471,1.4583,1.4312,1.3959,1.3169,1.2819,0.0,0.0,0.0,0.0,0.0,0.0,0.0,0.0,0.0,0.0,0.0,1.0174,1.0163,0.0,0.0,0.0,1.262,1.3159,1.4026,1.4088,0.0,0.0,0.0,0.0,0.0,0.0,0.0,1.5846,1.7235,1.8341,1.882,1.9773,1.9756,1.7873,1.8556,1.8746,1.7401,0.0,1.8488,1.8232,1.8208,1.7983,1.7324,1.6958,1.6357,1.5149,1.486,1.4531,1.4166,1.4088,1.4088,1.4088,1.4088,1.4088,1.4088,1.4088,1.4088,1.4082,1.3806,1.358,1.346,1.3119,1.2757,2.3243,2.31,2.1851,2.1315,2.1279,2.1288,2.1412,2.1668,2.1337,2.1429,2.1668,2.1396,2.1096,2.0787,2.0548,0.0,1.9343,1.9373,1.8884,1.7943,1.7937,1.7669,1.7306,1.7029,1.6639,1.6226,1.5959,1.5825,1.5825,1.5825,1.5651,1.5431,1.5144,1.4863,1.4616,1.4881,1.4881,1.4603,1.4843,1.5015,1.5015,1.5015,1.5001,1.4975,1.4975,1.4961,1.4928,1.4629,1.4482,1.4469,1.3926,1.3626,1.3586,0.0,0.0,0.0,0.0,0.0,0.0,0.0,0.0,0.0,0.0,0.0,0.0,0.0,0.0,0.0,1.3741,0.0,1.4088,1.4088,0.0,0.0,0.0,1.3981,1.3666,1.4882,1.5737,1.582,0.0,0.0,1.9793,2.129,2.1603,1.937,1.9071,1.8858,1.8339,1.8384,1.8409,1.8471,1.8402,1.8359,1.8199,1.7835,1.7135,1.5992,1.576,1.5345,1.4539,1.4309,1.4288,1.4231,1.4154,1.4099,1.4084,1.4008,1.4015,1.3988,1.3781,1.3473,1.3227,1.2951,1.265,2.6343,2.6022,2.5676,2.4197,2.2051,2.2051,2.1884,2.1702,2.1611,2.1627,2.1693,2.1602,2.1412,2.1113,2.1021,2.0892,2.0727,2.0994,2.0961,2.0727,2.0743,1.9872,1.8386,1.8242,1.7386,1.6,1.5865,1.5825,1.5825,1.5825,1.5751,1.5718,1.5438,1.5257,1.519,1.5082,1.5082,1.519,1.5037,1.5015,1.5015,1.5015,1.4856,1.4636,1.4623,1.4516,1.4302,1.4229,1.4188,1.4188,1.4055,1.3881,1.3606,1.326,0.0,0.0,0.0,0.0,0.0,0.0,0.0,0.0,0.0,1.1993,1.1922,0.0,1.2918,0.0,1.3748,1.4088,1.4088,1.4088,0.0,0.0,1.4041,1.4055,1.3995,1.5011,1.6026,1.6846,1.8588,2.0021,2.0738,2.1525,2.1738,2.0793,2.0917,2.0592,1.9128,1.9802,2.0373,2.0052,1.9956,1.9728,1.8913,1.7719,1.6901,1.6516,1.6173,1.5825,1.5607,1.5561,1.5379,1.494,1.4656,1.4299,1.3865,1.3581,1.3434,1.342,1.336,1.322,1.2951,1.2663,1.2429,2.7803,2.7578,2.7578,2.6475,2.4706,2.4466,2.417,2.3802,2.3802,2.3704,2.3484,2.3484,2.3368,2.3211,2.3202,2.2849,2.2315,2.2472,2.2257,2.1693,2.1693,2.1003,1.9732,1.9583,1.8573,1.6873,1.6732,1.6339,1.5832,1.5825,1.5825,1.5825,1.5538,1.5398,1.5378,1.4977,1.479,1.481,1.47,1.468,1.4756,1.4643,1.4556,1.4516,1.4396,1.4249,1.4095,1.4088,1.4088,1.4088,1.4088,1.4008,1.3848,1.352,1.3327,0.0,0.0,0.0,0.0,0.0,0.0,0.0,0.0,0.0,0.0,0.0,1.2933,1.3327,1.3814,1.4088,1.4088,1.4088,1.4088,1.4088,1.4088,1.4292,1.4734,1.5745,1.6846,1.7948,1.938,2.0472,2.0897,2.1328,2.1435,2.0996,2.1143,2.0913,2.0016,2.0457,2.085,2.0644,2.0615,2.044,1.9795,1.8848,1.7949,1.7497,1.7022,1.6615,1.6076,1.6,1.5873,1.5553,1.5374,1.4963,1.4219,1.3943,1.3703,1.315,1.3006,1.2939,1.2817,1.2543,1.2305,2.8301,2.8301,2.8301,2.8086,2.7767,2.7334,2.6875,2.6387,2.6387,2.6143,2.5684,2.5684,2.5684,2.5684,2.5684,2.5069,2.3989,2.3939,2.3326,2.2215,2.2206,2.1837,2.1171,2.096,1.9934,1.8286,1.8053,1.7264,1.6062,1.6055,1.5974,1.5818,1.5498,1.5337,1.5317,1.4756,1.4342,1.4088,1.4088,1.4215,1.4456,1.4215,1.4208,1.4436,1.4222,1.4088,1.4088,1.4088,1.4088,1.4088,1.4088,1.4088,1.4082,1.3808,1.358,0.0,1.3313,0.0,0.0,0.0,0.0,0.0,0.0,0.0,0.0,1.3012,1.3132,1.3606,1.3935,1.4088,1.4088,1.4208,1.4292,1.4286,1.4454,1.4901,1.5827,1.6846,1.7908,1.8877,2.0254,2.0986,2.0654,2.0918,2.0996,2.0713,2.0664,2.0635,2.0576,2.0586,2.0635,2.0605,2.0546,2.043,2.0304,1.9963,1.9277,1.8458,1.7942,1.74,1.6504,1.6317,1.6246,1.6137,1.6088,1.574,1.4873,1.4697,1.4256,1.322,1.2989,1.2913,1.2766,1.2516,1.2318,2.8301,2.8301,2.8301,2.8242,2.8174,2.8086,2.7412,2.6387,2.6387,2.6143,2.5693,2.5684,2.5684,2.5684,2.5684,2.5586,2.5333,2.5323,2.5177,2.4922,2.4971,2.3964,2.2342,2.2253,2.1181,1.9298,1.9209,1.8542,1.7365,1.7365,1.6803,1.5812,1.5304,1.5089,1.5055,0.0,0.0,0.0,1.4088,1.4115,1.4162,1.4115,1.4115,1.4168,1.4115,0.0,1.4088,1.4088,1.4088,1.4088,1.4088,0.0,0.0,0.0,0.0,0.0,0.0,0.0,0.0,0.0,0.0,0.0,1.2911,1.275,1.2871,1.322,1.3621,1.3961,1.4055,1.4088,1.413,1.4894,1.5379,1.5421,1.6157,1.6813,1.7009,1.7989,1.8758,1.9006,1.9998,2.0713,2.0635,2.0683,2.0664,2.0625,2.0615,2.0615,2.0615,2.0615,2.0615,2.0586,2.0341,2.0059,2.0039,1.9424,1.8847,1.8533,1.82,1.7865,1.7612,1.7558,1.7344,1.6946,1.6651,1.6269,1.5548,1.5239,1.4779,1.374,1.3521,1.3294,1.2563,1.2345,1.2305,2.8301,0.0,2.8301,2.8301,0.0,2.8301,2.7812,2.7002,2.6787,2.6348,2.5684,2.5684,2.5684,2.5684,2.5684,2.5684,2.5684,2.5684,2.5684,2.5684,2.5684,2.4929,2.3467,2.3514,2.241,2.0458,2.0395,1.9761,1.8634,1.8596,1.7864,1.6508,1.6093,1.5492,1.478,1.4309,1.4088,1.4088,1.4088,1.4155,1.4289,1.4162,1.4155,1.4289,1.4162,0.0,0.0,0.0,0.0,0.0,0.0,0.0,0.0,0.0,0.0,1.3654,1.336,1.312,1.2934,1.2832,1.2886,1.318,1.3193,1.3193,1.3186,1.3607,1.3921,1.4068,1.4088,1.4328,1.4852,1.5372,1.5696,1.5737,1.6642,1.7302,1.7423,1.831,1.9195,1.9726,2.0245,2.0615,2.0615,2.0615,2.0615,2.0615,2.0615,2.0615,2.0615,2.0615,2.0615,2.0595,2.0205,1.9912,1.9834,1.9163,1.8588,1.8549,1.8247,1.8037,1.8008,1.8008,1.7871,1.7558,1.7357,1.7049,1.6289,1.5981,1.5614,1.4665,1.4027,1.36,1.3062,1.2629,1.2305,2.8301,2.8301,2.8301,2.8301,2.8301,2.8301,2.8008,2.7519,0.0,0.0,0.0,2.5684,2.5684,2.5684,2.5684,2.5684,2.5684,2.5684,2.5684,2.5684,2.5684,2.5273,2.4434,2.4424,2.3446,2.1686,2.1623,2.0989,1.9852,1.9807,1.9035,1.7604,1.723,1.6409,1.5076,1.457,1.4454,1.4664,1.4292,1.4208,1.4429,1.4208,1.4202,1.4392,1.4215,1.4088,1.4088,1.4088,1.4088,1.4088,1.4088,1.4088,1.4088,1.4088,1.4062,1.4001,1.3686,1.3527,1.352,1.3446,1.3521,1.3815,1.41,1.4077,1.3714,1.3948,1.4166,1.437,1.437,1.481,1.5869,1.6191,1.6265,1.6306,1.7253,1.79,1.794,1.8669,1.9648,2.0401,2.0566,2.0615,2.0615,2.0615,2.0615,2.0615,2.0615,2.0615,2.0615,2.0615,2.0615,2.0576,2.0117,1.9785,1.9687,1.9026,1.8539,1.8442,1.8223,1.8018,1.8008,1.8008,1.8008,1.7959,1.8008,1.7657,1.7026,1.6862,1.6532,1.5623,1.4799,1.4163,1.3918,1.32,1.2556,2.8301,2.8301,2.8301,2.8301,2.8301,2.8301,2.7842,2.708,2.666,2.6201,2.5684,2.5684,2.5684,2.5684,2.5684,2.5684,2.5684,2.5684,2.5684,2.5684,2.5684,2.5216,2.4443,2.4424,2.3829,2.2911,2.2853,2.2217,2.1159,2.1025,2.0197,1.8713,1.8327,1.7738,1.6892,1.5974,1.591,1.6772,1.5026,1.4108,1.4148,1.4108,1.4102,1.4142,1.4108,1.4088,1.4088,1.4088,1.4088,1.4088,1.4088,1.4088,1.4088,1.4088,1.3975,1.368,1.3434,1.3273,1.3273,1.3856,1.4843,1.6211,1.6613,1.6014,1.4231,1.4062,1.4489,1.533,1.5462,1.5902,1.6968,1.79,1.839,1.851,1.9432,2.0118,1.9952,2.0157,2.0362,2.0566,2.0615,2.0615,2.0615,2.0615,2.0615,2.0615,2.0615,2.0615,2.0615,2.0615,2.0615,2.0507,1.9883,1.9443,1.9375,1.8662,1.8217,1.8105,1.8115,1.8057,1.8066,1.8027,1.8008,1.8008,1.8008,1.793,1.775,1.7794,1.7364,1.6567,1.614,1.579,1.5128,1.4207,1.328,2.8301,2.8301,2.8301,2.8301,2.8301,2.8301,2.7949,2.7334,2.6914,2.6348,2.5713,2.5684,2.5684,2.5684,2.5684,2.5684,2.5684,2.5684,2.5684,2.5684,2.5684,2.5216,2.4482,2.4424,2.3975,2.314,2.3101,2.2818,2.2306,2.2271,2.1355,1.9557,1.7847,1.7042,1.7204,1.6232,1.6232,1.7253,1.6322,1.5545,1.4977,1.4977,1.4692,1.413,1.4088,1.4088,1.4088,1.4088,1.4088,1.4088,1.4088,1.4088,1.4088,1.4088,1.4028,1.3888,1.3567,1.375,1.4496,1.5438,1.63,1.7053,1.7235,1.6895,1.5918,1.5842,1.6034,1.6519,1.656,1.7041,1.8101,1.8718,1.9006,1.9006,1.9952,2.0323,1.9923,2.0284,2.0605,2.0615,2.0615,2.0615,2.0615,2.0615,2.0615,2.0615,2.0615,2.0615,2.0615,2.0615,2.0615,2.0537,1.9853,1.9473,1.9521,1.887,1.8481,1.8652,1.8471,1.8344,1.8295,1.8169,1.8037,1.8008,1.8008,1.8008,1.8008,1.8008,1.7794,1.7535,1.6888,1.6428,1.593,1.519,1.4063,2.8301,2.8301,2.8301,2.8301,2.8301,2.8301,2.7998,2.75,2.7148,2.6533,2.5742,2.5684,2.5684,2.5684,2.5684,2.5684,2.5684,2.5684,2.5684,2.5684,2.5684,2.5273,2.4482,2.4424,2.3919,2.3179,2.3101,2.3101,2.3101,2.3101,2.2256,2.0457,1.7805,1.696,1.798,1.6968,1.696,1.798,1.806,1.7415,1.6108,1.5827,1.5304,1.4531,1.4447,1.4328,1.4124,1.4328,1.4328,1.413,1.4328,1.4377,1.413,1.4328,1.437,1.4097,1.3766,1.4288,1.584,1.6798,1.7545,1.802,1.8029,1.806,1.8029,1.8069,1.79,1.7738,1.7706,1.8149,1.9116,1.9402,1.9362,1.9392,2.0079,2.0284,1.9608,2.0118,2.0615,2.0615,2.0615,2.0615,2.0615,2.0615,2.0615,2.0615,2.0615,2.0615,2.0615,2.0615,2.0615,2.0468,1.995,1.959,1.9814,1.9251,1.8939,1.9248,1.9014,1.8792,1.874,1.8506,1.8271,1.8242,1.8174,1.8125,1.8047,1.8008,1.7974,1.7862,1.7423,1.6888,1.6567,1.6,1.4879,2.8301,2.8301,2.8301,2.8301,2.8301,2.8301,2.7842,2.7139,2.7021,2.6533,2.5752,2.5684,2.5684,2.5684,2.5684,2.5684,2.5684,2.5684,2.5684,2.5684,2.5684,2.5216,2.4463,2.4404,2.3919,2.3179,2.3101,2.3101,2.3101,2.3062,2.26,2.1617,1.9687,1.9146,2.0001,1.9155,1.9195,2.0245,2.0284,1.9274,1.7253,1.6191,1.5655,1.5579,1.5538,1.5095,1.425,1.5012,1.5095,1.4292,1.5012,1.5095,1.4328,1.5012,1.5095,1.4188,1.3808,1.4522,1.6531,1.7112,1.8221,2.004,2.0167,2.0157,2.0196,2.0245,1.9835,1.9076,1.8838,1.9323,2.0284,2.0411,2.0323,2.0284,2.0489,2.0566,2.044,2.0527,2.0615,2.0615,2.0615,2.0615,2.0615,2.0615,2.0615,2.0615,2.0615,2.0615,2.0615,2.0615,2.0615,2.0546,2.0146,1.9912,1.9893,1.9551,1.9336,1.9326,1.9277,1.9219,1.9199,1.915,1.9043,1.849,1.849,1.8364,1.8125,1.8008,1.8008,1.8008,1.7794,1.7613,1.6888,1.6567,1.572,2.8301,2.8301,2.8301,2.8301,2.8301,2.8301,2.7949,2.7402,2.7129,2.668,2.6123,2.5801,2.5684,2.5684,2.5684,2.5684,2.5684,2.5684,2.5684,2.5654,2.5478,2.501,2.4443,2.415,2.3721,2.314,2.3101,2.3101,2.3003,2.2604,2.2217,2.1744,1.9969,1.952,2.044,1.952,1.9529,2.0566,2.0615,2.0157,1.9195,1.7528,1.6355,1.5779,1.5696,1.5538,1.5137,1.5496,1.5496,1.5095,1.5462,1.5504,1.5054,1.5455,1.5408,1.4837,1.5774,1.6611,1.7095,1.8453,1.9638,2.0566,2.0615,2.0615,2.0615,2.0615,2.0401,2.004,1.9971,2.0167,2.0527,2.0615,2.0615,2.0615,2.0615,2.0615,2.0615,2.0615,2.0615,2.0615,2.0615,2.0615,2.0615,2.0615,2.0615,2.0615,2.0615,2.0615,2.0615,2.0615,2.0615,2.0586,2.0439,2.0312,2.0254,1.9941,1.9814,1.9912,1.9814,1.9668,1.9639,1.9414,1.9141,1.8695,1.8646,1.8471,1.8052,1.8018,1.8008,1.8008,1.8008,1.7862,1.751,1.7432,1.6793,2.8301,2.8301,2.8301,2.8301,2.8301,2.8301,2.8057,2.7627,2.7197,2.6777,2.6367,2.5928,2.5684,2.5684,2.5684,2.5684,2.5684,2.5684,2.5684,2.5635,2.5273,2.4844,2.4414,2.3994,2.3564,2.3159,2.3101,2.3101,2.3003,2.2295,2.1936,2.1634,2.0259,1.9795,2.044,1.9795,1.9795,2.0527,2.0615,2.0489,1.9962,1.859,1.7374,1.6675,1.6593,1.647,1.615,1.6437,1.6437,1.6142,1.6437,1.6314,1.5779,1.6273,1.6327,1.5907,1.7144,1.7974,1.777,1.9283,2.0284,2.0566,2.0615,2.0615,2.0615,2.0615,2.0615,2.0566,2.0615,2.0566,2.0615,2.0615,2.0615,2.0615,2.0615,2.0615,2.0615,2.0615,2.0615,2.0615,2.0615,2.0615,2.0615,2.0615,2.0615,2.0615,2.0615,2.0615,2.0615,2.0615,2.0615,2.0615,2.0605,2.0595,2.0586,2.0361,2.0303,2.04,2.0282,2.0098,2.0088,1.9805,1.9421,1.9141,1.8926,1.8574,1.8144,1.8018,1.8008,1.8008,1.8008,1.8008,1.7896,1.7974,1.7725,2.8301,2.8301,2.8301,2.8301,2.8301,2.8301,2.8047,2.7699,2.7217,2.6787,2.6367,2.5957,2.5693,2.5684,2.5684,2.5684,2.5684,2.5684,2.5684,2.5645,2.5273,2.4844,2.4404,2.3994,2.3564,2.312,2.3101,2.3101,2.3042,2.2324,2.1936,2.1836,2.0946,2.0547,2.0566,2.0489,2.0527,2.0566,2.0615,2.0157,1.9283,1.9036,1.8877,1.8758,1.8798,1.823,1.7496,1.827,1.831,1.7253,1.8149,1.7859,1.6191,1.769,1.8186,1.7333,1.7325,1.7865,1.8709,1.9116,1.9599,2.0411,2.0615,2.0615,2.0615,2.0615,2.0615,2.0615,2.0615,2.0615,2.0615,2.0615,2.0615,2.0615,2.0615,2.0615,2.0615,2.0615,2.0615,2.0615,2.0615,2.0615,2.0615,2.0615,2.0615,2.0615,2.0615,2.0615,2.0615,2.0615,2.0615,2.0615,2.0615,2.0615,2.0595,2.0517,2.0527,2.0566,2.0537,2.0517,2.0556,2.0468,1.9989,1.9597,1.9365,1.8955,1.8301,1.8008,1.8008,1.8008,1.8008,1.8008,1.8008,1.8008,1.7828,2.8301,2.8301,2.8301,2.8301,2.8301,2.8301,2.8057,2.7718,2.75,2.7031,2.6445,2.6221,2.5996,2.5684,2.5684,2.5684,2.5684,2.5684,2.5684,2.5635,2.5273,2.4834,2.4404,2.3984,2.3564,2.3149,2.3101,2.3101,2.3042,2.2559,2.2148,2.1826,2.1299,2.0869,2.0664,2.0615,2.0615,2.0615,2.0615,2.0401,2.004,2.004,2.004,2.0001,1.9362,1.8798,1.839,1.8798,1.8789,1.839,1.8798,1.863,1.7954,1.8272,1.8184,1.7527,1.8351,1.896,1.9079,1.9638,2.0167,2.0527,2.0615,2.0615,2.0615,2.0615,2.0615,2.0615,2.0615,2.0615,2.0615,2.0615,2.0615,2.0615,2.0615,2.0615,2.0615,2.0615,2.0615,2.0615,2.0615,2.0615,2.0615,2.0615,2.0615,2.0615,2.0615,2.0615,2.0615,2.0615,2.0615,2.0615,2.0615,2.0615,2.0615,2.0605,2.0605,2.0605,2.0595,2.0576,2.0605,2.0605,2.0224,1.9795,1.9639,1.9287,1.8603,1.8086,1.8066,1.8008,1.8008,1.8008,1.8008,1.8008,1.8008,2.8301,2.8301,2.8301,2.8301,2.8301,2.8301,2.8135,2.7861,2.7777,2.7386,2.6826,2.6523,2.6221,2.5947,2.5752,2.5684,2.5684,2.5684,2.5684,2.5645,2.5273,2.4834,2.4404,2.3984,2.3564,2.3159,2.3101,2.3101,2.3042,2.2672,2.2373,2.207,2.1483,2.1094,2.0801,2.0683,2.0615,2.0615,2.0615,2.0605,2.0615,2.0615,2.0615,2.0489,1.9874,1.952,1.952,1.952,1.952,1.952,1.952,1.952,1.9492,1.89,1.8512,1.8519,1.9454,1.9966,1.967,2.0196,2.0605,2.0615,2.0615,2.0615,2.0615,2.0615,2.0615,2.0615,2.0615,2.0615,2.0615,2.0615,2.0615,2.0615,2.0615,2.0615,2.0615,2.0615,2.0615,2.0615,2.0615,2.0615,2.0615,2.0615,2.0615,2.0615,2.0615,2.0615,2.0615,2.0615,2.0615,2.0615,2.0615,2.0615,2.0615,2.0615,2.0615,2.0615,2.0615,2.0615,2.0615,2.0615,2.0478,2.0078,1.9727,1.9394,1.8936,1.8359,1.8125,1.8057,1.8008,1.8008,1.8008,1.8008,1.8008,2.8301,2.8301,2.8301,2.8301,2.8301,2.8301,2.8281,2.8184,2.7861,2.7708,2.7474,2.6777,2.6416,2.6279,2.5918,2.5684,2.5684,2.5684,2.5684,2.5635,2.5312,2.4863,2.4404,2.4043,2.3594,2.311,2.3101,2.3101,2.3071,2.273,2.2539,2.2344,2.1678,2.1278,2.1171,2.082,2.0635,2.0615,2.0615,2.0615,2.0615,2.0615,2.0615,2.0615,2.0489,2.045,2.0518,2.0527,2.045,2.0489,2.0489,2.0566,2.0323,1.9592,1.9462,2.0187,2.0547,2.0547,2.0518,2.0557,2.0615,2.0615,2.0615,2.0615,2.0615,2.0615,2.0615,2.0615,2.0615,2.0615,2.0615,2.0615,2.0615,2.0615,2.0615,2.0615,2.0615,2.0615,2.0615,2.0615,2.0615,2.0615,2.0615,2.0615,2.0615,2.0615,2.0615,2.0615,2.0615,2.0615,2.0615,2.0615,2.0615,2.0615,2.0615,2.0615,2.0615,2.0615,2.0615,2.0615,2.0615,2.0605,2.0507,2.0156,1.9785,1.9443,1.9062,1.8535,1.835,1.8252,1.8154,1.8125,1.8144,1.8164,1.8027,2.8301,2.8301,2.8301,2.8301,2.8301,2.8301,2.8301,2.8291,2.8144,2.7939,2.7598,2.707,2.667,2.6328,2.5928,2.5684,2.5684,2.5684,2.5684,2.5664,2.5576,2.5117,2.4512,2.4277,2.3848,2.3198,2.3101,2.3101,2.3071,2.2955,2.2769,2.249,2.2256,2.1797,2.1249,2.1084,2.0898,2.0644,2.0615,2.0615,2.0615,2.0615,2.0615,2.0615,2.0615,2.0615,2.0615,2.0615,2.0615,2.0615,2.0615,2.0615,2.0527,2.0284,2.0284,2.0527,2.0615,2.0615,2.0615,2.0615,2.0615,2.0615,2.0615,2.0615,2.0615,2.0615,2.0615,2.0615,2.0615,2.0615,2.0615,2.0615,2.0615,2.0615,2.0615,2.0615,2.0615,2.0615,2.0615,2.0615,2.0615,2.0615,2.0615,2.0615,2.0615,2.0615,2.0615,2.0615,2.0615,2.0615,2.0615,2.0615,2.0615,2.0615,2.0615,2.0615,2.0615,2.0615,2.0615,2.0615,2.0615,2.0595,2.0449,2.0254,1.9883,1.9521,1.9131,1.8838,1.8643,1.8594,1.8603,1.8535,1.8403,1.8247,1.8086,2.8301,2.8301,2.8301,2.8301,2.8301,2.8301,2.8301,2.8301,2.8301,2.8135,2.7822,2.7266,2.6875,2.6533,2.6006,2.5693,2.5684,2.5684,2.5684,2.5684,2.5684,2.5284,2.4658,2.4297,2.3793,2.3218,2.3101,2.3101,2.3101,2.3091,2.2964,2.273,2.2598,2.2223,2.1687,2.1502,2.126,2.0879,2.082,2.0732,2.0644,2.0615,2.0615,2.0615,2.0615,2.0615,2.0615,2.0615,2.0615,2.0615,2.0615,2.0615,2.0615,2.0576,2.0615,2.0615,2.0615,2.0615,2.0615,2.0615,2.0615,2.0615,2.0615,2.0615,2.0615,2.0615,2.0615,2.0615,2.0615,2.0615,2.0615,2.0615,2.0615,2.0615,2.0615,2.0615,2.0615,2.0615,2.0615,2.0615,2.0615,2.0615,2.0615,2.0615,2.0615,2.0615,2.0615,2.0615,2.0615,2.0615,2.0615,2.0615,2.0615,2.0615,2.0615,2.0615,2.0615,2.0615,2.0615,2.0615,2.0615,2.0615,2.0546,2.0361,2.0059,1.9814,1.9453,1.9141,1.8926,1.8984,1.9023,1.8685,1.8461,1.8188,1.8047,2.8301,2.8301,2.8301,2.8301,2.8301,2.8301,2.8301,2.8301,2.8301,2.8271,2.8086,2.7363,2.7002,2.6807,2.6064,2.5684,2.5684,2.5684,2.5684,2.5684,2.5654,2.543,2.4863,2.418,2.3613,2.3159,2.3101,2.3101,2.3101,2.3101,2.3101,2.3013,2.2721,2.2529,2.2344,2.209,2.168,2.119,2.1151,2.0977,2.0644,2.0615,2.0615,2.0615,2.0615,2.0615,2.0615,2.0615,2.0615,2.0615,2.0615,2.0615,2.0615,2.0615,2.0615,2.0615,2.0615,2.0615,2.0615,2.0615,2.0615,2.0615,2.0615,2.0615,2.0615,2.0615,2.0615,2.0615,2.0615,2.0615,2.0615,2.0615,2.0615,2.0615,2.0615,2.0615,2.0615,2.0615,2.0615,2.0615,2.0615,2.0615,2.0615,2.0615,2.0615,2.0615,2.0615,2.0615,2.0615,2.0615,2.0615,2.0615,2.0615,2.0615,2.0615,2.0615,2.0615,2.0615,2.0615,2.0615,2.0615,2.0615,2.0488,2.0312,2.0234,2.001,1.9795,1.9473,1.9404,1.9531,1.9316,1.8822,1.852,1.835,1.8086,2.8301,2.8301,2.8301,2.8301,2.8301,2.8301,2.8301,2.8301,2.8301,2.8301,2.8105,2.7383,2.7012,2.6914,2.6083,2.5684,2.5684,2.5684,2.5684,2.5684,2.5684,2.5235,2.4629,2.4053,2.3564,2.3149,2.3101,2.3101,2.3101,2.3101,2.3101,2.3101,2.2974,2.276,2.2539,2.2412,2.1943,2.1298,2.12,2.1025,2.0683,2.0615,2.0615,2.0615,2.0615,2.0615,2.0615,2.0615,2.0615,2.0615,2.0615,2.0615,2.0615,2.0615,2.0615,2.0615,2.0615,2.0615,2.0615,2.0615,2.0615,2.0615,2.0615,2.0615,2.0615,2.0615,2.0615,2.0615,2.0615,2.0615,2.0615,2.0615,2.0615,2.0615,2.0615,2.0615,2.0615,2.0615,2.0615,2.0615,2.0615,2.0644,2.0654,2.0654,2.0654,2.0654,2.0654,2.0654,2.0654,2.0762,2.082,2.0654,2.0615,2.0615,2.0615,2.0615,2.0615,2.0615,2.0615,2.0615,2.0615,2.0615,2.0352,2.0117,2.0195,2.0049,1.9961,1.9775,1.9902,2.0019,1.9609,1.915,1.8887,1.8652,1.8271,2.8301,2.8301,2.8301,2.8301,2.8301,2.8301,2.8301,2.8301,2.8301,2.8301,2.8105,2.7393,2.7012,2.6924,2.6074,2.5693,2.5684,2.5684,2.5684,2.5654,2.5537,2.5068,2.4453,2.3984,2.3564,2.313,2.3101,2.3101,2.3101,2.3101,2.3101,2.3101,2.3101,2.2955,2.2779,2.2711,2.2321,2.167,2.1494,2.1221,2.0664,2.0615,2.0615,2.0615,2.0615,2.0615,2.0615,2.0615,2.0615,2.0615,2.0615,2.0615,2.0615,2.0615,2.0615,2.0615,2.0615,2.0615,2.0615,2.0615,2.0615,2.0615,2.0615,2.0615,2.0615,2.0615,2.0615,2.0615,2.0615,2.0615,2.0615,2.0615,2.0615,2.0615,2.0615,2.0615,2.0615,2.0615,2.0615,2.0644,2.0723,2.084,2.085,2.085,2.085,2.0869,2.0898,2.0879,2.0889,2.0957,2.0977,2.084,2.0742,2.0762,2.0674,2.0615,2.0615,2.0615,2.0615,2.0615,2.0615,2.0615,2.0488,2.0264,2.0205,2.0166,2.0137,2.0146,2.0254,2.0185,1.9814,1.9561,1.9316,1.8955,1.8574,2.8301,2.8301,2.8301,2.8301,2.8301,2.8301,2.8301,2.8301,2.8301,2.8301,2.8105,2.7393,2.7031,2.6953,2.6133,2.5684,2.5684,2.5684,2.5684,2.5586,2.5264,2.4756,2.4424,2.3984,2.3564,2.3149,2.3101,2.3101,2.3101,2.3101,2.3101,2.3101,2.3101,2.3101,2.3023,2.3042,2.2695,2.208,2.1846,2.1445,2.0869,2.0674,2.0615,2.0615,2.0615,2.0615,2.0615,2.0615,2.0615,2.0615,2.0615,2.0615,2.0615,2.0615,2.0615,2.0615,2.0615,2.0615,2.0615,2.0615,2.0615,2.0615,2.0615,2.0615,2.0615,2.0615,2.0615,2.0615,2.0615,2.0654,2.0752,2.0742,2.085,2.0899,2.083,2.0772,2.0723,2.0664,2.0625,2.0683,2.1006,2.1151,2.1259,2.1268,2.1268,2.1269,2.124,2.1152,2.1182,2.1269,2.124,2.1133,2.1055,2.0996,2.0791,2.0615,2.0615,2.0615,2.0615,2.0615,2.0615,2.0615,2.0615,2.0546,2.0439,2.0429,2.0478,2.0537,2.0566,2.0381,2.0039,1.9922,1.9795,1.9346,1.8926,2.8301,2.8301,2.8301,2.8301,2.8301,2.8301,2.8301,2.8301,2.8301,2.8301,2.8096,2.7393,2.7031,2.6973,2.6113,2.5684,2.5684,2.5684,2.5684,2.5586,2.4893,2.456,2.4326,2.3965,2.3555,2.3188,2.3101,2.3101,2.3101,2.3101,2.3101,2.3101,2.3101,2.3101,2.3101,2.3081,2.2867,2.2402,2.206,2.1621,2.1103,2.0723,2.0615,2.0615,2.0615,2.0615,2.0615,2.0615,2.0615,2.0615,2.0615,2.0615,2.0615,2.0615,2.0615,2.0615,2.0615,2.0615,2.0615,2.0615,2.0615,2.0615,2.0615,2.0615,2.0615,2.0615,2.0615,2.0615,2.0615,2.0791,2.1055,2.1406,2.1515,2.1525,2.1544,2.1574,2.1525,2.1036,2.082,2.1025,2.1201,2.1367,2.1699,2.1738,2.1728,2.1699,2.1602,2.1424,2.1523,2.1631,2.1602,2.1522,2.1475,2.1396,2.1084,2.0948,2.0948,2.084,2.0771,2.0703,2.0703,2.0615,2.0615,2.0615,2.0595,2.0615,2.0615,2.0605,2.0595,2.04,2.0273,2.0137,1.9941,1.958,1.9519,2.8301,2.8301,2.8301,2.8301,2.8301,2.8301,2.8301,2.8301,2.8301,2.8301,2.8115,2.7393,2.7021,2.6934,2.6103,2.5684,2.5684,2.5684,2.5684,2.5489,2.4816,2.4443,2.4258,2.3809,2.3296,2.311,2.3101,2.3101,2.3101,2.3101,2.3101,2.3101,2.3101,2.3101,2.3101,2.3081,2.274,2.2275,2.2012,2.167,2.12,2.081,2.0615,2.0615,2.0615,2.0615,2.0615,2.0615,2.0615,2.0615,2.0615,2.0615,2.0615,2.0615,2.0615,2.0615,2.0615,2.0615,2.0615,2.0615,2.0615,2.0615,2.0615,2.0615,2.0615,2.0615,2.0742,2.082,2.0928,2.1064,2.1475,2.1689,2.1916,2.1936,2.1904,2.1894,2.1816,2.1505,2.129,2.1533,2.1707,2.1934,2.21,2.2158,2.2178,2.2158,2.2119,2.197,2.2158,2.2236,2.2168,2.21,2.1973,2.1777,2.1435,2.1299,2.1348,2.126,2.1143,2.1055,2.0986,2.0781,2.0615,2.0615,2.0615,2.0615,2.0615,2.0615,2.0615,2.0537,2.0391,2.0273,2.0185,2.0106,2.0067,2.8301,2.8301,2.8301,2.8301,2.8301,2.8301,2.8301,2.8301,2.8301,2.8232,2.8057,2.7344,2.6963,2.6738,2.6054,2.5703,2.5684,2.5684,2.5684,2.5557,2.4824,2.4473,2.4228,2.3652,2.3149,2.3101,2.3101,2.3101,2.3101,2.3101,2.3101,2.3101,2.3101,2.3101,2.3101,2.2984,2.2725,2.2168,2.1855,2.168,2.1328,2.0928,2.0625,2.0615,2.0615,2.0615,2.0615,2.0615,2.0615,2.0615,2.0615,2.0615,2.0615,2.0615,2.0615,2.0615,2.0615,2.0615,2.0644,2.0683,2.0752,2.0703,2.082,2.084,2.0869,2.0938,2.1045,2.125,2.1426,2.1621,2.1934,2.2148,2.2148,2.2139,2.2109,2.208,2.208,2.207,2.208,2.2002,2.2139,2.2324,2.25,2.2565,2.2607,2.2598,2.2559,2.2578,2.2695,2.2676,2.2519,2.2432,2.2266,2.2021,2.168,2.1602,2.166,2.165,2.1523,2.1435,2.1298,2.123,2.1065,2.0674,2.0615,2.0625,2.0625,2.0615,2.0615,2.0615,2.0576,2.0468,2.0507,2.0595,2.0537,2.8301,2.8301,2.8301,2.8301,2.8301,2.8301,2.8301,2.8301,2.8301,2.8086,2.7734,2.7246,2.6816,2.6445,2.5947,2.5693,2.5684,2.5684,2.5684,2.5528,2.4863,2.4424,2.4248,2.3555,2.312,2.3101,2.3101,2.3101,2.3101,2.3101,2.3101,2.3101,2.3101,2.3101,2.3003,2.2779,2.2588,2.2187,2.1738,2.1484,2.1523,2.1152,2.0732,2.0713,2.0693,2.0644,2.0615,2.0615,2.0615,2.0615,2.0615,2.0615,2.0615,2.0615,2.0615,2.0615,2.0615,2.0615,2.0693,2.0918,2.1074,2.1201,2.1377,2.1633,2.1652,2.1662,2.1602,2.1797,2.207,2.2324,2.2402,2.2627,2.2818,2.2857,2.2799,2.2799,2.2808,2.2769,2.2643,2.248,2.2549,2.2627,2.274,2.2857,2.2847,2.2779,2.2691,2.276,2.2896,2.2769,2.2555,2.2487,2.248,2.2207,2.1904,2.1904,2.1924,2.1973,2.1904,2.1846,2.1777,2.1758,2.1543,2.1143,2.0791,2.0674,2.0664,2.0625,2.0615,2.0615,2.0615,2.0615,2.0615,2.0615,2.0615,2.8301,2.8301,2.8301,2.8301,2.8301,2.8301,2.8301,2.8301,2.8291,2.8057,2.7637,2.7207,2.6777,2.6357,2.5937,2.5693,2.5684,2.5684,2.5684,2.5489,2.4873,2.4424,2.4316,2.3491,2.3179,2.3101,2.3101,2.3101,2.3101,2.3101,2.3101,2.3101,2.3101,2.3101,2.3003,2.2701,2.2422,2.2119,2.1611,2.1445,2.1865,2.1562,2.1416,2.1006,2.0879,2.0791,2.0625,2.0615,2.0615,2.0615,2.0615,2.0615,2.0625,2.0625,2.0625,2.0625,2.0625,2.0693,2.0859,2.1152,2.1259,2.1562,2.1797,2.1875,2.1936,2.1875,2.2012,2.2256,2.2578,2.2842,2.2842,2.2994,2.3071,2.3101,2.3101,2.3101,2.3101,2.3101,2.2955,2.2789,2.2828,2.2886,2.2964,2.3052,2.3081,2.3013,2.2886,2.2955,2.3081,2.2935,2.2711,2.2721,2.2711,2.2594,2.2402,2.2363,2.2324,2.2334,2.2295,2.2236,2.2158,2.2119,2.1875,2.1494,2.1182,2.0967,2.0674,2.0635,2.0625,2.0615,2.0615,2.0615,2.0615,2.0615,2.0644,2.8301,2.8301,2.8301,2.8301,2.8301,2.8301,2.8301,2.8301,2.8301,2.7998,2.7519,2.7158,2.6728,2.626,2.5937,2.5684,2.5684,2.5684,2.5684,2.5499,2.4844,2.4424,2.418,2.3588,2.3101,2.3101,2.3101,2.3101,2.3101,2.3101,2.3101,2.3101,2.3101,2.3101,2.3013,2.2725,2.2314,2.1885,2.1484,2.1455,2.1777,2.2197,2.2168,2.1375,2.1279,2.1045,2.0801,2.0654,2.0664,2.0703,2.0772,2.0762,2.0713,2.0742,2.0742,2.0703,2.0742,2.0908,2.1093,2.1514,2.1748,2.1982,2.2109,2.2148,2.2187,2.2305,2.2334,2.2584,2.2847,2.3062,2.3033,2.3091,2.3101,2.3101,2.3101,2.3101,2.3101,2.3101,2.3101,2.3033,2.3101,2.3101,2.3101,2.3101,2.3101,2.3101,2.2974,2.2984,2.3101,2.3101,2.2974,2.3003,2.3013,2.3013,2.2916,2.2857,2.2808,2.2769,2.2691,2.2604,2.2539,2.2432,2.2168,2.1963,2.1797,2.1543,2.1084,2.0713,2.0703,2.0742,2.0654,2.0615,2.0615,2.0713,2.0771,2.8301,2.8301,2.8301,2.8301,2.8301,2.8301,2.8301,2.8301,2.8301,2.7822,2.7148,2.7012,2.6582,2.5977,2.5742,2.5684,2.5684,2.5684,2.5684,2.5547,2.4853,2.4424,2.4287,2.3481,2.3149,2.3101,2.3101,2.3101,2.3101,2.3101,2.3101,2.3101,2.3101,2.3101,2.3052,2.2715,2.2314,2.1894,2.1494,2.1288,2.1483,2.2168,2.2217,2.1855,2.1514,2.1239,2.1143,2.0918,2.084,2.1083,2.1152,2.1152,2.1112,2.1112,2.1112,2.1122,2.1122,2.1142,2.1375,2.1814,2.2266,2.2461,2.2695,2.293,2.2818,2.2808,2.2847,2.2984,2.3081,2.3091,2.3101,2.3101,2.3101,2.3101,2.3101,2.3101,2.3101,2.3101,2.3101,2.3101,2.3101,2.3101,2.3101,2.3101,2.3101,2.3101,2.3101,2.3101,2.3101,2.3101,2.3101,2.3101,2.3101,2.3101,2.3101,2.3101,2.3101,2.3101,2.3023,2.2916,2.2818,2.2701,2.2662,2.251,2.2301,2.2051,2.1553,2.1201,2.0986,2.0908,2.0987,2.082,2.0615,2.0732,2.1025,2.8301,2.8301,2.8301,2.8301,2.8301,2.8301,2.8301,2.8301,2.8281,2.7822,2.7129,2.7012,2.6493,2.581,2.5684,2.5684,2.5684,2.5684,2.5684,2.5499,2.4893,2.4424,2.4219,2.3549,2.3101,2.3101,2.3101,2.3101,2.3101,2.3101,2.3101,2.3101,2.3101,2.3101,2.3062,2.2672,2.2461,2.2236,2.207,2.1973,2.2109,2.248,2.2666,2.2266,2.2041,2.1836,2.1592,2.1475,2.1387,2.1592,2.1602,2.1602,2.1611,2.1602,2.1602,2.1621,2.1855,2.1921,2.199,2.2292,2.2535,2.2832,2.2984,2.3052,2.3091,2.3101,2.3101,2.3091,2.3091,2.3101,2.3101,2.3101,2.3101,2.3101,2.3101,2.3101,2.3101,2.3101,2.3101,2.3101,2.3101,2.3101,2.3101,2.3101,2.3101,2.3101,2.3101,2.3101,2.3101,2.3101,2.3101,2.3101,2.3101,2.3101,2.3101,2.3101,2.3101,2.3101,2.3091,2.3023,2.3052,2.2994,2.2916,2.2896,2.2789,2.2428,2.2012,2.1728,2.1494,2.1437,2.1359,2.1241,2.1153,2.1329,2.1514,2.8301,2.8301,2.8301,2.8301,2.8281,2.8184,2.8193,2.8291,2.8164,2.7705,2.7109,2.6777,2.6239,2.582,2.5684,2.5684,2.5684,2.5684,2.5684,2.5391,2.4884,2.4473,2.4114,2.3559,2.3101,2.3101,2.3101,2.3101,2.3101,2.3101,2.3101,2.3101,2.3101,2.3101,2.3013,2.2828,2.2604,2.2461,2.2441,2.2422,2.2529,2.2828,2.2847,2.2725,2.2539,2.2363,2.21,2.1875,2.1855,2.2031,2.2041,2.2041,2.2041,2.2041,2.2041,2.208,2.2275,2.2428,2.2506,2.2682,2.2799,2.2974,2.3101,2.3101,2.3101,2.3101,2.3101,2.3101,2.3101,2.3101,2.3101,2.3101,2.3101,2.3101,2.3101,2.3101,2.3101,2.3101,2.3101,2.3101,2.3101,2.3101,2.3101,2.3101,2.3101,2.3101,2.3101,2.3101,2.3101,2.3101,2.3101,2.3101,2.3101,2.3101,2.3101,2.3101,2.3101,2.3101,2.3101,2.3101,2.3101,2.3101,2.3042,2.3062,2.3101,2.2906,2.2487,2.2266,2.1992,2.1818,2.1662,2.1789,2.1828,2.1914,2.1992,2.8301,2.8301,2.8301,2.8301,2.8271,2.7924,2.7959,2.8252,2.7943,2.7461,2.6894,2.621,2.584,2.5703,2.5684,2.5684,2.5684,2.5684,2.5684,2.5401,2.4855,2.4521,2.417,2.3647,2.313,2.3101,2.3101,2.3101,2.3101,2.3101,2.3101,2.3101,2.3101,2.3101,2.3081,2.2994,2.2799,2.2633,2.2565,2.2588,2.2685,2.2877,2.3042,2.2964,2.2691,2.249,2.2461,2.2197,2.2158,2.2451,2.2471,2.2471,2.2428,2.2428,2.2471,2.251,2.2539,2.2754,2.2877,2.2955,2.3033,2.3081,2.3101,2.3101,2.3101,2.3101,2.3101,2.3101,2.3101,2.3101,2.3101,2.3101,2.3101,2.3101,2.3101,2.3101,2.3101,2.3101,2.3101,2.3101,2.3101,2.3101,2.3101,2.3101,2.3101,2.3101,2.3101,2.3101,2.3101,2.3101,2.3101,2.3101,2.3101,2.3101,2.3101,2.3101,2.3101,2.3101,2.3101,2.3101,2.3101,2.3101,2.3101,2.3101,2.3091,2.3052,2.3003,2.2705,2.2363,2.2041,2.1953,2.2168,2.2217,2.2236,2.2344,2.8301,2.8301,2.8301,2.8301,2.8281,2.8115,2.8144,2.8213,2.7894,2.7256,2.6621,2.6025,2.5684,2.5684,2.5684,2.5684,2.5684,2.5684,2.5684,2.5557,2.5137,2.4707,2.4316,2.3877,2.3383,2.3169,2.311,2.3101,2.3101,2.3101,2.3101,2.3101,2.3101,2.3101,2.3101,2.3101,2.2974,2.2916,2.2847,2.2847,2.2886,2.2964,2.3101,2.3062,2.3003,2.2857,2.2828,2.2711,2.2783,2.2832,2.2871,2.2818,2.2818,2.2818,2.2818,2.2818,2.2852,2.2916,2.3033,2.3101,2.3101,2.3101,2.3101,2.3101,2.3101,2.3101,2.3101,2.3101,2.3101,2.3101,2.3101,2.3101,2.3101,2.3101,2.3101,2.3101,2.3101,2.3101,2.3101,2.3101,2.3101,2.3101,2.3101,2.3101,2.3101,2.3101,2.3101,2.3101,2.3101,2.3101,2.3101,2.3101,2.3101,2.3101,2.3101,2.3101,2.3101,2.3101,2.3101,2.3101,2.3101,2.3101,2.3101,2.3101,2.3101,2.3081,2.3023,2.2945,2.2783,2.2529,2.2549,2.2715,2.2695,2.2578,2.2613,2.8301,2.8301,2.8301,2.8301,2.8262,2.8018,2.8057,2.8174,2.7695,2.7178,2.6533,2.5976,2.5684,2.5684,2.5684,2.5684,2.5684,2.5684,2.5684,2.5547,2.5254,2.4912,2.4521,2.4072,2.3603,2.3305,2.312,2.3101,2.3101,2.3101,2.3101,2.3101,2.3101,2.3101,2.3101,2.3101,2.3101,2.3101,2.3101,2.3101,2.3081,2.3091,2.3101,2.3101,2.3062,2.3052,2.3042,2.2984,2.3013,2.3042,2.3062,2.3081,2.3091,2.3091,2.3101,2.3101,2.3101,2.3101,2.3101,2.3101,2.3101,2.3101,2.3101,2.3101,2.3101,2.3101,2.3101,2.3101,2.3101,2.3101,2.3101,2.3101,2.3101,2.3101,2.3101,2.3101,2.3101,2.3101,2.3101,2.3101,2.3101,2.312,2.3218,2.3237,2.3276,2.3296,2.3398,2.3266,2.3101,2.3101,2.3101,2.3101,2.3101,2.3101,2.3101,2.3101,2.3101,2.3101,2.3101,2.3101,2.3101,2.3101,2.3101,2.3101,2.3101,2.3101,2.3062,2.3003,2.3033,2.3033,2.3013,2.2945,2.2945,2.2838,2.2906,2.8281,2.8301,2.8301,2.8281,2.8164,2.7402,2.7559,2.8135,2.7441,2.6982,2.6719,2.5996,2.5684,2.5684,2.5684,2.5684,2.5684,2.5684,2.5684,2.5625,2.5391,2.5127,2.4822,2.4336,2.3916,2.3691,2.3447,2.3198,2.3101,2.3101,2.3101,2.3101,2.3101,2.3101,2.3101,2.3101,2.3101,2.3101,2.3101,2.3101,2.3101,2.3101,2.3101,2.3101,2.3101,2.3101,2.3101,2.3101,2.3101,2.3101,2.3101,2.3101,2.3101,2.3101,2.3101,2.3101,2.3101,2.3101,2.3101,2.3101,2.3101,2.3101,2.3101,2.3101,2.3101,2.3101,2.3101,2.3101,2.3101,2.3101,2.3101,2.3101,2.3101,2.312,2.312,2.314,2.3149,2.3393,2.3452,2.3393,2.3227,2.3159,2.3305,2.3413,2.3506,2.3564,2.3643,2.3555,2.3325,2.3315,2.3403,2.3276,2.3276,2.3159,2.3159,2.311,2.3101,2.3101,2.3101,2.3101,2.3101,2.3101,2.3101,2.3101,2.3101,2.3101,2.3101,2.3091,2.3101,2.3101,2.3101,2.3062,2.3091,2.3101,2.3101,2.8047,2.8291,2.8301,2.8125,2.7861,2.7578,2.7783,2.8086,2.7402,2.6658,2.6152,2.5752,2.5684,2.5684,2.5684,2.5684,2.5684,2.5684,2.5684,2.5654,2.5527,2.5312,2.5077,2.4783,2.4316,2.3887,2.3584,2.3359,2.3101,2.3101,2.3101,2.3101,2.3101,2.3101,2.3101,2.3101,2.3101,2.3101,2.3101,2.3101,2.3101,2.3101,2.3101,2.3101,2.3101,2.3101,2.3101,2.3101,2.3101,2.3101,2.3101,2.3101,2.3101,2.3101,2.3101,2.3101,2.3101,2.3101,2.3101,2.3101,2.3101,2.311,2.314,2.3149,2.3101,2.3101,2.3101,2.314,2.3208,2.3198,2.3101,2.311,2.313,2.3188,2.3218,2.3257,2.3364,2.3793,2.4007,2.3887,2.373,2.3822,2.3958,2.4102,2.4121,2.415,2.4258,2.415,2.3975,2.3975,2.4023,2.374,2.3594,2.3398,2.3237,2.3169,2.311,2.3101,2.3101,2.3101,2.3101,2.3101,2.3101,2.3101,2.3101,2.3101,2.3101,2.3101,2.3101,2.3101,2.3101,2.3101,2.3101,2.3101,2.3101,2.7598,2.7842,2.7851,2.7695,2.7461,2.7441,2.7539,2.7539,2.7031,2.6465,2.5986,2.5781,2.5684,2.5684,2.5684,2.5684,2.5684,2.5684,2.5684,2.5684,2.5674,2.5547,2.5352,2.5145,2.4609,2.4121,2.3789,2.3564,2.311,2.3101,2.3101,2.3101,2.3101,2.3101,2.3101,2.3101,2.3101,2.3101,2.3101,2.3101,2.3101,2.3101,2.3101,2.3101,2.3101,2.3101,2.3101,2.3101,2.3101,2.3101,2.3101,2.3101,2.3101,2.3101,2.3101,2.3101,2.3101,2.3101,2.3101,2.3101,2.3159,2.3389,2.3315,2.3325,2.3374,2.3574,2.3588,2.3598,2.35,2.3413,2.3364,2.3364,2.3452,2.3574,2.3633,2.3691,2.3809,2.4248,2.4365,2.4219,2.4228,2.4424,2.4639,2.4785,2.4844,2.4863,2.4845,2.4717,2.4541,2.4502,2.4434,2.417,2.3867,2.3633,2.3428,2.3208,2.3149,2.3101,2.3101,2.3101,2.3101,2.3101,2.3101,2.3101,2.3101,2.3101,2.3101,2.3101,2.3101,2.3101,2.3101,2.3101,2.3101,2.3101,2.3101,2.7002,2.7012,2.7012,2.7031,2.7002,2.6953,2.6748,2.6416,2.6416,2.6377,2.6299,2.581,2.5684,2.5684,2.5684,2.5684,2.5684,2.5684,2.5684,2.5684,2.5684,2.5625,2.5557,2.5312,2.4853,2.4414,2.4033,2.3682,2.3159,2.3101,2.3101,2.3101,2.3101,2.3101,2.3101,2.3101,2.3101,2.3101,2.3101,2.3101,2.3101,2.3101,2.3101,2.3101,2.3101,2.3101,2.3101,2.3101,2.3101,2.3101,2.3101,2.3101,2.3101,2.3101,2.3101,2.3101,2.3101,2.3101,2.311,2.311,2.3344,2.3633,2.3848,2.3828,2.3877,2.4023,2.4092,2.415,2.4121,2.3984,2.3887,2.3994,2.4102,2.417,2.4228,2.4277,2.4316,2.4473,2.4541,2.4541,2.458,2.4746,2.5019,2.5205,2.5273,2.5342,2.5245,2.5099,2.4923,2.4814,2.4717,2.4502,2.4199,2.3877,2.3643,2.3389,2.3159,2.3101,2.3101,2.3101,2.3101,2.311,2.3101,2.3101,2.3101,2.3101,2.3101,2.3101,2.3101,2.3101,2.3101,2.3101,2.3101,2.3101,2.3101,2.6748,2.7002,2.7012,2.6846,2.6543,2.625,2.6025,2.5918,2.623,2.624,2.5918,2.5791,2.5684,2.5684,2.5684,2.5684,2.5684,2.5684,2.5684,2.5684,2.5684,2.5684,2.5625,2.5527,2.5068,2.4609,2.4199,2.3828,2.3227,2.3101,2.3101,2.3101,2.3101,2.3101,2.3101,2.3101,2.3101,2.3101,2.3101,2.3101,2.3101,2.3101,2.3101,2.3101,2.3101,2.3101,2.3101,2.3101,2.3101,2.3101,2.3101,2.3101,2.3101,2.3101,2.3101,2.3101,2.3101,2.3101,2.314,2.3418,2.3672,2.3935,2.4297,2.4443,2.4404,2.4404,2.4521,2.459,2.46,2.4463,2.4365,2.4434,2.4473,2.4482,2.46,2.4756,2.4814,2.4932,2.499,2.4951,2.499,2.5099,2.541,2.5469,2.5537,2.5615,2.5615,2.546,2.5333,2.5167,2.5031,2.4873,2.456,2.4238,2.3818,2.3525,2.3257,2.3101,2.3208,2.3247,2.3179,2.3179,2.312,2.3101,2.3101,2.3101,2.3101,2.3101,2.3101,2.3101,2.3101,2.3101,2.3101,2.3101,2.3101,2.6279,2.6494,2.6504,2.6357,2.6113,2.5859,2.5684,2.5732,2.6025,2.5918,2.5703,2.5684,2.5684,2.5684,2.5684,2.5684,2.5684,2.5684,2.5684,2.5684,2.5684,2.5684,2.5684,2.5615,2.5128,2.4707,2.4297,2.3935,2.3305,2.3101,2.3101,2.3101,2.3101,2.3101,2.3101,2.3101,2.3101,2.3101,2.3101,2.3101,2.3101,2.3101,2.3101,2.3101,2.3101,2.3101,2.3101,2.3101,2.3101,2.3101,2.3101,2.3101,2.3101,2.3101,2.3101,2.3101,2.3101,2.3101,2.3159,2.3545,2.3799,2.415,2.4668,2.4932,2.5029,2.5059,2.5011,2.5021,2.4943,2.4912,2.4863,2.4805,2.4756,2.4707,2.4951,2.5185,2.5332,2.5478,2.5459,2.54,2.5469,2.5557,2.5664,2.5684,2.5684,2.5684,2.5684,2.5625,2.5557,2.5499,2.5411,2.5342,2.498,2.4619,2.4189,2.3857,2.374,2.3637,2.3744,2.3715,2.3506,2.3379,2.3364,2.3247,2.3101,2.3101,2.312,2.3101,2.3101,2.3101,2.312,2.313,2.312,2.3101,2.3101,2.5693,2.5723,2.5684,2.5742,2.5693,2.5684,2.5684,2.5684,2.5723,2.5684,2.5684,2.5684,2.5684,2.5684,2.5684,2.5684,2.5684,2.5684,2.5684,2.5684,2.5684,2.5684,2.5684,2.5625,2.5148,2.4697,2.4287,2.3984,2.3315,2.3101,2.3101,2.3101,2.3101,2.3101,2.3101,2.3101,2.3101,2.3101,2.3101,2.3101,2.3101,2.3101,2.3101,2.3101,2.3101,2.3101,2.3101,2.3101,2.3101,2.3101,2.3101,2.3101,2.3101,2.3101,2.3101,2.3101,2.3101,2.3188,2.3325,2.3711,2.4102,2.4463,2.4883,2.5244,2.542,2.5411,2.5382,2.5382,2.5313,2.5293,2.5234,2.5273,2.5206,2.5215,2.5322,2.5469,2.5547,2.5586,2.5577,2.5576,2.5605,2.5684,2.5684,2.5684,2.5684,2.5684,2.5684,2.5684,2.5684,2.5684,2.5654,2.5635,2.5234,2.4883,2.4736,2.4443,2.4326,2.4307,2.4316,2.4189,2.3906,2.3769,2.3682,2.3535,2.3325,2.3179,2.314,2.312,2.311,2.313,2.3149,2.3169,2.3188,2.3257,2.3286,2.5684,2.5684,2.5684,2.5684,2.5684,2.5684,2.5684,2.5684,2.5684,2.5684,2.5684,2.5684,2.5684,2.5684,2.5684,2.5684,2.5684,2.5684,2.5684,2.5684,2.5684,2.5684,2.5684,2.5654,2.5177,2.4687,2.4287,2.3929,2.3335,2.314,2.3101,2.3101,2.3101,2.3101,2.3101,2.3101,2.3101,2.3101,2.3101,2.3101,2.3101,2.3101,2.3101,2.3101,2.3101,2.3101,2.3101,2.3101,2.3101,2.3101,2.3101,2.3101,2.3101,2.3101,2.3101,2.3101,2.3101,2.3247,2.3603,2.3955,2.4375,2.4844,2.5244,2.5518,2.5645,2.5674,2.5684,2.5684,2.5654,2.5635,2.5605,2.5615,2.5654,2.5625,2.5596,2.5645,2.5684,2.5684,2.5684,2.5684,2.5684,2.5684,2.5684,2.5684,2.5684,2.5684,2.5684,2.5684,2.5684,2.5684,2.5684,2.5625,2.5322,2.5096,2.5019,2.4961,2.4805,2.4648,2.459,2.4453,2.4297,2.415,2.4004,2.3809,2.3643,2.3467,2.3247,2.311,2.311,2.3198,2.3389,2.3486,2.3701,2.3818,2.3779,2.5684,2.5684,2.5684,2.5684,2.5684,2.5684,2.5684,2.5684,2.5684,2.5684,2.5684,2.5684,2.5684,2.5684,2.5684,2.5684,2.5684,2.5684,2.5684,2.5684,2.5684,2.5684,2.5684,2.5664,2.5332,2.4814,2.4268,2.3828,2.3383,2.3149,2.3101,2.3101,2.3101,2.311,2.3101,2.3091,2.3135,2.3101,2.3135,2.3178,2.3135,2.3101,2.3101,2.3101,2.3101,2.3101,2.3101,2.3101,2.3101,2.3101,2.3101,2.3101,2.3101,2.3101,2.3101,2.3101,2.314,2.3276,2.3769,2.4189,2.4619,2.5068,2.5478,2.5645,2.5664,2.5684,2.5684,2.5684,2.5684,2.5674,2.5674,2.5664,2.5674,2.5654,2.5645,2.5664,2.5684,2.5684,2.5684,2.5684,2.5684,2.5684,2.5684,2.5684,2.5684,2.5684,2.5684,2.5684,2.5684,2.5684,2.5684,2.5635,2.541,2.5352,2.54,2.5342,2.5215,2.5011,2.4902,2.4863,2.4785,2.4531,2.427,2.415,2.3945,2.3682,2.3506,2.3335,2.3379,2.3496,2.3652,2.3809,2.4053,2.4307,2.4326,2.5684,2.5684,2.5684,2.5684,2.5684,2.5684,2.5684,2.5684,2.5684,2.5684,2.5684,2.5684,2.5684,2.5684,2.5684,2.5684,2.5684,2.5684,2.5684,2.5684,2.5684,2.5684,2.5684,2.5645,2.5371,2.4922,2.4355,2.4023,2.3711,2.3555,2.3383,2.3188,2.314,2.3159,2.3154,2.3256,2.343,2.3387,2.343,2.343,2.3309,2.3101,2.3101,2.3101,2.3101,2.3101,2.3101,2.3101,2.3101,2.3101,2.3101,2.3101,2.3101,2.3101,2.3101,2.3101,2.3101,2.3383,2.3857,2.4238,2.4687,2.5127,2.5518,2.5654,2.5674,2.5684,2.5684,2.5684,2.5684,2.5684,2.5684,2.5684,2.5684,2.5684,2.5684,2.5684,2.5684,2.5684,2.5684,2.5684,2.5684,2.5684,2.5684,2.5684,2.5684,2.5684,2.5684,2.5684,2.5684,2.5684,2.5684,2.5684,2.5615,2.5577,2.5635,2.5557,2.5411,2.543,2.5294,2.5332,2.5273,2.5068,2.4814,2.4531,2.4307,2.4193,2.3922,2.3721,2.374,2.3898,2.4111,2.4336,2.4473,2.4707,2.4873,2.5684,2.5684,2.5684,2.5684,2.5684,2.5684,2.5684,2.5684,2.5684,2.5684,2.5684,2.5684,2.5684,2.5684,2.5684,2.5684,2.5684,2.5684,2.5684,2.5684,2.5684,2.5684,2.5684,2.5664,2.5449,2.5039,2.458,2.418,2.4072,2.4072,2.3799,2.3227,2.3564,2.3521,2.3285,2.3517,2.3877,2.38,2.4264,2.4606,2.3387,2.3178,2.3091,2.3101,2.3101,2.3101,2.3101,2.3101,2.3101,2.3101,2.3101,2.3101,2.3101,2.3101,2.3101,2.3101,2.3101,2.3574,2.3994,2.4297,2.4717,2.542,2.5674,2.5674,2.5684,2.5684,2.5684,2.5684,2.5684,2.5684,2.5684,2.5684,2.5684,2.5684,2.5684,2.5684,2.5684,2.5684,2.5684,2.5684,2.5684,2.5684,2.5684,2.5684,2.5684,2.5684,2.5684,2.5684,2.5684,2.5684,2.5684,2.5732,2.5732,2.5684,2.5674,2.5664,2.5586,2.5654,2.5664,2.5596,2.5547,2.5625,2.5381,2.534,2.5095,2.4937,2.4598,2.4706,2.4433,2.4653,2.4798,2.4912,2.501,2.5098,2.5244]}]]